Site Date LOGGERID PROGID SNOWDEP_MED_0_0_01 SNOWDEP_QUAL_0_0_01 WSPD_PRO_MEAN_1000_0_01 WMAG_PRO_MEAN_1000_0_01 WDIR_PRO_MEAN_1000_0_01 WDIR_PRO_STDDEV_1000_0_01 DEWPT_MEAN_150_0_04 DEWPT_MEAN_450_0_01 VAPDEF150_AVG VAPDEF450_AVG AIRTEMP_MEAN_150_0_04 AIRTEMP_MEAN_250_0_03 AIRTEMP_MEAN_350_0_02 AIRTEMP_MEAN_450_0_01 RELHUM_MEAN_150_0_04 RELHUM_MEAN_450_0_01 WSPD_PRO_MAX_1000_0_01 AIRTEMP_MAX_150_0_04 AIRTEMP_MAX_250_0_03 AIRTEMP_MAX_350_0_02 AIRTEMP_MAX_450_0_01 AIRTEMP_MIN_150_0_04 AIRTEMP_MIN_250_0_03 AIRTEMP_MIN_350_0_02 AIRTEMP_MIN_450_0_01 DEWPT_MAX_150_0_04 DEWPT_MAX_450_0_01 DEWPT_MIN_150_0_04 DEWPT_MIN_450_0_01 SATVP_MEAN_150_0_04 VAP_MEAN_150_0_04 VPD_MEAN_150_0_04 SATVP_MEAN_450_0_01 VAP_MEAN_450_0_01 VPD_MEAN_450_0_01
PRIMET_226 2017-10-01 00:00:00 226 156.7 0.00 202 0.007 0.007 214.000 0.048 9.350 9.290 0.000 0.000 9.35 9.460 9.520 9.290 100.000 100.000 0.007 9.36 9.470 9.530 9.310 9.34 9.450 9.510 9.280 9.360 9.310 9.340 9.280 11.754 11.754 0.000 11.707 11.707 0.000
PRIMET_226 2017-09-30 23:55:00 226 156.7 0.00 202 0.007 0.007 214.000 0.056 9.360 9.310 0.000 0.000 9.36 9.470 9.540 9.310 100.000 100.000 0.007 9.38 9.490 9.570 9.330 9.35 9.450 9.520 9.290 9.380 9.330 9.350 9.290 11.762 11.762 0.000 11.722 11.722 0.000
PRIMET_226 2017-09-30 23:50:00 226 156.7 0.00 203 0.007 0.007 214.000 0.040 9.380 9.320 0.000 0.000 9.38 9.480 9.560 9.320 100.000 100.000 0.007 9.40 9.500 9.570 9.340 9.37 9.470 9.540 9.310 9.400 9.340 9.370 9.310 11.778 11.778 0.000 11.730 11.730 0.000
PRIMET_226 2017-09-30 23:45:00 226 156.7 0.00 193 0.007 0.007 214.000 0.040 9.410 9.340 0.000 0.000 9.41 9.510 9.580 9.340 100.000 100.000 0.007 9.44 9.530 9.600 9.360 9.39 9.500 9.560 9.320 9.440 9.360 9.390 9.320 11.802 11.802 0.000 11.746 11.746 0.000
PRIMET_226 2017-09-30 23:40:00 226 156.7 0.00 197 0.007 0.007 214.000 0.048 9.420 9.350 0.000 0.000 9.42 9.520 9.590 9.350 100.000 100.000 0.007 9.43 9.530 9.600 9.360 9.41 9.510 9.580 9.330 9.430 9.360 9.410 9.330 11.810 11.810 0.000 11.754 11.754 0.000
PRIMET_226 2017-09-30 23:35:00 226 156.7 0.00 202 0.007 0.007 214.000 0.040 9.430 9.340 0.000 0.000 9.43 9.530 9.590 9.340 100.000 100.000 0.007 9.44 9.540 9.600 9.360 9.42 9.510 9.570 9.320 9.440 9.360 9.420 9.320 11.818 11.818 0.000 11.746 11.746 0.000
PRIMET_226 2017-09-30 23:30:00 226 156.7 0.00 201 0.007 0.007 214.000 0.056 9.420 9.340 0.000 0.000 9.42 9.520 9.580 9.340 100.000 100.000 0.007 9.44 9.530 9.600 9.360 9.40 9.500 9.570 9.320 9.440 9.360 9.400 9.320 11.810 11.810 0.000 11.746 11.746 0.000
PRIMET_226 2017-09-30 23:25:00 226 156.7 0.00 190 0.007 0.007 214.000 0.028 9.380 9.310 0.000 0.000 9.38 9.490 9.550 9.310 100.000 100.000 0.007 9.40 9.520 9.580 9.330 9.36 9.470 9.530 9.300 9.400 9.330 9.360 9.300 11.778 11.778 0.000 11.722 11.722 0.000
PRIMET_226 2017-09-30 23:20:00 226 156.7 0.00 195 0.007 0.007 214.000 0.028 9.370 9.300 0.000 0.000 9.37 9.470 9.540 9.300 100.000 100.000 0.007 9.39 9.480 9.550 9.320 9.35 9.460 9.520 9.280 9.390 9.320 9.350 9.280 11.770 11.770 0.000 11.715 11.715 0.000
PRIMET_226 2017-09-30 23:15:00 226 156.7 0.00 199 0.007 0.007 214.000 0.048 9.400 9.320 0.000 0.000 9.40 9.500 9.560 9.320 100.000 100.000 0.007 9.40 9.510 9.580 9.340 9.38 9.490 9.550 9.310 9.400 9.340 9.380 9.310 11.794 11.794 0.000 11.730 11.730 0.000
PRIMET_226 2017-09-30 23:10:00 226 156.7 0.00 199 0.007 0.007 214.000 0.040 9.400 9.320 0.000 0.000 9.40 9.500 9.570 9.320 100.000 100.000 0.007 9.41 9.520 9.580 9.340 9.39 9.480 9.550 9.300 9.410 9.340 9.390 9.300 11.794 11.794 0.000 11.730 11.730 0.000
PRIMET_226 2017-09-30 23:05:00 226 156.7 0.00 201 0.007 0.007 214.000 0.028 9.380 9.300 0.000 0.000 9.38 9.470 9.540 9.300 100.000 100.000 0.007 9.39 9.480 9.550 9.310 9.37 9.460 9.530 9.290 9.390 9.310 9.370 9.290 11.778 11.778 0.000 11.715 11.715 0.000
PRIMET_226 2017-09-30 23:00:00 226 156.7 0.00 201 0.007 0.007 214.000 0.040 9.390 9.300 0.000 0.000 9.39 9.490 9.550 9.300 100.000 100.000 0.007 9.40 9.500 9.570 9.310 9.37 9.470 9.530 9.290 9.400 9.310 9.370 9.290 11.786 11.786 0.000 11.715 11.715 0.000
PRIMET_226 2017-09-30 22:55:00 226 156.7 0.00 199 0.007 0.007 214.000 0.056 9.370 9.300 0.000 0.000 9.37 9.480 9.540 9.300 100.000 100.000 0.007 9.39 9.490 9.550 9.330 9.36 9.460 9.530 9.280 9.390 9.330 9.360 9.280 11.770 11.770 0.000 11.715 11.715 0.000
PRIMET_226 2017-09-30 22:50:00 226 156.7 0.00 200 0.007 0.007 214.000 0.040 9.420 9.360 0.000 0.000 9.42 9.520 9.590 9.360 100.000 100.000 0.007 9.44 9.550 9.620 9.390 9.38 9.480 9.560 9.320 9.440 9.390 9.380 9.320 11.810 11.810 0.000 11.762 11.762 0.000
PRIMET_226 2017-09-30 22:45:00 226 156.7 0.00 192 0.007 0.007 214.000 0.028 9.410 9.350 0.000 0.000 9.41 9.510 9.590 9.350 100.000 100.000 0.007 9.43 9.540 9.620 9.390 9.39 9.480 9.560 9.330 9.430 9.390 9.390 9.330 11.802 11.802 0.000 11.754 11.754 0.000
PRIMET_226 2017-09-30 22:40:00 226 156.7 0.00 199 0.007 0.007 214.000 0.056 9.400 9.320 0.000 0.000 9.40 9.490 9.560 9.320 100.000 100.000 0.007 9.41 9.500 9.570 9.340 9.38 9.480 9.550 9.310 9.410 9.340 9.380 9.310 11.794 11.794 0.000 11.730 11.730 0.000
PRIMET_226 2017-09-30 22:35:00 226 156.7 0.00 200 0.007 0.007 214.000 0.040 9.390 9.320 0.000 0.000 9.39 9.480 9.550 9.320 100.000 100.000 0.007 9.40 9.500 9.560 9.330 9.38 9.470 9.550 9.300 9.400 9.330 9.380 9.300 11.786 11.786 0.000 11.730 11.730 0.000
PRIMET_226 2017-09-30 22:30:00 226 156.7 0.00 200 0.007 0.007 214.000 0.000 9.420 9.320 0.000 0.000 9.42 9.490 9.560 9.320 100.000 100.000 0.007 9.44 9.510 9.560 9.340 9.39 9.480 9.550 9.310 9.440 9.340 9.390 9.310 11.810 11.810 0.000 11.730 11.730 0.000
PRIMET_226 2017-09-30 22:25:00 226 156.7 0.00 200 0.007 0.007 214.000 0.048 9.420 9.320 0.000 0.000 9.42 9.500 9.560 9.320 100.000 100.000 0.007 9.44 9.510 9.570 9.340 9.40 9.480 9.550 9.310 9.440 9.340 9.400 9.310 11.810 11.810 0.000 11.730 11.730 0.000
PRIMET_226 2017-09-30 22:20:00 226 156.7 0.00 200 0.007 0.007 214.000 0.056 9.400 9.330 0.000 0.000 9.40 9.490 9.560 9.330 100.000 100.000 0.007 9.42 9.500 9.570 9.340 9.38 9.480 9.550 9.310 9.420 9.340 9.380 9.310 11.794 11.794 0.000 11.738 11.738 -0.000
PRIMET_226 2017-09-30 22:15:00 226 156.7 0.00 199 0.007 0.007 214.000 0.028 9.420 9.330 0.000 0.000 9.42 9.490 9.560 9.330 100.000 100.000 0.007 9.44 9.510 9.570 9.340 9.39 9.470 9.550 9.320 9.440 9.340 9.390 9.320 11.810 11.810 0.000 11.738 11.738 -0.000
PRIMET_226 2017-09-30 22:10:00 226 156.7 0.00 200 0.007 0.007 214.000 0.028 9.420 9.340 0.000 0.000 9.42 9.500 9.570 9.340 100.000 100.000 0.007 9.44 9.520 9.590 9.350 9.38 9.480 9.550 9.310 9.440 9.350 9.380 9.310 11.810 11.810 0.000 11.746 11.746 0.000
PRIMET_226 2017-09-30 22:05:00 226 156.7 0.00 195 0.007 0.007 213.800 0.112 9.390 9.330 0.000 0.000 9.39 9.470 9.550 9.330 100.000 100.000 0.007 9.41 9.490 9.570 9.350 9.38 9.460 9.530 9.310 9.410 9.350 9.380 9.310 11.786 11.786 0.000 11.738 11.738 -0.000
PRIMET_226 2017-09-30 22:00:00 226 156.7 0.00 201 0.007 0.007 213.800 0.048 9.420 9.340 0.000 0.000 9.42 9.500 9.570 9.340 100.000 100.000 0.007 9.43 9.510 9.580 9.350 9.40 9.490 9.560 9.330 9.430 9.350 9.400 9.330 11.810 11.810 0.000 11.746 11.746 0.000
PRIMET_226 2017-09-30 21:55:00 226 156.7 0.00 201 0.007 0.007 213.800 0.069 9.420 9.330 0.000 0.000 9.42 9.490 9.560 9.330 100.000 100.000 0.007 9.43 9.510 9.580 9.350 9.41 9.480 9.540 9.310 9.430 9.350 9.410 9.310 11.810 11.810 0.000 11.738 11.738 -0.000
PRIMET_226 2017-09-30 21:50:00 226 156.7 0.00 201 0.007 0.007 213.700 0.220 9.410 9.320 0.000 0.000 9.41 9.490 9.560 9.320 100.000 100.000 0.007 9.43 9.500 9.570 9.340 9.39 9.480 9.540 9.310 9.430 9.340 9.390 9.310 11.802 11.802 0.000 11.730 11.730 0.000
PRIMET_226 2017-09-30 21:45:00 226 156.7 0.00 201 0.007 0.007 214.400 2.133 9.400 9.320 0.000 0.000 9.40 9.470 9.540 9.320 100.000 100.000 0.007 9.42 9.480 9.550 9.330 9.39 9.460 9.530 9.300 9.420 9.330 9.390 9.300 11.794 11.794 0.000 11.730 11.730 0.000
PRIMET_226 2017-09-30 21:40:00 226 156.7 0.00 202 0.007 0.007 219.700 0.000 9.430 9.320 0.000 0.000 9.43 9.490 9.550 9.320 100.000 100.000 0.007 9.44 9.500 9.570 9.350 9.41 9.470 9.530 9.310 9.440 9.350 9.410 9.310 11.818 11.818 0.000 11.730 11.730 0.000
PRIMET_226 2017-09-30 21:35:00 226 156.7 0.00 200 0.007 0.007 219.700 0.000 9.440 9.350 0.000 0.000 9.44 9.500 9.570 9.350 100.000 100.000 0.007 9.45 9.510 9.590 9.360 9.42 9.490 9.560 9.330 9.450 9.360 9.420 9.330 11.826 11.826 0.000 11.754 11.754 0.000
PRIMET_226 2017-09-30 21:30:00 226 156.7 0.00 201 0.007 0.007 219.600 0.000 9.420 9.350 0.000 0.000 9.42 9.500 9.570 9.350 100.000 100.000 0.007 9.44 9.510 9.580 9.370 9.41 9.490 9.560 9.330 9.440 9.370 9.410 9.330 11.810 11.810 0.000 11.754 11.754 0.000
PRIMET_226 2017-09-30 21:25:00 226 156.7 0.00 199 0.007 0.007 219.700 0.000 9.450 9.370 0.000 0.000 9.45 9.520 9.590 9.370 100.000 100.000 0.007 9.47 9.540 9.610 9.380 9.44 9.500 9.580 9.360 9.470 9.380 9.440 9.360 11.833 11.833 0.000 11.770 11.770 0.000
PRIMET_226 2017-09-30 21:20:00 226 156.7 0.00 195 0.007 0.007 219.500 0.320 9.450 9.380 0.000 0.000 9.45 9.530 9.590 9.380 100.000 100.000 0.007 9.47 9.540 9.610 9.400 9.44 9.510 9.570 9.360 9.470 9.400 9.440 9.360 11.833 11.833 0.000 11.778 11.778 0.000
PRIMET_226 2017-09-30 21:15:00 226 156.7 0.00 195 0.007 0.007 219.100 0.000 9.500 9.420 0.000 0.000 9.50 9.570 9.640 9.420 100.000 100.000 0.007 9.53 9.610 9.680 9.440 9.46 9.530 9.600 9.390 9.530 9.440 9.460 9.390 11.873 11.873 0.000 11.810 11.810 0.000
PRIMET_226 2017-09-30 21:10:00 226 156.7 0.00 196 0.007 0.007 219.000 0.000 9.530 9.440 0.000 0.000 9.53 9.600 9.670 9.440 100.000 100.000 0.007 9.55 9.610 9.680 9.460 9.52 9.590 9.660 9.430 9.550 9.460 9.520 9.430 11.897 11.897 -0.000 11.826 11.826 0.000
PRIMET_226 2017-09-30 21:05:00 226 156.7 0.00 191 0.007 0.007 219.000 0.000 9.560 9.470 0.000 0.000 9.56 9.630 9.700 9.470 100.000 100.000 0.007 9.57 9.650 9.710 9.480 9.54 9.610 9.670 9.450 9.570 9.480 9.540 9.450 11.921 11.921 -0.000 11.849 11.849 0.000
PRIMET_226 2017-09-30 21:00:00 226 156.7 0.00 191 0.007 0.007 219.000 0.048 9.570 9.490 0.000 0.000 9.57 9.630 9.700 9.490 100.000 100.000 0.007 9.60 9.650 9.710 9.500 9.55 9.610 9.690 9.470 9.600 9.500 9.550 9.470 11.929 11.929 0.000 11.865 11.865 0.000
PRIMET_226 2017-09-30 20:55:00 226 156.7 0.00 197 0.007 0.007 219.000 0.000 9.640 9.510 0.000 0.000 9.64 9.690 9.750 9.510 100.000 100.000 0.007 9.67 9.730 9.780 9.550 9.60 9.640 9.710 9.490 9.670 9.550 9.600 9.490 11.986 11.986 0.000 11.881 11.881 -0.000
PRIMET_226 2017-09-30 20:50:00 226 156.7 0.00 201 0.007 0.007 219.000 0.000 9.700 9.570 0.000 0.000 9.70 9.760 9.810 9.570 100.000 100.000 0.007 9.72 9.790 9.850 9.600 9.66 9.730 9.770 9.530 9.720 9.600 9.660 9.530 12.034 12.034 0.000 11.929 11.929 0.000
PRIMET_226 2017-09-30 20:45:00 226 156.7 0.00 202 0.007 0.007 219.000 0.028 9.720 9.600 0.000 0.000 9.72 9.800 9.850 9.600 100.000 100.000 0.007 9.74 9.810 9.860 9.620 9.70 9.780 9.830 9.580 9.740 9.620 9.700 9.580 12.050 12.050 0.000 11.953 11.953 0.000
PRIMET_226 2017-09-30 20:40:00 226 156.7 0.00 200 0.007 0.007 218.900 0.056 9.640 9.530 0.000 0.000 9.64 9.720 9.780 9.530 100.000 100.000 0.007 9.69 9.770 9.820 9.580 9.61 9.670 9.730 9.490 9.690 9.580 9.610 9.490 11.986 11.986 0.000 11.897 11.897 -0.000
PRIMET_226 2017-09-30 20:35:00 226 156.7 0.00 200 0.007 0.007 218.800 0.028 9.620 9.480 0.000 0.000 9.62 9.670 9.730 9.480 100.000 100.000 0.007 9.65 9.690 9.740 9.500 9.60 9.660 9.720 9.470 9.650 9.500 9.600 9.470 11.970 11.970 0.000 11.857 11.857 0.000
PRIMET_226 2017-09-30 20:30:00 226 156.7 0.00 203 0.007 0.007 218.900 0.000 9.620 9.490 0.000 0.000 9.62 9.680 9.730 9.490 100.000 100.000 0.007 9.64 9.690 9.750 9.510 9.60 9.670 9.720 9.480 9.640 9.510 9.600 9.480 11.970 11.970 0.000 11.865 11.865 0.000
PRIMET_226 2017-09-30 20:25:00 226 156.7 0.00 202 0.007 0.007 218.900 0.000 9.580 9.470 0.000 0.000 9.58 9.640 9.700 9.470 100.000 100.000 0.007 9.60 9.670 9.720 9.490 9.56 9.620 9.690 9.450 9.600 9.490 9.560 9.450 11.937 11.937 0.000 11.849 11.849 0.000
PRIMET_226 2017-09-30 20:20:00 226 156.7 0.00 200 0.007 0.007 218.900 0.000 9.590 9.470 0.000 0.000 9.59 9.640 9.700 9.470 100.000 100.000 0.007 9.61 9.650 9.710 9.490 9.57 9.630 9.690 9.450 9.610 9.490 9.570 9.450 11.945 11.945 0.000 11.849 11.849 0.000
PRIMET_226 2017-09-30 20:15:00 226 156.7 0.00 202 0.007 0.007 218.900 0.000 9.590 9.470 0.000 0.000 9.59 9.640 9.700 9.470 100.000 100.000 0.007 9.60 9.640 9.710 9.490 9.58 9.630 9.690 9.460 9.600 9.490 9.580 9.460 11.945 11.945 0.000 11.849 11.849 0.000
PRIMET_226 2017-09-30 20:10:00 226 156.7 0.00 202 0.007 0.007 218.900 0.000 9.610 9.500 0.000 0.000 9.61 9.660 9.720 9.500 100.000 100.000 0.007 9.63 9.670 9.730 9.520 9.59 9.640 9.700 9.480 9.630 9.520 9.590 9.480 11.962 11.962 0.000 11.873 11.873 0.000
PRIMET_226 2017-09-30 20:05:00 226 156.7 0.00 202 0.007 0.007 218.900 0.000 9.670 9.530 0.000 0.000 9.67 9.700 9.750 9.530 100.000 100.000 0.007 9.70 9.720 9.770 9.550 9.63 9.670 9.730 9.500 9.700 9.550 9.630 9.500 12.010 12.010 0.000 11.897 11.897 -0.000
PRIMET_226 2017-09-30 20:00:00 226 156.7 0.00 195 0.007 0.007 218.900 0.000 9.660 9.530 0.000 0.000 9.66 9.700 9.760 9.530 100.000 100.000 0.007 9.69 9.720 9.770 9.550 9.64 9.680 9.740 9.510 9.690 9.550 9.640 9.510 12.002 12.002 0.000 11.897 11.897 -0.000
PRIMET_226 2017-09-30 19:55:00 226 156.7 0.00 194 0.007 0.007 218.900 0.000 9.660 9.520 0.000 0.000 9.66 9.700 9.750 9.520 100.000 100.000 0.007 9.69 9.720 9.770 9.540 9.64 9.680 9.740 9.510 9.690 9.540 9.640 9.510 12.002 12.002 0.000 11.889 11.889 0.000
PRIMET_226 2017-09-30 19:50:00 226 156.7 0.00 197 0.007 0.007 218.900 0.000 9.690 9.540 0.000 0.000 9.69 9.730 9.780 9.540 100.000 100.000 0.007 9.71 9.740 9.780 9.560 9.68 9.710 9.760 9.520 9.710 9.560 9.680 9.520 12.026 12.026 -0.000 11.905 11.905 0.000
PRIMET_226 2017-09-30 19:45:00 226 156.7 0.00 197 0.007 0.007 218.800 0.000 9.650 9.520 0.000 0.000 9.65 9.690 9.740 9.520 100.000 100.000 0.007 9.68 9.730 9.770 9.560 9.62 9.660 9.720 9.500 9.680 9.560 9.620 9.500 11.994 11.994 0.000 11.889 11.889 0.000
PRIMET_226 2017-09-30 19:40:00 226 156.7 0.00 200 0.007 0.007 218.800 0.000 9.670 9.530 0.000 0.000 9.67 9.690 9.760 9.530 100.000 100.000 0.007 9.69 9.720 9.770 9.540 9.65 9.670 9.740 9.510 9.690 9.540 9.650 9.510 12.010 12.010 0.000 11.897 11.897 -0.000
PRIMET_226 2017-09-30 19:35:00 226 156.7 0.00 202 0.007 0.007 218.800 0.000 9.660 9.510 0.001 0.000 9.67 9.690 9.750 9.510 100.000 100.000 0.007 9.69 9.710 9.780 9.530 9.64 9.670 9.730 9.500 9.690 9.530 9.630 9.500 12.010 12.002 0.000 11.881 11.881 -0.000
PRIMET_226 2017-09-30 19:30:00 226 156.7 0.00 196 0.007 0.007 218.800 0.048 9.600 9.500 0.013 0.000 9.62 9.650 9.720 9.500 99.900 100.000 0.007 9.64 9.680 9.740 9.510 9.61 9.640 9.710 9.480 9.630 9.510 9.590 9.480 11.970 11.953 0.012 11.873 11.873 0.000
PRIMET_226 2017-09-30 19:25:00 226 156.7 0.00 202 0.007 0.007 218.800 0.074 9.600 9.500 0.023 0.000 9.63 9.650 9.710 9.500 99.800 100.000 0.007 9.64 9.650 9.720 9.520 9.62 9.640 9.700 9.490 9.610 9.520 9.590 9.490 11.978 11.953 0.024 11.873 11.873 0.000
PRIMET_226 2017-09-30 19:20:00 226 156.7 0.00 200 0.007 0.007 218.900 0.000 9.600 9.510 0.031 0.000 9.64 9.650 9.710 9.510 99.700 100.000 0.007 9.65 9.660 9.720 9.520 9.62 9.640 9.700 9.500 9.610 9.520 9.580 9.500 11.986 11.953 0.036 11.881 11.881 -0.000
PRIMET_226 2017-09-30 19:15:00 226 156.7 0.00 204 0.007 0.007 218.900 0.000 9.630 9.530 0.035 0.000 9.67 9.670 9.730 9.530 99.700 100.000 0.007 9.69 9.690 9.750 9.560 9.65 9.650 9.710 9.510 9.640 9.560 9.600 9.510 12.010 11.978 0.036 11.897 11.897 -0.000
PRIMET_226 2017-09-30 19:10:00 226 156.7 0.00 202 0.007 0.007 218.900 0.000 9.640 9.550 0.040 0.000 9.69 9.700 9.760 9.550 99.700 100.000 0.007 9.72 9.720 9.780 9.570 9.67 9.690 9.750 9.530 9.670 9.570 9.620 9.530 12.026 11.986 0.036 11.913 11.913 0.000
PRIMET_226 2017-09-30 19:05:00 226 156.7 0.00 203 0.007 0.007 218.900 0.000 9.690 9.560 0.035 0.000 9.73 9.730 9.790 9.560 99.700 100.000 0.007 9.75 9.750 9.800 9.580 9.71 9.720 9.780 9.540 9.710 9.580 9.670 9.540 12.058 12.026 0.036 11.921 11.921 -0.000
PRIMET_226 2017-09-30 19:00:00 226 156.7 0.00 203 0.007 0.007 218.900 0.000 9.670 9.580 0.047 0.000 9.73 9.740 9.800 9.580 99.600 100.000 0.007 9.75 9.750 9.810 9.590 9.72 9.730 9.780 9.560 9.700 9.590 9.650 9.560 12.058 12.010 0.048 11.937 11.937 0.000
PRIMET_226 2017-09-30 18:55:00 226 156.7 0.00 195 0.007 0.007 218.900 0.000 9.660 9.590 0.066 0.000 9.74 9.750 9.810 9.590 99.500 100.000 0.007 9.75 9.760 9.820 9.600 9.73 9.740 9.800 9.580 9.670 9.600 9.650 9.580 12.066 12.002 0.060 11.945 11.945 0.000
PRIMET_226 2017-09-30 18:50:00 226 156.7 0.00 201 0.007 0.006 224.600 8.970 9.680 9.620 0.073 0.000 9.77 9.770 9.830 9.620 99.400 100.000 0.007 9.81 9.790 9.850 9.640 9.74 9.760 9.810 9.590 9.720 9.640 9.650 9.590 12.091 12.018 0.073 11.970 11.970 0.000
PRIMET_226 2017-09-30 18:45:00 226 156.7 0.00 196 0.007 0.007 239.800 0.063 9.760 9.660 0.062 0.000 9.83 9.830 9.890 9.660 99.500 100.000 0.007 9.85 9.850 9.910 9.680 9.81 9.790 9.850 9.640 9.780 9.680 9.720 9.640 12.140 12.083 0.061 12.002 12.002 0.000
PRIMET_226 2017-09-30 18:40:00 226 156.7 0.00 201 0.007 0.007 239.800 0.063 9.710 9.640 0.086 0.002 9.81 9.820 9.870 9.640 99.300 100.000 0.007 9.83 9.840 9.890 9.660 9.79 9.790 9.840 9.610 9.750 9.660 9.660 9.600 12.123 12.042 0.085 11.986 11.986 0.000
PRIMET_226 2017-09-30 18:35:00 226 156.7 0.00 201 0.007 0.007 239.800 0.063 9.660 9.610 0.112 0.016 9.80 9.800 9.850 9.640 99.100 99.900 0.007 9.81 9.810 9.860 9.650 9.77 9.780 9.840 9.630 9.680 9.630 9.640 9.600 12.115 12.002 0.109 11.986 11.962 0.012
PRIMET_226 2017-09-30 18:30:00 226 156.7 0.00 202 0.007 0.007 239.800 0.063 9.640 9.590 0.138 0.038 9.81 9.800 9.850 9.640 98.900 99.700 0.007 9.82 9.800 9.860 9.660 9.80 9.790 9.840 9.620 9.660 9.630 9.620 9.570 12.123 11.986 0.133 11.986 11.945 0.036
PRIMET_226 2017-09-30 18:25:00 226 156.7 0.00 194 0.007 0.007 239.800 0.063 9.670 9.590 0.143 0.055 9.84 9.820 9.880 9.660 98.800 99.500 0.007 9.87 9.850 9.900 9.680 9.81 9.790 9.850 9.640 9.700 9.610 9.630 9.570 12.148 12.010 0.146 12.002 11.945 0.060
PRIMET_226 2017-09-30 18:20:00 226 156.7 0.00 201 0.007 0.007 239.800 0.069 9.640 9.580 0.168 0.078 9.85 9.840 9.890 9.680 98.600 99.300 0.007 9.87 9.870 9.910 9.690 9.83 9.830 9.880 9.660 9.690 9.620 9.600 9.550 12.156 11.986 0.170 12.018 11.937 0.084
PRIMET_226 2017-09-30 18:15:00 226 156.7 0.00 196 0.007 0.007 243.500 3.955 9.610 9.560 0.214 0.113 9.87 9.840 9.900 9.700 98.200 99.100 0.007 9.91 9.880 9.940 9.740 9.85 9.830 9.880 9.670 9.640 9.590 9.590 9.530 12.172 11.962 0.219 12.034 11.921 0.108
PRIMET_226 2017-09-30 18:10:00 226 156.7 0.00 203 0.007 0.007 250.700 0.093 9.640 9.580 0.254 0.142 9.95 9.910 9.950 9.760 97.900 98.800 0.007 9.99 9.930 9.960 9.790 9.92 9.880 9.940 9.740 9.660 9.610 9.620 9.560 12.238 11.986 0.257 12.083 11.937 0.145
PRIMET_226 2017-09-30 18:05:00 226 156.7 0.00 204 0.007 0.007 250.700 0.084 9.660 9.570 0.282 0.190 10.01 9.950 10.000 9.800 97.700 98.400 0.007 10.04 9.980 10.030 9.840 9.98 9.920 9.970 9.770 9.690 9.600 9.630 9.550 12.287 12.002 0.283 12.115 11.929 0.194
PRIMET_226 2017-09-30 18:00:00 226 156.7 0.00 202 0.007 0.007 250.700 0.084 9.680 9.590 0.311 0.222 10.06 10.010 10.070 9.860 97.500 98.200 0.007 10.08 10.040 10.090 9.900 10.05 9.990 10.040 9.830 9.700 9.610 9.670 9.570 12.328 12.018 0.308 12.164 11.945 0.219
PRIMET_226 2017-09-30 17:55:00 226 156.7 0.00 200 0.007 0.007 250.700 0.079 9.730 9.630 0.339 0.254 10.14 10.060 10.120 9.940 97.300 97.900 0.007 10.20 10.110 10.180 10.000 10.09 10.020 10.070 9.890 9.810 9.690 9.670 9.580 12.394 12.058 0.335 12.229 11.978 0.257
PRIMET_226 2017-09-30 17:50:00 226 156.7 0.00 208 0.007 0.007 250.700 0.088 9.720 9.620 0.389 0.308 10.20 10.120 10.180 10.000 96.900 97.500 0.007 10.21 10.140 10.200 10.010 10.18 10.110 10.160 9.980 9.810 9.700 9.660 9.570 12.444 12.050 0.386 12.279 11.970 0.307
PRIMET_226 2017-09-30 17:45:00 226 156.7 0.00 202 0.007 0.007 250.700 0.088 9.670 9.600 0.500 0.392 10.28 10.160 10.240 10.080 96.000 96.800 0.007 10.36 10.200 10.280 10.140 10.20 10.120 10.190 10.030 9.710 9.620 9.640 9.570 12.511 12.010 0.500 12.345 11.953 0.395
PRIMET_226 2017-09-30 17:40:00 226 156.7 0.00 204 0.007 0.006 266.500 10.220 9.720 9.620 0.612 0.498 10.46 10.270 10.350 10.230 95.200 96.000 0.007 10.55 10.350 10.440 10.310 10.36 10.200 10.290 10.140 9.750 9.650 9.690 9.600 12.662 12.050 0.608 12.469 11.970 0.499
PRIMET_226 2017-09-30 17:35:00 226 156.7 0.00 200 0.007 0.007 273.200 0.000 9.800 9.740 0.704 0.592 10.64 10.490 10.580 10.460 94.500 95.300 0.007 10.76 10.610 10.710 10.590 10.55 10.360 10.460 10.330 9.830 9.820 9.760 9.670 12.815 12.115 0.705 12.662 12.066 0.595
PRIMET_226 2017-09-30 17:30:00 226 156.7 0.00 193 0.007 0.007 273.200 0.000 9.930 9.890 0.841 0.690 10.93 10.770 10.840 10.720 93.600 94.600 0.007 11.05 10.910 10.960 10.840 10.78 10.630 10.720 10.580 10.030 9.950 9.850 9.810 13.065 12.221 0.836 12.884 12.189 0.696
PRIMET_226 2017-09-30 17:25:00 226 156.7 0.00 194 0.007 0.007 276.300 1.128 10.080 9.960 0.919 0.860 11.15 11.010 11.090 10.980 93.100 93.400 0.007 11.26 11.150 11.220 11.120 11.05 10.910 10.970 10.840 10.150 10.010 10.010 9.920 13.258 12.345 0.915 13.109 12.246 0.865
PRIMET_226 2017-09-30 17:20:00 226 156.7 0.00 192 0.007 0.007 276.800 0.000 10.310 10.200 0.990 0.954 11.46 11.350 11.430 11.310 92.700 92.900 0.007 11.65 11.590 11.650 11.500 11.26 11.170 11.240 11.130 10.540 10.320 10.180 10.060 13.533 12.536 0.988 13.399 12.444 0.951
PRIMET_226 2017-09-30 17:15:00 226 156.7 0.00 195 0.007 0.007 273.900 3.646 10.220 10.040 1.446 1.466 11.88 11.800 11.870 11.730 89.600 89.400 0.007 12.09 12.020 12.100 11.950 11.67 11.590 11.670 11.530 10.520 10.360 10.050 9.910 13.914 12.461 1.447 13.777 12.312 1.460
PRIMET_226 2017-09-30 17:10:00 226 156.7 0.00 199 0.009 0.009 263.500 10.180 10.140 10.010 1.879 1.867 12.27 12.230 12.310 12.140 86.800 86.800 0.052 12.39 12.390 12.450 12.260 12.11 12.040 12.130 11.970 10.520 10.270 9.930 9.870 14.276 12.394 1.884 14.154 12.287 1.868
PRIMET_226 2017-09-30 17:05:00 226 156.7 0.00 200 0.007 0.007 250.500 2.777 10.510 10.140 1.735 1.920 12.45 12.450 12.520 12.310 88.000 86.600 0.007 12.48 12.500 12.550 12.330 12.40 12.400 12.460 12.260 10.820 10.300 10.180 9.970 14.446 12.705 1.734 14.314 12.394 1.918
PRIMET_226 2017-09-30 17:00:00 226 156.7 0.00 200 0.007 0.007 255.300 0.063 10.700 10.240 1.639 1.888 12.51 12.520 12.580 12.370 88.700 86.900 0.007 12.55 12.550 12.610 12.400 12.48 12.490 12.550 12.330 10.760 10.480 10.580 9.950 14.503 12.867 1.639 14.370 12.478 1.883
PRIMET_226 2017-09-30 16:55:00 226 156.7 0.00 196 0.007 0.006 235.700 14.110 10.600 10.320 1.826 1.924 12.62 12.640 12.700 12.480 87.500 86.700 0.007 12.67 12.690 12.740 12.530 12.55 12.560 12.630 12.410 10.760 10.650 10.410 9.940 14.608 12.781 1.826 14.475 12.545 1.925
PRIMET_226 2017-09-30 16:50:00 226 156.7 0.00 201 0.016 0.016 213.500 10.800 10.650 10.360 1.867 1.958 12.71 12.730 12.760 12.540 87.300 86.500 0.170 12.74 12.780 12.800 12.570 12.68 12.670 12.740 12.510 10.980 10.670 9.990 9.720 14.695 12.824 1.866 14.532 12.578 1.962
PRIMET_226 2017-09-30 16:45:00 226 156.7 0.00 201 0.040 0.040 248.200 2.076 10.720 10.470 1.821 1.889 12.72 12.760 12.800 12.570 87.600 87.000 0.418 12.74 12.770 12.810 12.590 12.71 12.750 12.790 12.550 10.890 10.630 10.580 10.110 14.704 12.884 1.823 14.560 12.671 1.893
PRIMET_226 2017-09-30 16:40:00 226 156.7 0.00 195 0.349 0.315 242.000 25.170 10.260 9.960 2.182 2.300 12.70 12.760 12.810 12.550 85.100 84.200 0.836 12.74 12.800 12.840 12.580 12.61 12.670 12.720 12.460 10.670 10.280 9.410 9.380 14.685 12.494 2.188 14.541 12.246 2.298
PRIMET_226 2017-09-30 16:35:00 226 156.7 0.00 200 0.357 0.322 221.500 25.340 10.450 10.170 1.871 1.977 12.54 12.550 12.620 12.400 87.100 86.300 1.261 12.58 12.660 12.700 12.450 12.50 12.480 12.550 12.360 10.810 10.540 9.750 9.450 14.532 12.654 1.875 14.399 12.419 1.973
PRIMET_226 2017-09-30 16:30:00 226 156.7 0.00 201 0.063 0.063 213.000 5.241 10.610 10.400 1.713 1.795 12.51 12.520 12.580 12.410 88.200 87.500 0.444 12.53 12.540 12.610 12.440 12.50 12.490 12.560 12.370 10.860 10.590 10.220 10.000 14.503 12.790 1.711 14.408 12.612 1.801
PRIMET_226 2017-09-30 16:25:00 226 156.7 0.00 198 0.446 0.416 223.200 21.030 10.220 9.960 2.074 2.206 12.55 12.540 12.610 12.460 85.700 84.700 1.052 12.62 12.600 12.660 12.550 12.48 12.460 12.540 12.410 10.580 10.340 9.370 9.350 14.541 12.461 2.079 14.456 12.246 2.212
PRIMET_226 2017-09-30 16:20:00 226 156.7 0.00 202 0.385 0.376 224.800 12.510 10.480 10.040 2.008 2.284 12.70 12.680 12.740 12.610 86.300 84.400 1.202 12.80 12.810 12.850 12.700 12.62 12.610 12.680 12.530 10.960 10.680 10.170 9.450 14.685 12.679 2.012 14.599 12.312 2.277
PRIMET_226 2017-09-30 16:15:00 226 156.7 0.00 194 0.405 0.393 221.600 14.220 10.220 10.100 2.415 2.404 12.91 12.890 12.940 12.790 83.800 83.700 1.176 13.00 12.990 13.020 12.870 12.80 12.790 12.860 12.700 10.880 10.610 9.060 8.970 14.889 12.461 2.412 14.772 12.361 2.408
PRIMET_226 2017-09-30 16:10:00 226 156.7 0.00 213 0.956 0.846 253.600 27.450 10.080 9.570 2.686 2.936 13.06 13.040 13.070 12.890 82.100 80.300 2.045 13.14 13.110 13.130 12.960 12.99 12.950 13.020 12.850 10.890 10.450 8.980 8.880 15.035 12.345 2.691 14.869 11.929 2.929
PRIMET_226 2017-09-30 16:05:00 226 156.7 0.00 194 0.234 0.225 225.500 15.200 10.600 10.430 2.284 2.276 13.10 13.130 13.160 12.940 84.800 84.700 0.915 13.16 13.150 13.210 12.980 13.02 13.070 13.100 12.890 11.030 10.910 8.920 9.250 15.075 12.781 2.291 14.918 12.637 2.282
PRIMET_226 2017-09-30 16:00:00 226 156.7 0.00 194 0.839 0.721 207.900 30.350 9.390 9.140 3.118 3.182 12.94 13.000 13.030 12.800 79.090 78.460 2.398 13.03 13.090 13.100 12.880 12.83 12.870 12.920 12.680 10.640 10.510 8.420 8.270 14.918 11.786 3.119 14.782 11.589 3.184
PRIMET_226 2017-09-30 15:55:00 226 156.7 0.00 190 0.793 0.676 237.200 31.080 10.190 9.960 2.366 2.424 12.84 12.880 12.920 12.690 84.000 83.500 1.895 12.88 12.920 12.950 12.730 12.75 12.780 12.860 12.640 10.840 10.760 8.460 8.410 14.820 12.436 2.371 14.675 12.246 2.421
PRIMET_226 2017-09-30 15:50:00 226 156.7 0.00 198 0.632 0.509 239.400 35.700 10.210 9.900 2.284 2.435 12.76 12.800 12.850 12.660 84.500 83.400 2.339 12.78 12.850 12.890 12.680 12.74 12.730 12.820 12.640 10.810 10.550 9.040 8.750 14.743 12.453 2.285 14.647 12.197 2.431
PRIMET_226 2017-09-30 15:45:00 226 156.7 0.00 197 0.647 0.513 249.400 36.820 10.110 9.990 2.411 2.418 12.81 12.830 12.890 12.710 83.700 83.500 1.535 12.90 12.940 12.980 12.780 12.73 12.730 12.810 12.650 10.860 10.680 9.030 8.830 14.791 12.370 2.411 14.695 12.271 2.425
PRIMET_226 2017-09-30 15:40:00 226 156.7 0.00 200 0.632 0.456 225.500 42.730 10.300 10.030 2.368 2.447 12.92 12.950 13.000 12.780 84.100 83.400 1.418 12.94 13.000 13.040 12.800 12.89 12.870 12.960 12.720 11.110 10.920 9.510 9.020 14.898 12.528 2.369 14.762 12.303 2.451
PRIMET_226 2017-09-30 15:35:00 226 156.7 0.00 190 0.213 0.187 209.100 27.870 11.090 10.740 1.720 1.858 12.94 12.980 13.010 12.780 88.500 87.400 0.719 12.96 13.030 13.040 12.800 12.93 12.920 12.980 12.750 11.410 11.230 10.320 9.860 14.918 13.205 1.716 14.762 12.901 1.860
PRIMET_226 2017-09-30 15:30:00 226 156.7 0.00 184 0.328 0.317 204.000 15.020 10.530 10.240 2.172 2.239 12.92 12.970 12.990 12.740 85.400 84.800 0.666 12.97 13.000 13.030 12.810 12.85 12.910 12.930 12.660 11.000 10.850 9.420 9.090 14.898 12.722 2.175 14.724 12.478 2.238
PRIMET_226 2017-09-30 15:25:00 226 156.7 0.00 184 1.197 0.968 221.400 35.420 9.890 9.600 2.534 2.578 12.75 12.800 12.820 12.550 82.800 82.300 2.672 12.86 12.930 12.920 12.660 12.65 12.660 12.690 12.440 10.850 10.520 8.670 8.640 14.733 12.189 2.534 14.541 11.953 2.574
PRIMET_226 2017-09-30 15:20:00 226 156.7 0.00 202 0.200 0.157 252.600 37.680 10.780 10.500 1.733 1.791 12.68 12.710 12.710 12.490 88.200 87.600 0.980 12.73 12.760 12.760 12.560 12.66 12.670 12.670 12.430 10.910 10.720 10.580 10.320 14.666 12.935 1.731 14.484 12.696 1.796
PRIMET_226 2017-09-30 15:15:00 226 156.7 0.00 194 0.196 0.196 225.000 0.306 10.770 10.470 1.868 1.986 12.81 12.920 12.900 12.670 87.400 86.500 0.719 12.91 13.100 13.070 12.780 12.74 12.780 12.780 12.570 10.920 10.690 10.600 10.340 14.791 12.927 1.864 14.656 12.671 1.979
PRIMET_226 2017-09-30 15:10:00 226 156.7 0.00 198 0.192 0.192 225.600 1.318 10.900 10.760 1.837 1.831 12.90 12.990 13.010 12.770 87.700 87.600 0.588 12.99 13.140 13.170 12.870 12.70 12.720 12.730 12.540 11.170 11.170 10.600 10.500 14.879 13.039 1.830 14.753 12.918 1.829
PRIMET_226 2017-09-30 15:05:00 226 156.7 0.00 201 0.094 0.093 226.200 5.982 11.030 10.890 1.552 1.499 12.72 12.720 12.730 12.540 89.400 89.700 0.327 12.79 12.780 12.760 12.560 12.67 12.690 12.680 12.520 11.170 11.080 10.890 10.710 14.704 13.152 1.559 14.532 13.030 1.497
PRIMET_226 2017-09-30 15:00:00 226 156.7 0.00 197 0.083 0.079 251.600 17.120 11.010 10.780 1.663 1.631 12.82 12.770 12.760 12.580 88.800 88.800 0.392 12.87 12.810 12.830 12.650 12.78 12.740 12.740 12.540 11.150 11.060 10.840 10.450 14.801 13.135 1.658 14.570 12.935 1.632
PRIMET_226 2017-09-30 14:55:00 226 156.7 0.00 201 0.358 0.340 236.900 17.930 10.670 10.380 2.108 2.157 12.98 12.930 12.940 12.770 85.900 85.400 0.712 13.12 13.030 13.050 12.870 12.89 12.830 12.840 12.660 11.090 10.770 9.530 9.670 14.957 12.841 2.109 14.753 12.595 2.154
PRIMET_226 2017-09-30 14:50:00 226 156.7 0.00 209 0.260 0.100 244.200 63.480 10.340 9.950 2.603 2.705 13.19 13.110 13.130 12.970 82.800 81.900 0.836 13.28 13.220 13.250 13.090 13.13 13.030 13.060 12.870 10.910 10.610 9.890 9.370 15.164 12.561 2.608 14.947 12.238 2.705
PRIMET_226 2017-09-30 14:45:00 226 156.7 0.00 214 0.572 0.520 225.100 24.580 9.340 9.170 3.614 3.573 13.39 13.340 13.380 13.210 76.480 76.480 1.836 13.48 13.450 13.500 13.320 13.28 13.220 13.270 13.090 10.160 9.870 8.860 8.710 15.363 11.746 3.613 15.183 11.612 3.571
PRIMET_226 2017-09-30 14:40:00 226 156.7 0.00 224 0.734 0.651 210.900 27.200 9.540 9.230 3.707 3.741 13.65 13.620 13.650 13.430 76.260 75.710 1.875 13.76 13.770 13.770 13.520 13.48 13.460 13.510 13.330 10.640 10.100 8.540 8.450 15.625 11.905 3.709 15.403 11.659 3.741
PRIMET_226 2017-09-30 14:35:00 226 156.7 0.00 219 0.353 0.328 180.800 21.670 9.560 9.190 3.755 3.850 13.71 13.710 13.730 13.510 76.060 75.130 1.836 13.73 13.760 13.770 13.530 13.69 13.670 13.710 13.480 10.440 10.240 8.800 8.670 15.686 11.921 3.755 15.483 11.628 3.851
PRIMET_226 2017-09-30 14:30:00 226 156.7 0.00 200 0.603 0.338 290.100 53.670 8.860 8.610 4.311 4.309 13.71 13.720 13.750 13.520 72.520 72.190 1.352 13.74 13.770 13.790 13.570 13.67 13.670 13.710 13.480 9.750 9.150 8.450 8.380 15.686 11.372 4.311 15.494 11.181 4.309
PRIMET_226 2017-09-30 14:25:00 226 156.7 0.00 199 0.521 0.351 257.900 46.290 8.760 8.620 4.418 4.308 13.73 13.730 13.740 13.520 71.880 72.200 1.032 13.75 13.750 13.770 13.550 13.72 13.690 13.710 13.500 9.130 8.750 8.490 8.460 15.707 11.295 4.417 15.494 11.188 4.307
PRIMET_226 2017-09-30 14:20:00 226 156.7 0.00 216 0.782 0.662 233.000 31.740 9.130 8.820 4.322 4.264 13.93 13.840 13.840 13.640 72.830 72.680 1.784 14.15 14.050 14.020 13.780 13.75 13.700 13.700 13.530 10.100 9.550 8.460 8.430 15.912 11.581 4.323 15.615 11.341 4.266
PRIMET_226 2017-09-30 14:15:00 226 156.7 0.00 216 0.335 0.135 226.000 62.580 9.230 8.920 4.637 4.452 14.30 14.170 14.140 13.890 71.550 71.960 0.843 14.49 14.300 14.240 14.000 14.19 14.080 14.070 13.810 10.030 9.710 8.690 8.540 16.298 11.659 4.637 15.871 11.418 4.450
PRIMET_226 2017-09-30 14:10:00 226 156.7 0.00 274 0.503 0.383 263.200 39.640 9.040 8.690 5.145 4.967 14.64 14.700 14.580 14.220 69.110 69.360 1.039 14.74 14.950 14.790 14.350 14.50 14.350 14.310 14.050 9.810 9.040 8.450 8.430 16.661 11.511 5.146 16.214 11.242 4.968
PRIMET_226 2017-09-30 14:05:00 226 156.7 0.00 204 0.378 0.364 235.500 15.250 9.560 9.170 4.340 4.150 14.27 14.140 14.040 13.790 73.350 73.710 1.842 14.50 14.460 14.350 14.060 14.10 13.860 13.800 13.560 10.660 10.390 8.610 8.580 16.267 11.921 4.335 15.768 11.612 4.145
PRIMET_226 2017-09-30 14:00:00 226 156.7 0.00 203 0.254 0.212 240.700 32.840 9.640 9.080 4.143 4.044 14.14 14.020 13.950 13.610 74.320 74.060 1.013 14.18 14.180 14.070 13.650 14.06 13.890 13.860 13.580 10.500 9.700 9.160 8.880 16.130 11.986 4.142 15.585 11.542 4.043
PRIMET_226 2017-09-30 13:55:00 226 156.7 0.00 246 0.467 0.373 226.700 36.490 9.880 9.530 3.491 3.472 13.70 13.790 13.730 13.400 77.730 77.420 1.444 14.06 14.160 14.080 13.690 13.32 13.360 13.330 13.090 11.030 10.260 8.730 8.620 15.676 12.180 3.491 15.373 11.897 3.471
PRIMET_226 2017-09-30 13:50:00 226 156.7 0.00 202 0.601 0.504 249.500 32.580 9.570 9.230 3.318 3.347 13.28 13.230 13.230 13.040 78.260 77.710 1.418 13.33 13.330 13.320 13.080 13.15 13.160 13.170 12.950 10.980 10.330 8.880 8.720 15.253 11.929 3.316 15.016 11.659 3.347
PRIMET_226 2017-09-30 13:45:00 226 156.7 0.00 204 0.790 0.651 259.800 33.910 9.400 9.010 3.115 3.293 12.94 12.890 12.950 12.810 79.110 77.730 2.659 13.11 13.080 13.100 12.920 12.88 12.840 12.900 12.770 10.780 10.440 8.640 8.570 14.918 11.794 3.116 14.791 11.488 3.294
PRIMET_226 2017-09-30 13:40:00 226 156.7 0.00 198 0.889 0.843 223.400 18.340 9.040 8.820 3.463 3.515 13.00 12.990 13.050 12.870 76.870 76.340 2.019 13.03 13.040 13.090 12.900 12.95 12.930 12.990 12.840 9.760 9.130 8.640 8.650 14.976 11.511 3.464 14.850 11.341 3.513
PRIMET_226 2017-09-30 13:35:00 226 156.7 0.00 210 0.843 0.689 268.300 34.660 9.010 8.730 3.607 3.660 13.12 13.100 13.150 12.950 76.110 75.490 1.607 13.21 13.250 13.280 13.050 13.03 12.990 13.040 12.870 9.380 8.960 8.680 8.570 15.094 11.488 3.606 14.928 11.272 3.659
PRIMET_226 2017-09-30 13:30:00 226 156.7 0.00 228 1.081 0.850 233.500 37.390 8.670 8.590 4.016 3.886 13.27 13.280 13.300 13.080 73.660 74.190 2.117 13.32 13.320 13.340 13.120 13.21 13.230 13.270 13.040 8.920 8.750 8.500 8.520 15.243 11.226 4.015 15.055 11.166 3.886
PRIMET_226 2017-09-30 13:25:00 226 156.7 0.00 200 1.111 1.015 227.700 23.860 8.760 8.600 4.020 3.943 13.35 13.360 13.340 13.140 73.760 73.910 1.953 13.38 13.410 13.370 13.160 13.32 13.310 13.300 13.120 9.330 8.870 8.500 8.430 15.323 11.295 4.021 15.114 11.173 3.943
PRIMET_226 2017-09-30 13:20:00 226 156.7 0.00 231 0.960 0.779 244.900 35.200 9.020 8.820 3.811 3.791 13.34 13.350 13.350 13.160 75.100 74.950 2.463 13.37 13.370 13.370 13.210 13.31 13.320 13.340 13.130 9.620 9.210 8.680 8.500 15.313 11.495 3.813 15.134 11.341 3.791
PRIMET_226 2017-09-30 13:15:00 226 156.7 0.00 194 1.061 0.951 221.500 26.020 8.780 8.740 4.108 4.005 13.44 13.400 13.420 13.310 73.350 73.790 2.568 13.60 13.510 13.510 13.460 13.34 13.330 13.350 13.230 9.290 9.030 8.530 8.500 15.413 11.310 4.108 15.283 11.280 4.006
PRIMET_226 2017-09-30 13:10:00 226 156.7 0.00 195 1.274 1.159 228.200 24.340 8.950 8.830 4.363 4.263 13.83 13.810 13.790 13.640 72.410 72.710 2.705 13.96 14.030 14.000 13.780 13.63 13.540 13.550 13.470 10.210 9.770 8.320 8.270 15.809 11.441 4.362 15.615 11.349 4.261
PRIMET_226 2017-09-30 13:05:00 226 156.7 0.00 207 0.888 0.845 214.000 17.800 8.750 8.610 4.805 4.606 14.11 14.180 14.110 13.810 70.140 70.830 1.771 14.25 14.320 14.220 13.860 13.97 14.050 14.010 13.770 10.410 9.760 7.901 7.903 16.099 11.287 4.807 15.789 11.181 4.606
PRIMET_226 2017-09-30 13:00:00 226 156.7 0.00 246 0.174 0.172 214.800 8.150 10.120 9.740 3.858 3.709 14.24 14.270 14.150 13.800 76.240 76.500 0.856 14.26 14.330 14.240 13.880 14.22 14.210 14.080 13.760 10.460 10.160 9.870 9.050 16.235 12.378 3.858 15.778 12.066 3.708
PRIMET_226 2017-09-30 12:55:00 226 156.7 0.00 201 0.233 0.215 146.500 22.050 9.790 9.250 4.070 4.107 14.20 14.290 14.180 13.820 74.860 73.990 0.862 14.25 14.360 14.240 13.840 14.14 14.220 14.110 13.790 10.610 10.300 8.520 8.250 16.193 12.107 4.071 15.799 11.675 4.109
PRIMET_226 2017-09-30 12:50:00 226 156.7 0.00 185 0.432 0.418 138.900 14.420 10.020 9.550 3.713 3.809 14.04 14.210 14.120 13.750 76.820 75.780 0.706 14.12 14.270 14.180 13.790 13.91 14.120 14.090 13.700 10.840 10.360 8.240 8.400 16.026 12.295 3.715 15.727 11.913 3.809
PRIMET_226 2017-09-30 12:45:00 226 156.7 0.00 202 0.156 0.108 125.800 44.660 9.080 8.950 4.288 4.122 13.86 14.010 13.970 13.600 72.940 73.540 0.849 13.95 14.150 14.110 13.690 13.81 13.870 13.840 13.520 10.700 10.540 8.130 8.270 15.840 11.542 4.286 15.574 11.441 4.121
PRIMET_226 2017-09-30 12:40:00 226 156.7 0.00 256 0.103 0.098 197.500 17.040 11.100 10.670 2.627 2.727 13.86 13.930 13.890 13.590 83.400 82.500 0.497 13.90 14.030 13.960 13.630 13.82 13.850 13.810 13.530 11.370 10.880 10.740 10.070 15.840 13.214 2.629 15.564 12.841 2.724
PRIMET_226 2017-09-30 12:35:00 226 156.7 0.00 200 0.396 0.386 187.500 12.850 11.330 10.840 2.525 2.675 13.96 14.010 13.940 13.690 84.200 82.900 0.902 13.98 14.040 13.990 13.780 13.90 13.950 13.880 13.610 11.870 11.150 10.500 10.230 15.943 13.417 2.519 15.666 12.987 2.679
PRIMET_226 2017-09-30 12:30:00 226 156.7 0.00 206 0.091 0.091 198.500 5.048 10.130 9.980 3.564 3.507 13.97 14.120 14.110 13.790 77.660 77.760 0.444 14.00 14.200 14.190 13.830 13.91 14.040 14.020 13.740 10.760 10.670 9.750 9.210 15.954 12.386 3.564 15.768 12.262 3.507
PRIMET_226 2017-09-30 12:25:00 226 156.7 0.00 202 0.007 0.007 190.500 4.164 10.770 10.660 2.971 2.853 13.92 14.060 14.020 13.720 81.300 81.800 0.007 13.93 14.100 14.070 13.770 13.89 14.020 13.970 13.680 11.270 11.310 10.030 9.920 15.902 12.927 2.974 15.697 12.832 2.857
PRIMET_226 2017-09-30 12:20:00 226 156.7 0.00 193 0.015 0.015 193.100 0.661 10.510 10.090 3.118 3.231 13.85 13.960 13.900 13.610 80.300 79.270 0.105 13.92 14.080 14.010 13.680 13.77 13.850 13.790 13.530 11.560 10.870 9.610 9.420 15.830 12.705 3.118 15.585 12.353 3.231
PRIMET_226 2017-09-30 12:15:00 226 156.7 0.00 199 0.823 0.699 153.800 31.450 10.920 10.140 2.760 3.187 13.84 13.890 13.810 13.610 82.600 79.560 1.392 13.90 14.020 13.950 13.740 13.76 13.770 13.690 13.520 11.560 11.250 9.270 9.200 15.819 13.056 2.753 15.585 12.394 3.185
PRIMET_226 2017-09-30 12:10:00 226 156.7 0.00 222 0.338 0.288 165.100 31.310 10.390 10.010 3.375 3.505 14.02 14.030 14.020 13.840 78.900 77.830 1.189 14.15 14.140 14.140 13.940 13.85 13.860 13.880 13.700 11.560 11.160 7.785 7.662 16.005 12.603 3.377 15.819 12.287 3.507
PRIMET_226 2017-09-30 12:05:00 226 156.7 0.00 240 0.437 0.421 170.800 15.380 10.610 10.050 3.363 3.606 14.18 14.190 14.150 13.960 79.200 77.390 1.307 14.19 14.240 14.210 14.010 14.15 14.130 14.080 13.910 11.430 11.300 8.320 8.520 16.172 12.790 3.364 15.943 12.320 3.605
PRIMET_226 2017-09-30 12:00:00 226 156.7 0.00 207 0.940 0.899 194.700 16.940 9.200 8.700 4.675 4.898 14.34 14.380 14.350 14.180 71.380 69.700 1.953 14.52 14.650 14.610 14.370 14.21 14.200 14.180 14.040 10.960 10.670 7.494 7.428 16.341 11.636 4.677 16.172 11.249 4.900
PRIMET_226 2017-09-30 11:55:00 226 156.7 0.00 240 0.144 0.062 147.900 61.110 9.100 8.860 5.005 4.994 14.56 14.780 14.720 14.370 69.800 69.500 0.490 14.58 14.850 14.780 14.410 14.54 14.650 14.630 14.340 10.390 10.340 8.240 7.991 16.575 11.558 5.006 16.372 11.372 4.994
PRIMET_226 2017-09-30 11:50:00 226 156.7 0.00 196 0.062 0.058 146.800 20.170 8.910 8.880 5.164 4.999 14.57 14.810 14.750 14.390 68.860 69.510 0.399 14.62 14.870 14.810 14.430 14.52 14.760 14.720 14.350 10.010 9.940 8.440 8.500 16.586 11.410 5.165 16.394 11.387 4.998
PRIMET_226 2017-09-30 11:45:00 226 156.7 0.00 198 0.113 0.090 140.100 36.390 9.130 9.110 4.837 4.706 14.41 14.750 14.690 14.280 70.540 71.080 0.562 14.53 14.820 14.770 14.360 14.29 14.600 14.560 14.150 9.900 10.220 8.400 8.320 16.415 11.581 4.836 16.277 11.565 4.707
PRIMET_226 2017-09-30 11:40:00 226 156.7 0.00 194 0.054 0.052 126.100 11.650 10.180 10.020 3.677 3.617 14.14 14.320 14.300 13.960 77.230 77.350 0.216 14.26 14.580 14.540 14.150 14.08 14.100 14.120 13.850 11.670 11.910 8.590 8.560 16.130 12.428 3.673 15.943 12.295 3.611
PRIMET_226 2017-09-30 11:35:00 226 156.7 0.00 188 0.007 0.006 196.800 13.640 10.830 10.520 3.041 3.085 14.04 14.180 14.130 13.820 81.000 80.500 0.007 14.08 14.250 14.190 13.890 13.99 14.100 14.060 13.760 11.460 11.260 10.420 9.930 16.026 12.979 3.045 15.799 12.713 3.081
PRIMET_226 2017-09-30 11:30:00 226 156.7 0.00 195 0.007 0.007 198.300 0.548 11.000 10.820 2.654 2.714 13.80 14.070 14.030 13.710 83.200 82.700 0.007 13.96 14.120 14.080 13.780 13.65 14.000 13.960 13.660 11.170 11.250 10.830 10.500 15.778 13.126 2.651 15.686 12.970 2.714
PRIMET_226 2017-09-30 11:25:00 226 156.7 0.00 193 0.007 0.007 199.500 0.447 10.860 10.950 2.534 2.477 13.57 13.880 13.870 13.590 83.700 84.100 0.007 13.65 13.990 13.950 13.670 13.53 13.800 13.810 13.520 11.310 11.310 10.280 10.360 15.544 13.004 2.534 15.564 13.083 2.475
PRIMET_226 2017-09-30 11:20:00 226 156.7 0.00 211 0.007 0.007 199.300 0.131 11.010 10.870 2.325 2.415 13.49 13.770 13.760 13.460 85.000 84.300 0.007 13.55 13.870 13.840 13.510 13.42 13.680 13.710 13.380 11.240 11.030 10.720 10.710 15.463 13.135 2.319 15.433 13.013 2.423
PRIMET_226 2017-09-30 11:15:00 226 156.7 0.00 193 0.007 0.007 199.200 0.074 11.020 10.780 2.210 2.377 13.38 13.610 13.630 13.340 85.600 84.500 0.007 13.41 13.680 13.690 13.380 13.37 13.560 13.580 13.320 11.230 11.120 10.790 10.360 15.353 13.144 2.211 15.313 12.935 2.373
PRIMET_226 2017-09-30 11:10:00 226 156.7 0.00 189 0.010 0.010 199.300 0.119 11.170 10.970 2.004 2.203 13.31 13.530 13.560 13.330 86.900 85.600 0.059 13.37 13.580 13.610 13.370 13.23 13.460 13.530 13.300 11.520 11.280 10.320 10.420 15.283 13.275 2.002 15.303 13.100 2.204
PRIMET_226 2017-09-30 11:05:00 226 156.7 0.00 234 0.068 0.061 169.000 26.790 10.040 10.160 2.835 2.849 13.19 13.450 13.530 13.290 81.300 81.300 0.274 13.24 13.510 13.580 13.330 13.16 13.400 13.470 13.250 10.890 11.120 8.610 9.300 15.164 12.312 2.836 15.263 12.411 2.854
PRIMET_226 2017-09-30 11:00:00 226 156.7 0.00 182 0.048 0.044 129.500 24.000 10.260 9.720 2.617 3.101 13.15 13.420 13.470 13.200 82.700 79.560 0.457 13.19 13.540 13.560 13.280 13.13 13.330 13.400 13.160 11.120 11.140 8.140 8.150 15.124 12.494 2.616 15.173 12.050 3.101
PRIMET_226 2017-09-30 10:55:00 226 156.7 0.00 194 0.007 0.007 197.300 0.480 10.430 10.110 2.343 2.710 13.01 13.350 13.410 13.120 84.400 82.000 0.007 13.16 13.480 13.520 13.220 12.94 13.240 13.320 13.050 11.280 11.170 9.770 9.320 14.986 12.637 2.338 15.094 12.370 2.717
PRIMET_226 2017-09-30 10:50:00 226 156.7 0.00 188 0.021 0.021 197.500 0.396 9.970 9.800 2.605 2.791 12.88 13.210 13.260 12.930 82.500 81.300 0.157 12.97 13.320 13.380 13.050 12.79 13.090 13.160 12.830 10.510 10.020 9.650 9.350 14.859 12.254 2.600 14.908 12.115 2.788
PRIMET_226 2017-09-30 10:45:00 226 156.7 0.00 198 0.007 0.006 197.000 6.542 9.970 10.040 2.508 2.491 12.79 13.130 13.170 12.830 83.000 83.200 0.007 12.84 13.190 13.250 12.900 12.68 13.020 13.020 12.690 10.680 10.760 8.400 8.600 14.772 12.254 2.511 14.811 12.312 2.488
PRIMET_226 2017-09-30 10:40:00 226 156.7 0.00 196 0.226 0.223 187.300 8.930 9.120 9.120 2.997 2.998 12.60 12.870 12.870 12.600 79.450 79.450 0.856 12.67 13.010 13.000 12.670 12.54 12.730 12.770 12.530 10.830 10.710 8.320 8.280 14.589 11.573 2.998 14.589 11.573 2.998
PRIMET_226 2017-09-30 10:35:00 226 156.7 0.00 206 0.026 0.026 204.900 0.381 11.000 10.760 1.529 1.714 12.67 12.860 12.840 12.650 89.600 88.300 0.209 12.71 12.910 12.920 12.720 12.62 12.800 12.790 12.590 11.150 11.140 10.670 10.300 14.656 13.126 1.524 14.637 12.918 1.713
PRIMET_226 2017-09-30 10:30:00 226 156.7 0.00 188 0.007 0.007 205.000 0.101 10.920 10.600 1.699 2.023 12.77 12.960 13.000 12.820 88.500 86.300 0.007 12.86 13.140 13.210 12.980 12.69 12.850 12.880 12.700 11.210 11.030 10.630 9.530 14.753 13.056 1.697 14.801 12.781 2.028
PRIMET_226 2017-09-30 10:25:00 226 156.7 0.00 197 0.057 0.057 205.200 0.774 8.850 8.780 3.388 3.596 12.81 13.190 13.240 12.960 77.070 75.920 0.235 12.90 13.300 13.310 13.010 12.71 13.080 13.160 12.920 10.620 10.580 7.403 7.491 14.791 11.364 3.392 14.937 11.310 3.597
PRIMET_226 2017-09-30 10:20:00 226 156.7 0.00 182 0.247 0.244 206.100 7.703 9.440 9.180 2.871 3.271 12.75 13.090 13.180 12.950 80.500 78.070 0.673 12.83 13.150 13.220 13.000 12.70 13.050 13.140 12.900 10.850 10.880 7.411 7.470 14.733 11.826 2.873 14.928 11.620 3.274
PRIMET_226 2017-09-30 10:15:00 226 156.7 0.00 184 0.245 0.242 208.800 8.710 9.130 8.940 3.116 3.497 12.74 13.190 13.270 12.970 78.840 76.610 0.549 12.82 13.290 13.350 13.020 12.69 13.110 13.210 12.930 10.680 10.610 7.493 7.720 14.724 11.581 3.116 14.947 11.433 3.496
PRIMET_226 2017-09-30 10:10:00 226 156.7 0.00 196 0.007 0.007 194.200 5.280 10.110 9.640 2.101 2.706 12.48 12.950 13.020 12.710 85.500 81.600 0.007 12.66 13.160 13.230 12.930 12.31 12.690 12.750 12.470 10.640 10.230 9.100 9.200 14.475 12.370 2.099 14.695 11.986 2.704
PRIMET_226 2017-09-30 10:05:00 226 156.7 0.00 190 0.007 0.007 195.100 0.825 10.410 10.060 1.561 1.987 12.17 12.540 12.550 12.310 89.000 86.100 0.007 12.28 12.700 12.720 12.450 12.09 12.480 12.490 12.250 10.870 10.490 9.970 9.140 14.182 12.620 1.560 14.314 12.328 1.990
PRIMET_226 2017-09-30 10:00:00 226 156.7 0.00 204 0.007 0.006 185.600 26.990 8.690 8.760 2.728 2.975 11.96 12.510 12.540 12.280 80.500 79.160 0.007 12.10 12.640 12.640 12.370 11.87 12.390 12.440 12.180 10.290 10.270 7.778 7.960 13.988 11.242 2.728 14.286 11.295 2.977
PRIMET_226 2017-09-30 09:55:00 226 156.7 0.00 192 0.045 0.045 160.900 8.360 9.850 10.130 2.063 2.010 12.21 12.630 12.620 12.400 85.500 86.000 0.229 12.43 12.860 12.810 12.560 11.92 12.390 12.420 12.200 10.090 10.440 9.510 8.970 14.220 12.156 2.062 14.399 12.386 2.016
PRIMET_226 2017-09-30 09:50:00 226 156.7 0.00 201 0.253 0.250 147.900 9.130 10.200 10.200 1.776 1.892 12.21 12.660 12.620 12.340 87.500 86.800 0.621 12.42 12.860 12.800 12.520 11.96 12.450 12.480 12.200 10.450 10.460 9.980 9.860 14.220 12.444 1.777 14.342 12.444 1.893
PRIMET_226 2017-09-30 09:45:00 226 156.7 0.00 187 0.021 0.021 165.400 4.374 10.010 9.990 1.448 1.628 11.69 12.130 12.110 11.860 89.500 88.300 0.150 11.95 12.430 12.450 12.190 11.50 11.820 11.790 11.560 10.440 10.320 8.980 9.000 13.740 12.287 1.443 13.896 12.271 1.626
PRIMET_226 2017-09-30 09:40:00 226 156.7 0.00 193 0.056 0.054 169.000 12.970 9.680 9.660 1.640 1.638 11.60 11.940 11.900 11.580 88.000 88.000 0.255 11.69 12.170 12.110 11.700 11.51 11.780 11.730 11.490 10.350 10.370 9.000 8.940 13.659 12.018 1.639 13.641 12.002 1.637
PRIMET_226 2017-09-30 09:35:00 226 156.7 0.00 195 0.007 0.007 188.000 2.970 9.870 9.890 1.365 1.393 11.46 12.020 11.950 11.520 89.900 89.700 0.013 11.65 12.150 12.100 11.700 11.24 11.820 11.750 11.340 10.170 10.430 9.240 9.140 13.533 12.172 1.367 13.587 12.189 1.399
PRIMET_226 2017-09-30 09:30:00 226 156.7 0.00 196 0.007 0.006 169.000 7.403 9.470 9.540 1.327 1.365 11.06 11.600 11.580 11.160 89.900 89.700 0.007 11.23 11.770 11.740 11.300 10.89 11.410 11.420 11.030 9.940 10.030 9.160 9.320 13.179 11.849 1.331 13.266 11.905 1.366
PRIMET_226 2017-09-30 09:25:00 226 156.7 0.00 202 0.007 0.006 194.400 7.547 9.450 9.710 1.019 0.929 10.69 11.200 11.220 10.830 92.100 92.800 0.007 10.88 11.410 11.410 11.030 10.53 11.060 11.080 10.670 10.010 10.180 8.980 9.210 12.858 11.833 1.016 12.979 12.042 0.934
PRIMET_226 2017-09-30 09:20:00 226 156.7 0.00 196 0.007 0.007 201.600 1.277 9.300 9.490 0.876 0.828 10.38 10.840 10.860 10.490 93.000 93.500 0.007 10.50 11.050 11.050 10.630 10.27 10.670 10.700 10.390 9.480 9.680 9.100 9.260 12.595 11.715 0.882 12.688 11.865 0.825
PRIMET_226 2017-09-30 09:15:00 226 156.7 0.00 205 0.007 0.007 198.500 0.084 9.210 9.300 0.812 0.831 10.21 10.650 10.650 10.320 93.500 93.400 0.007 10.26 10.670 10.680 10.370 10.15 10.620 10.640 10.290 9.310 9.380 9.080 9.230 12.453 11.644 0.809 12.545 11.715 0.828
PRIMET_226 2017-09-30 09:10:00 226 156.7 0.00 197 0.007 0.007 198.500 0.088 9.270 9.480 0.643 0.619 10.06 10.570 10.580 10.240 94.800 95.000 0.007 10.13 10.630 10.640 10.290 9.97 10.500 10.510 10.160 9.340 9.570 9.160 9.360 12.328 11.691 0.641 12.478 11.857 0.624
PRIMET_226 2017-09-30 09:05:00 226 156.7 0.00 211 0.007 0.007 198.500 0.088 8.980 9.090 0.745 0.810 9.91 10.460 10.460 10.100 93.900 93.400 0.007 9.96 10.490 10.500 10.160 9.87 10.430 10.450 10.050 9.160 9.330 8.800 8.930 12.205 11.464 0.744 12.361 11.550 0.816
PRIMET_226 2017-09-30 09:00:00 226 156.7 0.00 187 0.007 0.007 198.500 0.084 8.690 8.900 0.935 0.916 9.88 10.470 10.470 10.040 92.300 92.600 0.007 9.90 10.530 10.510 10.080 9.85 10.420 10.430 10.020 8.930 9.050 8.500 8.710 12.180 11.242 0.938 12.312 11.402 0.911
PRIMET_226 2017-09-30 08:55:00 226 156.7 0.00 235 0.007 0.007 198.500 0.079 9.040 9.420 0.670 0.483 9.88 10.400 10.420 10.020 94.500 96.100 0.007 9.92 10.440 10.450 10.050 9.85 10.390 10.400 10.010 9.410 9.650 8.610 9.130 12.180 11.511 0.670 12.295 11.810 0.480
PRIMET_226 2017-09-30 08:50:00 226 156.7 0.00 203 0.007 0.007 198.500 0.084 9.600 9.600 0.235 0.264 9.89 10.310 10.300 9.930 98.100 97.800 0.007 9.91 10.360 10.380 10.000 9.85 10.250 10.220 9.850 9.720 9.700 9.420 9.490 12.189 11.953 0.232 12.221 11.953 0.269
PRIMET_226 2017-09-30 08:45:00 226 156.7 0.00 197 0.007 0.007 198.500 0.097 9.380 9.540 0.232 0.201 9.67 10.170 10.180 9.780 98.100 98.300 0.007 9.84 10.280 10.250 9.850 9.55 10.070 10.110 9.700 9.680 9.620 9.230 9.440 12.010 11.778 0.228 12.099 11.905 0.206
PRIMET_226 2017-09-30 08:40:00 226 156.7 0.00 184 0.007 0.007 198.600 0.079 9.170 9.400 0.248 0.191 9.48 10.000 10.040 9.640 97.900 98.400 0.007 9.55 10.050 10.090 9.670 9.45 9.940 10.000 9.610 9.230 9.430 9.110 9.350 11.857 11.612 0.249 11.986 11.794 0.192
PRIMET_226 2017-09-30 08:35:00 226 156.7 0.00 203 0.007 0.007 198.000 0.443 9.130 9.400 0.225 0.142 9.42 9.930 9.960 9.580 98.100 98.800 0.007 9.45 9.990 10.040 9.630 9.40 9.880 9.920 9.550 9.170 9.470 9.080 9.350 11.810 11.581 0.224 11.937 11.794 0.143
PRIMET_226 2017-09-30 08:30:00 226 156.7 0.00 201 0.007 0.007 197.500 0.069 9.200 9.390 0.141 0.110 9.38 9.860 9.900 9.530 98.800 99.100 0.007 9.41 9.900 9.940 9.560 9.36 9.810 9.870 9.510 9.280 9.470 9.160 9.340 11.778 11.636 0.141 11.897 11.786 0.107
PRIMET_226 2017-09-30 08:25:00 226 156.7 0.00 194 0.007 0.007 198.300 0.896 9.170 9.410 0.068 0.033 9.25 9.750 9.800 9.450 99.400 99.700 0.007 9.38 9.880 9.940 9.540 9.13 9.590 9.640 9.330 9.280 9.510 9.070 9.280 11.675 11.612 0.070 11.833 11.802 0.036
PRIMET_226 2017-09-30 08:20:00 226 156.7 0.00 196 0.007 0.007 199.300 0.088 9.050 9.240 0.004 0.010 9.05 9.520 9.560 9.250 100.000 99.900 0.007 9.11 9.580 9.620 9.310 9.00 9.470 9.510 9.210 9.090 9.270 9.000 9.210 11.519 11.519 0.000 11.675 11.667 0.012
PRIMET_226 2017-09-30 08:15:00 226 156.7 0.00 197 0.007 0.007 199.300 0.088 8.970 9.160 0.000 0.000 8.97 9.480 9.520 9.160 100.000 100.000 0.007 9.00 9.520 9.560 9.210 8.90 9.410 9.440 9.080 9.000 9.210 8.900 9.080 11.457 11.457 0.000 11.604 11.604 0.000
PRIMET_226 2017-09-30 08:10:00 226 156.7 0.00 200 0.007 0.007 199.400 0.088 8.840 9.030 0.000 0.000 8.84 9.310 9.350 9.030 100.000 100.000 0.007 8.89 9.400 9.430 9.070 8.81 9.270 9.310 9.000 8.890 9.070 8.810 9.000 11.356 11.356 0.000 11.503 11.503 0.000
PRIMET_226 2017-09-30 08:05:00 226 156.7 0.00 188 0.007 0.007 199.400 0.079 8.810 9.020 0.000 0.000 8.81 9.290 9.340 9.020 100.000 100.000 0.007 8.85 9.310 9.360 9.050 8.75 9.270 9.320 9.000 8.850 9.050 8.750 9.000 11.333 11.333 0.000 11.495 11.495 0.000
PRIMET_226 2017-09-30 08:00:00 226 156.7 0.00 197 0.007 0.007 199.300 0.084 8.680 8.960 0.000 0.000 8.68 9.200 9.270 8.960 100.000 100.000 0.007 8.75 9.260 9.330 9.000 8.62 9.130 9.210 8.920 8.750 9.000 8.620 8.920 11.234 11.234 0.000 11.449 11.449 0.000
PRIMET_226 2017-09-30 07:55:00 226 156.7 0.00 201 0.007 0.007 199.400 0.125 8.570 8.850 0.000 0.000 8.57 9.040 9.120 8.850 100.000 100.000 0.007 8.62 9.120 9.210 8.910 8.54 8.980 9.050 8.780 8.620 8.910 8.540 8.780 11.151 11.151 0.000 11.364 11.364 0.000
PRIMET_226 2017-09-30 07:50:00 226 156.7 0.00 190 0.007 0.007 194.700 1.925 8.420 8.660 0.000 0.000 8.42 8.870 8.920 8.660 100.000 100.000 0.007 8.53 8.980 9.040 8.760 8.36 8.790 8.850 8.610 8.530 8.760 8.360 8.610 11.038 11.038 0.000 11.219 11.219 0.000
PRIMET_226 2017-09-30 07:45:00 226 156.7 0.00 198 0.007 0.007 193.900 0.063 8.370 8.600 0.000 0.000 8.37 8.790 8.850 8.600 100.000 100.000 0.007 8.39 8.810 8.870 8.630 8.33 8.760 8.820 8.560 8.390 8.630 8.330 8.560 11.000 11.000 0.000 11.173 11.173 0.000
PRIMET_226 2017-09-30 07:40:00 226 156.7 0.00 212 0.007 0.007 193.700 0.143 8.280 8.480 0.000 0.000 8.28 8.700 8.740 8.480 100.000 100.000 0.007 8.33 8.760 8.820 8.560 8.22 8.640 8.670 8.410 8.330 8.560 8.220 8.410 10.933 10.933 0.000 11.083 11.083 0.000
PRIMET_226 2017-09-30 07:35:00 226 156.7 0.00 194 0.007 0.007 193.600 0.105 8.200 8.410 0.000 0.000 8.20 8.610 8.660 8.410 100.000 100.000 0.007 8.22 8.630 8.680 8.430 8.19 8.590 8.640 8.390 8.220 8.430 8.190 8.390 10.874 10.874 0.000 11.030 11.030 0.000
PRIMET_226 2017-09-30 07:30:00 226 156.7 0.00 201 0.007 0.007 193.800 0.063 8.130 8.350 0.000 0.000 8.13 8.530 8.590 8.350 100.000 100.000 0.007 8.18 8.600 8.670 8.410 8.09 8.470 8.540 8.290 8.180 8.410 8.090 8.290 10.822 10.822 -0.000 10.985 10.985 -0.000
PRIMET_226 2017-09-30 07:25:00 226 156.7 0.00 198 0.007 0.007 193.800 0.063 8.070 8.260 0.000 0.000 8.07 8.430 8.500 8.260 100.000 100.000 0.007 8.09 8.480 8.540 8.280 8.04 8.410 8.480 8.230 8.090 8.280 8.040 8.230 10.778 10.778 0.000 10.918 10.918 0.000
PRIMET_226 2017-09-30 07:20:00 226 156.7 0.00 204 0.007 0.007 193.800 0.063 7.999 8.190 0.000 0.000 8.00 8.380 8.460 8.190 100.000 100.000 0.007 8.06 8.420 8.500 8.250 7.94 8.310 8.380 8.120 8.060 8.250 7.940 8.120 10.726 10.726 0.000 10.867 10.867 0.000
PRIMET_226 2017-09-30 07:15:00 226 156.7 0.00 196 0.007 0.007 193.600 0.128 7.931 8.090 0.000 0.000 7.93 8.270 8.350 8.090 100.000 100.000 0.007 7.95 8.300 8.380 8.120 7.91 8.250 8.320 8.050 7.950 8.120 7.910 8.050 10.677 10.677 -0.000 10.793 10.793 0.000
PRIMET_226 2017-09-30 07:10:00 226 156.7 0.00 197 0.007 0.007 193.500 0.056 7.911 8.030 0.000 0.000 7.91 8.190 8.260 8.030 100.000 100.000 0.007 7.94 8.250 8.320 8.060 7.89 8.150 8.240 8.010 7.937 8.060 7.887 8.010 10.662 10.662 0.000 10.749 10.749 0.000
PRIMET_226 2017-09-30 07:05:00 226 156.7 0.00 202 0.007 0.007 193.500 0.056 7.876 7.973 0.000 0.000 7.88 8.130 8.220 7.973 100.000 100.000 0.007 7.90 8.160 8.250 8.010 7.85 8.090 8.190 7.937 7.897 8.010 7.854 7.937 10.637 10.637 -0.000 10.707 10.707 0.000
PRIMET_226 2017-09-30 07:00:00 226 156.7 0.00 181 0.007 0.007 193.500 0.048 7.831 7.899 0.000 0.000 7.83 8.060 8.140 7.899 100.000 100.000 0.007 7.85 8.090 8.180 7.937 7.80 8.030 8.100 7.867 7.851 7.937 7.797 7.867 10.604 10.604 0.000 10.653 10.653 0.000
PRIMET_226 2017-09-30 06:55:00 226 156.7 0.00 198 0.007 0.007 193.500 0.084 7.811 7.845 0.000 0.000 7.81 7.997 8.080 7.845 100.000 100.000 0.007 7.83 8.020 8.100 7.864 7.79 7.977 8.070 7.831 7.830 7.864 7.791 7.831 10.590 10.590 0.000 10.614 10.614 0.000
PRIMET_226 2017-09-30 06:50:00 226 156.7 0.00 203 0.007 0.007 193.600 0.063 7.737 7.779 0.000 0.000 7.74 7.929 8.010 7.779 100.000 100.000 0.007 7.80 7.991 8.070 7.827 7.70 7.892 7.975 7.748 7.797 7.827 7.702 7.748 10.536 10.536 0.000 10.567 10.567 0.000
PRIMET_226 2017-09-30 06:45:00 226 156.7 0.00 200 0.007 0.007 193.600 0.056 7.707 7.748 0.000 0.000 7.71 7.887 7.966 7.748 100.000 100.000 0.007 7.72 7.896 7.977 7.772 7.69 7.877 7.958 7.736 7.722 7.772 7.692 7.736 10.515 10.515 0.000 10.544 10.544 -0.000
PRIMET_226 2017-09-30 06:40:00 226 156.7 0.00 201 0.007 0.007 193.600 0.056 7.673 7.719 0.000 0.000 7.67 7.853 7.935 7.719 100.000 100.000 0.007 7.71 7.880 7.961 7.742 7.64 7.822 7.911 7.686 7.705 7.742 7.639 7.686 10.490 10.490 0.000 10.523 10.523 0.000
PRIMET_226 2017-09-30 06:35:00 226 156.7 0.00 186 0.007 0.007 193.600 0.056 7.590 7.632 0.000 0.000 7.59 7.771 7.855 7.632 100.000 100.000 0.007 7.63 7.825 7.922 7.692 7.56 7.730 7.811 7.589 7.632 7.692 7.559 7.589 10.431 10.431 0.000 10.461 10.461 0.000
PRIMET_226 2017-09-30 06:30:00 226 156.7 0.00 198 0.007 0.007 193.600 0.056 7.534 7.583 0.000 0.000 7.53 7.710 7.794 7.583 100.000 100.000 0.007 7.56 7.735 7.811 7.602 7.52 7.698 7.785 7.566 7.556 7.602 7.516 7.566 10.391 10.391 0.000 10.426 10.426 0.000
PRIMET_226 2017-09-30 06:25:00 226 156.7 0.00 200 0.007 0.007 193.600 0.048 7.482 7.546 0.000 0.000 7.48 7.677 7.765 7.546 100.000 100.000 0.007 7.51 7.707 7.785 7.569 7.44 7.641 7.743 7.519 7.512 7.569 7.439 7.519 10.354 10.354 0.000 10.400 10.400 -0.000
PRIMET_226 2017-09-30 06:20:00 226 156.7 0.00 200 0.007 0.007 193.600 0.056 7.429 7.502 0.000 0.000 7.43 7.615 7.712 7.502 100.000 100.000 0.007 7.46 7.649 7.738 7.522 7.41 7.589 7.681 7.482 7.456 7.522 7.409 7.482 10.317 10.317 0.000 10.369 10.369 0.000
PRIMET_226 2017-09-30 06:15:00 226 156.7 0.00 195 0.007 0.007 193.600 0.056 7.393 7.470 0.000 0.000 7.39 7.571 7.669 7.470 100.000 100.000 0.007 7.41 7.592 7.684 7.485 7.37 7.557 7.656 7.455 7.412 7.485 7.372 7.455 10.292 10.292 0.000 10.346 10.346 -0.000
PRIMET_226 2017-09-30 06:10:00 226 156.7 0.00 200 0.007 0.007 193.600 0.056 7.364 7.445 0.000 0.000 7.36 7.554 7.658 7.445 100.000 100.000 0.007 7.39 7.575 7.677 7.469 7.34 7.532 7.631 7.426 7.392 7.469 7.342 7.426 10.271 10.271 0.000 10.328 10.328 0.000
PRIMET_226 2017-09-30 06:05:00 226 156.7 0.00 201 0.007 0.007 193.600 0.048 7.304 7.377 0.000 0.000 7.30 7.490 7.589 7.377 100.000 100.000 0.007 7.34 7.532 7.630 7.409 7.28 7.452 7.551 7.336 7.336 7.409 7.276 7.336 10.230 10.229 0.000 10.280 10.280 0.000
PRIMET_226 2017-09-30 06:00:00 226 156.7 0.00 185 0.007 0.007 193.600 0.056 7.272 7.338 0.000 0.000 7.27 7.440 7.538 7.338 100.000 100.000 0.007 7.28 7.455 7.554 7.359 7.25 7.427 7.523 7.319 7.282 7.359 7.252 7.319 10.207 10.207 0.000 10.253 10.253 0.000
PRIMET_226 2017-09-30 05:55:00 226 156.7 0.00 195 0.007 0.007 190.700 2.101 7.250 7.308 0.000 0.000 7.25 7.412 7.508 7.308 100.000 100.000 0.007 7.27 7.433 7.530 7.329 7.22 7.393 7.482 7.289 7.269 7.329 7.225 7.289 10.191 10.191 0.000 10.232 10.232 0.000
PRIMET_226 2017-09-30 05:50:00 226 156.7 0.00 200 0.007 0.006 200.300 15.180 7.224 7.286 0.000 0.000 7.22 7.409 7.503 7.286 100.000 100.000 0.007 7.25 7.437 7.531 7.312 7.16 7.387 7.485 7.241 7.248 7.312 7.161 7.241 10.173 10.173 0.000 10.216 10.216 0.000
PRIMET_226 2017-09-30 05:45:00 226 156.7 0.00 201 0.007 0.007 215.500 0.028 7.038 7.137 0.000 0.000 7.04 7.267 7.367 7.137 100.000 100.000 0.007 7.15 7.385 7.484 7.238 6.93 7.137 7.236 7.038 7.148 7.238 6.935 7.038 10.044 10.044 0.000 10.113 10.113 0.000
PRIMET_226 2017-09-30 05:40:00 226 156.7 0.00 201 0.007 0.007 215.500 0.048 6.899 7.026 0.000 0.000 6.90 7.092 7.209 7.026 100.000 100.000 0.007 6.93 7.124 7.238 7.048 6.87 7.064 7.179 7.008 6.935 7.048 6.868 7.008 9.949 9.949 0.000 10.036 10.036 0.000
PRIMET_226 2017-09-30 05:35:00 226 156.7 0.00 194 0.007 0.007 215.500 0.028 6.884 7.007 0.000 0.000 6.88 7.052 7.181 7.007 100.000 100.000 0.007 6.91 7.065 7.196 7.025 6.86 7.042 7.172 6.991 6.911 7.025 6.865 6.991 9.938 9.938 0.000 10.023 10.023 0.000
PRIMET_226 2017-09-30 05:30:00 226 156.7 0.00 194 0.007 0.007 215.500 0.028 6.837 6.952 0.000 0.000 6.84 6.984 7.121 6.952 100.000 100.000 0.007 6.89 7.052 7.180 6.988 6.76 6.898 7.028 6.904 6.895 6.988 6.765 6.904 9.906 9.906 0.000 9.985 9.985 0.000
PRIMET_226 2017-09-30 05:25:00 226 156.7 0.00 198 0.007 0.007 215.500 0.040 6.740 6.879 0.000 0.000 6.74 6.850 6.977 6.879 100.000 100.000 0.007 6.77 6.893 7.028 6.911 6.72 6.813 6.943 6.854 6.774 6.911 6.718 6.854 9.841 9.841 0.000 9.935 9.935 0.000
PRIMET_226 2017-09-30 05:20:00 226 156.7 0.00 199 0.007 0.007 215.500 0.040 6.778 6.901 0.000 0.000 6.78 6.866 6.986 6.901 100.000 100.000 0.007 6.80 6.899 7.017 6.924 6.74 6.813 6.949 6.868 6.801 6.924 6.738 6.868 9.866 9.866 0.000 9.950 9.950 0.000
PRIMET_226 2017-09-30 05:15:00 226 156.7 0.00 198 0.007 0.007 215.500 0.028 6.777 6.947 0.000 0.000 6.78 6.878 7.017 6.947 100.000 100.000 0.007 6.79 6.899 7.027 6.981 6.76 6.853 7.001 6.924 6.794 6.981 6.758 6.924 9.866 9.866 0.000 9.982 9.982 0.000
PRIMET_226 2017-09-30 05:10:00 226 156.7 0.00 202 0.007 0.007 215.500 0.000 6.880 7.024 0.000 0.000 6.88 6.938 7.070 7.024 100.000 100.000 0.007 6.97 7.020 7.147 7.090 6.81 6.882 7.028 6.967 6.974 7.090 6.807 6.967 9.936 9.936 0.000 10.034 10.034 0.000
PRIMET_226 2017-09-30 05:05:00 226 156.7 0.00 190 0.007 0.007 215.500 0.048 6.991 7.115 0.000 0.000 6.99 7.089 7.213 7.115 100.000 100.000 0.007 7.01 7.134 7.262 7.147 6.96 7.028 7.155 7.084 7.014 7.147 6.960 7.084 10.012 10.012 0.000 10.097 10.097 0.000
PRIMET_226 2017-09-30 05:00:00 226 156.7 0.00 185 0.007 0.007 215.500 0.028 7.013 7.161 0.000 0.000 7.01 7.130 7.259 7.161 100.000 100.000 0.007 7.04 7.142 7.271 7.187 7.00 7.112 7.248 7.137 7.040 7.187 6.997 7.137 10.027 10.027 0.000 10.129 10.129 0.000
PRIMET_226 2017-09-30 04:55:00 226 156.7 0.00 201 0.007 0.007 215.500 0.028 7.133 7.255 0.000 0.000 7.13 7.216 7.339 7.255 100.000 100.000 0.007 7.21 7.311 7.426 7.324 7.05 7.143 7.266 7.187 7.207 7.324 7.050 7.187 10.110 10.110 0.000 10.195 10.195 0.000
PRIMET_226 2017-09-30 04:50:00 226 156.7 0.00 196 0.007 0.007 215.500 0.040 7.234 7.328 0.000 0.000 7.23 7.360 7.475 7.328 100.000 100.000 0.007 7.26 7.390 7.507 7.340 7.20 7.319 7.428 7.317 7.260 7.340 7.204 7.317 10.180 10.180 0.000 10.246 10.246 0.000
PRIMET_226 2017-09-30 04:45:00 226 156.7 0.00 199 0.007 0.007 215.500 0.000 7.262 7.338 0.000 0.000 7.26 7.410 7.516 7.338 100.000 100.000 0.007 7.27 7.421 7.533 7.346 7.25 7.395 7.504 7.317 7.273 7.346 7.247 7.317 10.200 10.200 0.000 10.253 10.253 0.000
PRIMET_226 2017-09-30 04:40:00 226 156.7 0.00 198 0.007 0.007 215.500 0.056 7.224 7.312 0.000 0.000 7.22 7.397 7.498 7.312 100.000 100.000 0.007 7.28 7.429 7.528 7.333 7.19 7.366 7.476 7.289 7.276 7.333 7.189 7.289 10.173 10.173 0.000 10.235 10.235 0.000
PRIMET_226 2017-09-30 04:35:00 226 156.7 0.00 199 0.007 0.007 215.500 0.040 7.175 7.288 0.000 0.000 7.18 7.362 7.474 7.288 100.000 100.000 0.007 7.20 7.376 7.486 7.306 7.15 7.347 7.460 7.269 7.196 7.306 7.146 7.269 10.139 10.139 0.000 10.218 10.218 0.000
PRIMET_226 2017-09-30 04:30:00 226 156.7 0.00 198 0.007 0.007 215.500 0.028 7.119 7.260 0.000 0.000 7.12 7.324 7.453 7.260 100.000 100.000 0.007 7.16 7.353 7.465 7.276 7.09 7.290 7.426 7.222 7.160 7.276 7.089 7.222 10.100 10.100 0.000 10.198 10.198 0.000
PRIMET_226 2017-09-30 04:25:00 226 156.7 0.00 200 0.007 0.007 215.500 0.000 7.039 7.168 0.000 0.000 7.04 7.244 7.372 7.168 100.000 100.000 0.007 7.09 7.298 7.423 7.239 6.98 7.179 7.297 7.105 7.085 7.239 6.982 7.105 10.045 10.045 0.000 10.134 10.134 0.000
PRIMET_226 2017-09-30 04:20:00 226 156.7 0.00 176 0.007 0.007 215.500 0.000 6.894 7.047 0.000 0.000 6.89 7.103 7.225 7.047 100.000 100.000 0.007 6.97 7.166 7.289 7.105 6.80 7.033 7.147 6.978 6.975 7.105 6.802 6.978 9.945 9.945 0.000 10.050 10.050 0.000
PRIMET_226 2017-09-30 04:15:00 226 156.7 0.00 194 0.007 0.007 215.500 0.000 6.742 6.960 0.000 0.000 6.74 6.932 7.084 6.960 100.000 100.000 0.007 6.80 7.025 7.137 6.985 6.69 6.861 7.056 6.941 6.805 6.985 6.691 6.941 9.842 9.842 0.000 9.990 9.990 0.000
PRIMET_226 2017-09-30 04:10:00 226 156.7 0.00 195 0.007 0.007 215.500 0.028 6.645 6.919 0.000 0.000 6.64 6.807 6.989 6.920 100.000 100.000 0.007 6.70 6.868 7.051 6.948 6.63 6.770 6.936 6.894 6.695 6.948 6.628 6.894 9.776 9.776 0.000 9.963 9.962 0.000
PRIMET_226 2017-09-30 04:05:00 226 156.7 0.00 198 0.007 0.007 215.500 0.028 6.667 6.936 0.000 0.000 6.67 6.815 6.993 6.936 100.000 100.000 0.007 6.70 6.843 7.017 6.957 6.64 6.774 6.956 6.914 6.697 6.957 6.638 6.914 9.791 9.791 0.000 9.974 9.974 0.000
PRIMET_226 2017-09-30 04:00:00 226 156.7 0.00 190 0.007 0.007 215.500 0.040 6.739 6.974 0.000 0.000 6.74 6.875 7.035 6.974 100.000 100.000 0.007 6.77 6.917 7.062 7.007 6.69 6.829 7.013 6.944 6.773 7.007 6.687 6.944 9.840 9.840 0.000 10.000 10.000 0.000
PRIMET_226 2017-09-30 03:55:00 226 156.7 0.00 195 0.007 0.007 215.500 0.000 6.738 6.998 0.000 0.000 6.74 6.882 7.058 6.998 100.000 100.000 0.007 6.76 6.906 7.072 7.031 6.72 6.864 7.038 6.977 6.757 7.031 6.724 6.977 9.840 9.839 0.000 10.017 10.017 0.000
PRIMET_226 2017-09-30 03:50:00 226 156.7 0.00 204 0.007 0.007 215.500 0.000 6.748 7.041 0.000 0.000 6.75 6.869 7.067 7.041 100.000 100.000 0.007 6.77 6.900 7.087 7.073 6.72 6.850 7.045 7.024 6.773 7.073 6.724 7.024 9.846 9.846 0.000 10.046 10.046 0.000
PRIMET_226 2017-09-30 03:45:00 226 156.7 0.00 196 0.007 0.007 215.500 0.028 6.844 7.119 0.000 0.000 6.84 6.901 7.110 7.119 100.000 100.000 0.007 6.90 6.923 7.159 7.159 6.78 6.860 7.058 7.070 6.896 7.159 6.780 7.070 9.911 9.911 0.000 10.100 10.100 0.000
PRIMET_226 2017-09-30 03:40:00 226 156.7 0.00 196 0.007 0.007 215.500 0.000 6.973 7.211 0.000 0.000 6.97 6.969 7.172 7.211 100.000 100.000 0.007 7.04 7.039 7.240 7.256 6.91 6.920 7.144 7.149 7.042 7.256 6.906 7.149 9.999 9.999 0.000 10.164 10.164 0.000
PRIMET_226 2017-09-30 03:35:00 226 156.7 0.00 186 0.007 0.007 215.500 0.000 7.086 7.295 0.000 0.000 7.09 7.129 7.323 7.295 100.000 100.000 0.007 7.11 7.192 7.357 7.318 7.04 7.044 7.250 7.275 7.114 7.318 7.042 7.275 10.077 10.077 0.000 10.223 10.223 0.000
PRIMET_226 2017-09-30 03:30:00 226 156.7 0.00 191 0.007 0.007 215.500 0.028 7.128 7.349 0.000 0.000 7.13 7.219 7.388 7.349 100.000 100.000 0.007 7.18 7.259 7.432 7.388 7.09 7.189 7.351 7.311 7.184 7.388 7.088 7.311 10.106 10.106 0.000 10.261 10.261 0.000
PRIMET_226 2017-09-30 03:25:00 226 156.7 0.00 199 0.007 0.007 215.500 0.028 7.218 7.421 0.000 0.000 7.22 7.315 7.483 7.421 100.000 100.000 0.007 7.26 7.351 7.521 7.464 7.19 7.265 7.439 7.371 7.264 7.464 7.188 7.371 10.169 10.169 0.000 10.311 10.311 -0.000
PRIMET_226 2017-09-30 03:20:00 226 156.7 0.00 200 0.007 0.007 215.500 0.040 7.299 7.505 0.000 0.000 7.30 7.405 7.553 7.505 100.000 100.000 0.007 7.32 7.429 7.578 7.557 7.27 7.354 7.524 7.451 7.317 7.557 7.267 7.451 10.226 10.226 0.000 10.371 10.371 0.000
PRIMET_226 2017-09-30 03:15:00 226 156.7 0.00 200 0.007 0.007 215.500 0.000 7.332 7.569 0.000 0.000 7.33 7.434 7.602 7.569 100.000 100.000 0.007 7.37 7.456 7.615 7.597 7.31 7.400 7.578 7.550 7.366 7.597 7.313 7.550 10.249 10.249 0.000 10.416 10.416 0.000
PRIMET_226 2017-09-30 03:10:00 226 156.7 0.00 176 0.007 0.007 215.500 0.028 7.466 7.641 0.000 0.000 7.47 7.500 7.677 7.641 100.000 100.000 0.007 7.56 7.553 7.707 7.682 7.38 7.413 7.612 7.603 7.559 7.682 7.380 7.603 10.343 10.343 0.000 10.468 10.468 0.000
PRIMET_226 2017-09-30 03:05:00 226 156.7 0.00 201 0.007 0.007 215.500 0.040 7.634 7.724 0.000 0.000 7.63 7.646 7.776 7.724 100.000 100.000 0.007 7.68 7.713 7.848 7.762 7.56 7.566 7.707 7.685 7.675 7.762 7.559 7.685 10.463 10.463 0.000 10.527 10.527 0.000
PRIMET_226 2017-09-30 03:00:00 226 156.7 0.00 193 0.007 0.007 215.500 0.028 7.705 7.802 0.000 0.000 7.70 7.751 7.875 7.802 100.000 100.000 0.007 7.72 7.777 7.913 7.844 7.68 7.718 7.843 7.762 7.724 7.844 7.685 7.762 10.513 10.513 0.000 10.583 10.583 0.000
PRIMET_226 2017-09-30 02:55:00 226 156.7 0.00 197 0.007 0.007 215.500 0.040 7.746 7.884 0.000 0.000 7.75 7.831 7.970 7.884 100.000 100.000 0.007 7.78 7.879 8.010 7.917 7.72 7.787 7.913 7.848 7.777 7.917 7.721 7.848 10.543 10.543 0.000 10.643 10.643 0.000
PRIMET_226 2017-09-30 02:50:00 226 156.7 0.00 189 0.007 0.007 215.500 0.040 7.750 7.923 0.000 0.000 7.75 7.859 7.998 7.923 100.000 100.000 0.007 7.76 7.892 8.020 7.937 7.73 7.824 7.972 7.914 7.764 7.937 7.730 7.914 10.546 10.546 0.000 10.671 10.671 0.000
PRIMET_226 2017-09-30 02:45:00 226 156.7 0.00 199 0.007 0.007 215.500 0.028 7.764 7.958 0.000 0.000 7.76 7.830 8.000 7.958 100.000 100.000 0.007 7.81 7.882 8.060 7.997 7.73 7.799 7.974 7.924 7.813 7.997 7.734 7.924 10.556 10.556 0.000 10.696 10.696 0.000
PRIMET_226 2017-09-30 02:40:00 226 156.7 0.00 200 0.007 0.007 215.500 0.040 7.905 8.060 0.000 0.000 7.91 7.966 8.110 8.060 100.000 100.000 0.007 7.96 8.030 8.160 8.100 7.83 7.892 8.050 7.997 7.959 8.100 7.827 7.997 10.658 10.658 0.000 10.771 10.771 0.000
PRIMET_226 2017-09-30 02:35:00 226 156.7 0.00 194 0.007 0.007 215.500 0.040 7.958 8.140 0.000 0.000 7.96 8.020 8.160 8.140 100.000 100.000 0.007 7.98 8.030 8.170 8.170 7.95 8.000 8.150 8.090 7.979 8.170 7.946 8.090 10.696 10.696 0.000 10.830 10.830 0.000
PRIMET_226 2017-09-30 02:30:00 226 156.7 0.00 199 0.007 0.007 215.500 0.040 8.070 8.230 0.000 0.000 8.07 8.080 8.220 8.230 100.000 100.000 0.007 8.16 8.140 8.290 8.290 7.98 8.000 8.170 8.180 8.160 8.290 7.982 8.180 10.778 10.778 0.000 10.896 10.896 0.000
PRIMET_226 2017-09-30 02:25:00 226 156.7 0.00 198 0.007 0.007 215.600 0.048 8.190 8.340 0.000 0.000 8.19 8.200 8.370 8.340 100.000 100.000 0.007 8.23 8.230 8.420 8.390 8.15 8.150 8.300 8.300 8.230 8.390 8.150 8.300 10.867 10.867 0.000 10.978 10.978 0.000
PRIMET_226 2017-09-30 02:20:00 226 156.7 0.00 201 0.007 0.007 215.500 0.028 8.280 8.450 0.000 0.000 8.28 8.310 8.480 8.450 100.000 100.000 0.007 8.36 8.390 8.530 8.530 8.23 8.240 8.430 8.390 8.360 8.530 8.230 8.390 10.933 10.933 0.000 11.060 11.060 0.000
PRIMET_226 2017-09-30 02:15:00 226 156.7 0.00 200 0.007 0.007 215.500 0.028 8.420 8.580 0.000 0.000 8.42 8.480 8.620 8.580 100.000 100.000 0.007 8.47 8.540 8.690 8.640 8.36 8.400 8.550 8.520 8.470 8.640 8.360 8.520 11.038 11.038 0.000 11.158 11.158 0.000
PRIMET_226 2017-09-30 02:10:00 226 156.7 0.00 201 0.007 0.007 215.500 0.000 8.510 8.680 0.000 0.000 8.51 8.600 8.750 8.680 100.000 100.000 0.007 8.53 8.640 8.770 8.710 8.47 8.550 8.700 8.640 8.530 8.710 8.470 8.640 11.105 11.105 0.000 11.234 11.234 0.000
PRIMET_226 2017-09-30 02:05:00 226 156.7 0.00 200 0.007 0.007 215.500 0.000 8.610 8.770 0.000 0.000 8.61 8.670 8.810 8.770 100.000 100.000 0.007 8.69 8.760 8.890 8.830 8.53 8.610 8.750 8.710 8.690 8.830 8.530 8.710 11.181 11.181 0.000 11.303 11.303 0.000
PRIMET_226 2017-09-30 02:00:00 226 156.7 0.00 200 0.007 0.007 215.500 0.040 8.780 8.890 0.000 0.000 8.78 8.820 8.950 8.890 100.000 100.000 0.007 8.85 8.880 9.010 8.950 8.71 8.760 8.890 8.830 8.850 8.950 8.710 8.830 11.310 11.310 0.000 11.395 11.395 0.000
PRIMET_226 2017-09-30 01:55:00 226 156.7 0.00 199 0.007 0.007 215.500 0.000 8.920 9.010 0.000 0.000 8.92 8.950 9.070 9.010 100.000 100.000 0.007 8.98 9.010 9.120 9.060 8.86 8.890 9.020 8.950 8.980 9.060 8.860 8.950 11.418 11.418 0.000 11.488 11.488 -0.000
PRIMET_226 2017-09-30 01:50:00 226 156.7 0.00 198 0.007 0.007 215.500 0.028 9.040 9.130 0.000 0.000 9.04 9.110 9.210 9.130 100.000 100.000 0.007 9.10 9.190 9.300 9.200 8.99 9.010 9.130 9.070 9.100 9.200 8.990 9.070 11.511 11.511 -0.000 11.581 11.581 -0.000
PRIMET_226 2017-09-30 01:45:00 226 156.7 0.00 201 0.007 0.007 215.500 0.048 9.070 9.220 0.000 0.000 9.07 9.200 9.320 9.220 100.000 100.000 0.007 9.10 9.220 9.340 9.240 9.03 9.140 9.280 9.190 9.100 9.240 9.030 9.190 11.534 11.534 0.000 11.652 11.652 0.000
PRIMET_226 2017-09-30 01:40:00 226 156.7 0.00 200 0.007 0.007 215.500 0.084 9.110 9.290 0.000 0.000 9.11 9.190 9.330 9.290 100.000 100.000 0.007 9.18 9.240 9.390 9.350 9.03 9.130 9.280 9.230 9.180 9.350 9.030 9.230 11.565 11.565 0.000 11.707 11.707 0.000
PRIMET_226 2017-09-30 01:35:00 226 156.7 0.00 200 0.007 0.007 215.600 0.028 9.280 9.430 0.000 0.000 9.28 9.350 9.480 9.430 100.000 100.000 0.007 9.38 9.470 9.590 9.510 9.20 9.260 9.400 9.350 9.380 9.510 9.200 9.350 11.699 11.699 0.000 11.818 11.818 0.000
PRIMET_226 2017-09-30 01:30:00 226 156.7 0.00 194 0.007 0.007 215.600 0.000 9.440 9.550 0.000 0.000 9.44 9.500 9.630 9.550 100.000 100.000 0.007 9.50 9.550 9.670 9.600 9.38 9.470 9.600 9.500 9.500 9.600 9.380 9.500 11.826 11.826 0.000 11.913 11.913 0.000
PRIMET_226 2017-09-30 01:25:00 226 156.7 0.00 200 0.007 0.007 215.500 0.028 9.550 9.650 0.000 0.000 9.55 9.610 9.730 9.650 100.000 100.000 0.007 9.61 9.670 9.790 9.700 9.51 9.560 9.680 9.600 9.610 9.700 9.510 9.600 11.913 11.913 0.000 11.994 11.994 0.000
PRIMET_226 2017-09-30 01:20:00 226 156.7 0.00 198 0.007 0.007 215.500 0.040 9.720 9.790 0.000 0.000 9.72 9.790 9.900 9.790 100.000 100.000 0.007 9.80 9.890 9.980 9.840 9.63 9.690 9.800 9.710 9.800 9.840 9.630 9.710 12.050 12.050 0.000 12.107 12.107 0.000
PRIMET_226 2017-09-30 01:15:00 226 156.7 0.00 195 0.007 0.007 215.500 0.000 9.810 9.860 0.000 0.000 9.81 9.930 10.030 9.860 100.000 100.000 0.007 9.83 9.960 10.050 9.890 9.77 9.890 9.990 9.830 9.830 9.890 9.770 9.830 12.123 12.123 0.000 12.164 12.164 0.000
PRIMET_226 2017-09-30 01:10:00 226 156.7 0.00 195 0.007 0.007 215.500 0.000 9.840 9.900 0.000 0.000 9.84 9.970 10.070 9.900 100.000 100.000 0.007 9.85 9.980 10.090 9.910 9.83 9.950 10.060 9.880 9.850 9.910 9.830 9.880 12.148 12.148 -0.000 12.197 12.197 0.000
PRIMET_226 2017-09-30 01:05:00 226 156.7 0.00 193 0.007 0.007 215.500 0.000 9.820 9.880 0.000 0.000 9.82 9.940 10.050 9.880 100.000 100.000 0.007 9.84 9.960 10.060 9.900 9.81 9.920 10.040 9.870 9.840 9.900 9.810 9.870 12.131 12.131 0.000 12.180 12.180 0.000
PRIMET_226 2017-09-30 01:00:00 226 156.7 0.00 194 0.007 0.007 215.500 0.000 9.830 9.910 0.000 0.000 9.83 9.940 10.060 9.910 100.000 100.000 0.007 9.85 9.950 10.070 9.940 9.81 9.940 10.050 9.880 9.850 9.940 9.810 9.880 12.140 12.140 0.000 12.205 12.205 0.000
PRIMET_226 2017-09-30 00:55:00 226 156.7 0.00 190 0.007 0.007 215.500 0.040 9.850 9.940 0.000 0.000 9.85 9.970 10.080 9.940 100.000 100.000 0.007 9.88 9.990 10.110 9.950 9.81 9.930 10.050 9.920 9.880 9.950 9.810 9.920 12.156 12.156 0.000 12.229 12.229 0.000
PRIMET_226 2017-09-30 00:50:00 226 156.7 0.00 200 0.007 0.007 215.600 0.040 9.840 9.960 0.000 0.000 9.84 9.940 10.060 9.960 100.000 100.000 0.007 9.88 9.970 10.100 9.990 9.82 9.920 10.040 9.930 9.880 9.990 9.820 9.930 12.148 12.148 -0.000 12.246 12.246 0.000
PRIMET_226 2017-09-30 00:45:00 226 156.7 0.00 190 0.007 0.007 215.600 0.000 9.920 10.040 0.000 0.000 9.92 10.010 10.140 10.040 100.000 100.000 0.007 9.97 10.060 10.200 10.090 9.89 9.970 10.100 10.010 9.970 10.090 9.890 10.010 12.213 12.213 -0.000 12.312 12.312 0.000
PRIMET_226 2017-09-30 00:40:00 226 156.7 0.00 193 0.007 0.007 215.400 0.115 10.000 10.120 0.000 0.000 10.00 10.090 10.220 10.120 100.000 100.000 0.007 10.02 10.120 10.250 10.160 9.97 10.070 10.200 10.080 10.020 10.160 9.970 10.080 12.279 12.279 0.000 12.378 12.378 0.000
PRIMET_226 2017-09-30 00:35:00 226 156.7 0.00 200 0.007 0.007 215.300 0.063 10.070 10.210 0.000 0.000 10.07 10.140 10.280 10.210 100.000 100.000 0.007 10.14 10.200 10.340 10.270 10.02 10.100 10.240 10.150 10.140 10.270 10.020 10.150 12.336 12.336 0.000 12.453 12.453 0.000
PRIMET_226 2017-09-30 00:30:00 226 156.7 0.00 191 0.007 0.007 215.400 0.040 10.220 10.330 0.000 0.000 10.22 10.300 10.430 10.330 100.000 100.000 0.007 10.28 10.390 10.500 10.370 10.14 10.200 10.340 10.270 10.280 10.370 10.140 10.270 12.461 12.461 0.000 12.553 12.553 -0.000
PRIMET_226 2017-09-30 00:25:00 226 156.7 0.00 200 0.007 0.007 215.100 0.202 10.320 10.410 0.000 0.000 10.32 10.410 10.530 10.410 100.000 100.000 0.007 10.39 10.460 10.580 10.450 10.28 10.380 10.500 10.370 10.390 10.450 10.280 10.370 12.545 12.545 0.000 12.620 12.620 0.000
PRIMET_226 2017-09-30 00:20:00 226 156.7 0.00 185 0.007 0.007 215.000 0.040 10.440 10.490 0.000 0.000 10.44 10.510 10.620 10.490 100.000 100.000 0.007 10.47 10.550 10.660 10.540 10.40 10.460 10.590 10.450 10.470 10.540 10.400 10.450 12.645 12.645 0.000 12.688 12.688 0.000
PRIMET_226 2017-09-30 00:15:00 226 156.7 0.00 198 0.007 0.007 215.000 0.028 10.510 10.560 0.000 0.000 10.51 10.590 10.700 10.560 100.000 100.000 0.007 10.53 10.630 10.730 10.580 10.49 10.550 10.670 10.540 10.530 10.580 10.490 10.540 12.705 12.705 0.000 12.747 12.747 0.000
PRIMET_226 2017-09-30 00:10:00 226 156.7 0.00 199 0.007 0.007 215.000 0.040 10.540 10.620 0.000 0.000 10.54 10.640 10.740 10.620 100.000 100.000 0.007 10.57 10.660 10.770 10.650 10.52 10.620 10.720 10.580 10.570 10.650 10.520 10.580 12.730 12.730 0.000 12.798 12.798 0.000
PRIMET_226 2017-09-30 00:05:00 226 156.7 0.00 190 0.007 0.007 215.000 0.028 10.590 10.680 0.000 0.000 10.59 10.690 10.800 10.680 100.000 100.000 0.007 10.63 10.720 10.830 10.720 10.55 10.660 10.770 10.640 10.630 10.720 10.550 10.640 12.773 12.773 0.000 12.850 12.850 0.000
PRIMET_226 2017-09-30 00:00:00 226 156.7 0.00 199 0.007 0.007 215.000 0.028 10.690 10.770 0.000 0.000 10.69 10.790 10.900 10.770 100.000 100.000 0.007 10.74 10.840 10.940 10.820 10.64 10.730 10.840 10.720 10.740 10.820 10.640 10.720 12.858 12.858 0.000 12.927 12.927 0.000
PRIMET_226 2017-09-29 23:55:00 226 156.7 0.00 195 0.007 0.007 215.000 0.028 10.770 10.830 0.000 0.000 10.77 10.870 10.970 10.830 100.000 100.000 0.007 10.83 10.910 11.000 10.870 10.73 10.840 10.930 10.800 10.830 10.870 10.730 10.800 12.927 12.927 0.000 12.979 12.979 -0.000
PRIMET_226 2017-09-29 23:50:00 226 156.7 0.00 195 0.007 0.007 215.000 0.040 10.840 10.910 0.000 0.000 10.84 10.950 11.050 10.910 100.000 100.000 0.007 10.87 10.980 11.090 10.940 10.81 10.910 11.000 10.880 10.870 10.940 10.810 10.880 12.987 12.987 0.000 13.048 13.048 0.000
PRIMET_226 2017-09-29 23:45:00 226 156.7 0.00 195 0.007 0.007 215.000 0.040 10.880 10.960 0.000 0.000 10.88 10.980 11.090 10.960 100.000 100.000 0.007 10.90 10.990 11.110 11.000 10.86 10.970 11.080 10.930 10.900 11.000 10.860 10.930 13.022 13.022 0.000 13.091 13.091 0.000
PRIMET_226 2017-09-29 23:40:00 226 156.7 0.00 194 0.007 0.007 215.000 0.056 10.940 11.040 0.000 0.000 10.94 11.030 11.160 11.040 100.000 100.000 0.007 10.99 11.070 11.200 11.080 10.90 10.990 11.110 10.990 10.990 11.080 10.900 10.990 13.074 13.074 0.000 13.161 13.161 0.000
PRIMET_226 2017-09-29 23:35:00 226 156.7 0.00 180 0.007 0.007 215.000 0.040 11.060 11.130 0.000 0.000 11.06 11.150 11.260 11.130 100.000 100.000 0.007 11.10 11.200 11.310 11.150 10.99 11.070 11.200 11.080 11.100 11.150 10.990 11.080 13.179 13.179 -0.000 13.240 13.240 0.000
PRIMET_226 2017-09-29 23:30:00 226 156.7 0.00 190 0.007 0.007 215.000 0.040 11.110 11.170 0.000 0.000 11.11 11.220 11.320 11.170 100.000 100.000 0.007 11.15 11.250 11.350 11.220 11.08 11.200 11.300 11.140 11.150 11.220 11.080 11.140 13.222 13.222 0.000 13.275 13.275 0.000
PRIMET_226 2017-09-29 23:25:00 226 156.7 0.00 186 0.007 0.007 215.000 0.028 11.210 11.250 0.000 0.000 11.21 11.310 11.400 11.250 100.000 100.000 0.007 11.26 11.350 11.450 11.280 11.16 11.260 11.350 11.220 11.260 11.280 11.160 11.220 13.310 13.310 0.000 13.346 13.346 0.000
PRIMET_226 2017-09-29 23:20:00 226 156.7 0.00 186 0.007 0.007 215.000 0.040 11.270 11.300 0.000 0.000 11.27 11.390 11.490 11.300 100.000 100.000 0.007 11.30 11.430 11.520 11.320 11.25 11.350 11.450 11.280 11.300 11.320 11.250 11.280 13.364 13.364 0.000 13.390 13.390 0.000
PRIMET_226 2017-09-29 23:15:00 226 156.7 0.00 200 0.007 0.007 215.000 0.000 11.300 11.330 0.000 0.000 11.30 11.440 11.530 11.330 100.000 100.000 0.007 11.31 11.450 11.540 11.350 11.28 11.430 11.510 11.310 11.310 11.350 11.280 11.310 13.390 13.390 0.000 13.417 13.417 0.000
PRIMET_226 2017-09-29 23:10:00 226 156.7 0.00 185 0.007 0.007 215.000 0.028 11.330 11.360 0.000 0.000 11.33 11.460 11.550 11.360 100.000 100.000 0.007 11.35 11.480 11.570 11.370 11.31 11.440 11.540 11.340 11.350 11.370 11.310 11.340 13.417 13.417 0.000 13.444 13.444 0.000
PRIMET_226 2017-09-29 23:05:00 226 156.7 0.00 186 0.007 0.007 215.000 0.028 11.350 11.380 0.000 0.000 11.35 11.490 11.580 11.380 100.000 100.000 0.007 11.36 11.500 11.590 11.400 11.34 11.470 11.570 11.370 11.360 11.400 11.340 11.370 13.435 13.435 0.000 13.461 13.461 -0.000
PRIMET_226 2017-09-29 23:00:00 226 156.7 0.00 176 0.007 0.007 215.000 0.028 11.370 11.400 0.000 0.000 11.37 11.500 11.590 11.410 100.000 100.000 0.007 11.38 11.510 11.610 11.420 11.35 11.490 11.580 11.390 11.380 11.420 11.350 11.390 13.452 13.452 0.000 13.488 13.479 0.000
PRIMET_226 2017-09-29 22:55:00 226 156.7 0.00 200 0.007 0.007 215.000 0.040 11.370 11.400 0.000 0.000 11.37 11.490 11.590 11.400 100.000 100.000 0.007 11.38 11.510 11.600 11.410 11.35 11.480 11.580 11.390 11.380 11.410 11.350 11.390 13.452 13.452 0.000 13.479 13.479 -0.000
PRIMET_226 2017-09-29 22:50:00 226 156.7 0.00 189 0.007 0.007 215.000 0.028 11.380 11.420 0.000 0.000 11.38 11.490 11.580 11.420 100.000 100.000 0.007 11.42 11.500 11.590 11.440 11.36 11.470 11.570 11.400 11.420 11.440 11.360 11.400 13.461 13.461 -0.000 13.497 13.497 0.000
PRIMET_226 2017-09-29 22:45:00 226 156.7 0.00 198 0.007 0.007 215.000 0.040 11.400 11.450 0.000 0.000 11.40 11.510 11.610 11.450 100.000 100.000 0.007 11.42 11.520 11.620 11.470 11.39 11.500 11.590 11.420 11.420 11.470 11.390 11.420 13.479 13.479 -0.000 13.524 13.524 0.000
PRIMET_226 2017-09-29 22:40:00 226 156.7 0.00 185 0.007 0.007 215.000 0.040 11.440 11.500 0.000 0.000 11.44 11.530 11.640 11.500 100.000 100.000 0.007 11.46 11.550 11.660 11.530 11.41 11.510 11.610 11.460 11.460 11.530 11.410 11.460 13.515 13.515 0.000 13.569 13.569 0.000
PRIMET_226 2017-09-29 22:35:00 226 156.7 0.00 194 0.007 0.007 215.000 0.040 11.480 11.530 0.000 0.000 11.48 11.560 11.670 11.530 100.000 100.000 0.007 11.52 11.580 11.680 11.540 11.45 11.550 11.660 11.500 11.520 11.540 11.450 11.500 13.551 13.551 0.000 13.596 13.596 0.000
PRIMET_226 2017-09-29 22:30:00 226 156.7 0.00 198 0.007 0.007 215.000 0.040 11.550 11.590 0.002 0.000 11.55 11.610 11.700 11.590 100.000 100.000 0.007 11.59 11.640 11.740 11.630 11.51 11.590 11.680 11.550 11.590 11.630 11.510 11.550 13.614 13.614 0.000 13.650 13.650 0.000
PRIMET_226 2017-09-29 22:25:00 226 156.7 0.00 199 0.007 0.007 215.000 0.040 11.610 11.670 0.012 0.000 11.62 11.690 11.790 11.670 99.900 100.000 0.007 11.65 11.730 11.830 11.720 11.59 11.640 11.740 11.630 11.640 11.720 11.580 11.630 13.677 13.668 0.014 13.722 13.722 0.000
PRIMET_226 2017-09-29 22:20:00 226 156.7 0.00 185 0.007 0.007 215.100 0.056 11.710 11.790 0.017 0.002 11.73 11.790 11.890 11.790 99.900 100.000 0.007 11.81 11.860 11.960 11.870 11.65 11.730 11.830 11.720 11.790 11.870 11.630 11.720 13.777 13.759 0.014 13.831 13.831 0.000
PRIMET_226 2017-09-29 22:15:00 226 156.7 0.00 200 0.007 0.007 215.000 0.028 11.860 11.910 0.009 0.000 11.87 11.940 12.030 11.910 99.900 100.000 0.007 11.93 12.000 12.090 11.970 11.80 11.860 11.960 11.870 11.920 11.970 11.780 11.870 13.905 13.896 0.014 13.941 13.941 0.000
PRIMET_226 2017-09-29 22:10:00 226 156.7 0.00 200 0.007 0.007 215.000 0.000 11.990 12.050 0.003 0.000 11.99 12.060 12.160 12.050 100.000 100.000 0.007 12.05 12.120 12.220 12.110 11.94 12.000 12.100 11.970 12.050 12.110 11.940 11.970 14.015 14.015 0.000 14.071 14.071 0.000
PRIMET_226 2017-09-29 22:05:00 226 156.7 0.00 198 0.007 0.007 215.000 0.040 12.130 12.190 0.000 0.000 12.13 12.200 12.300 12.190 100.000 100.000 0.007 12.22 12.300 12.400 12.260 12.06 12.120 12.230 12.110 12.220 12.260 12.060 12.110 14.145 14.145 0.000 14.201 14.201 0.000
PRIMET_226 2017-09-29 22:00:00 226 156.7 0.00 195 0.007 0.007 215.100 0.063 12.270 12.310 0.000 0.000 12.27 12.370 12.470 12.310 100.000 100.000 0.007 12.31 12.410 12.510 12.350 12.23 12.290 12.410 12.270 12.310 12.350 12.230 12.270 14.276 14.276 0.000 14.314 14.314 0.000
PRIMET_226 2017-09-29 21:55:00 226 156.7 0.00 198 0.007 0.007 214.900 0.028 12.320 12.370 0.000 0.000 12.32 12.450 12.540 12.370 100.000 100.000 0.007 12.34 12.460 12.560 12.400 12.30 12.410 12.500 12.350 12.340 12.400 12.300 12.350 14.323 14.323 -0.000 14.370 14.370 0.000
PRIMET_226 2017-09-29 21:50:00 226 156.7 0.00 199 0.007 0.007 215.000 0.074 12.360 12.420 0.000 0.000 12.36 12.480 12.580 12.420 100.000 100.000 0.007 12.41 12.520 12.620 12.460 12.33 12.460 12.550 12.390 12.410 12.460 12.330 12.390 14.361 14.361 -0.000 14.418 14.418 0.000
PRIMET_226 2017-09-29 21:45:00 226 156.7 0.00 195 0.007 0.007 215.100 0.040 12.450 12.500 0.000 0.000 12.45 12.580 12.670 12.500 100.000 100.000 0.007 12.52 12.640 12.730 12.550 12.41 12.530 12.620 12.460 12.520 12.550 12.410 12.460 14.446 14.446 0.000 14.494 14.494 0.000
PRIMET_226 2017-09-29 21:40:00 226 156.7 0.00 200 0.007 0.007 215.000 0.056 12.540 12.570 0.000 0.000 12.54 12.680 12.770 12.570 100.000 100.000 0.007 12.57 12.700 12.800 12.590 12.52 12.640 12.730 12.540 12.570 12.590 12.520 12.540 14.532 14.532 0.000 14.560 14.560 0.000
PRIMET_226 2017-09-29 21:35:00 226 156.7 0.00 199 0.007 0.007 215.000 0.196 12.600 12.620 0.000 0.000 12.60 12.740 12.830 12.620 100.000 100.000 0.007 12.64 12.790 12.880 12.660 12.55 12.710 12.800 12.590 12.640 12.660 12.550 12.590 14.589 14.589 0.000 14.608 14.608 0.000
PRIMET_226 2017-09-29 21:30:00 226 156.7 0.00 190 0.007 0.007 215.200 0.247 12.630 12.650 0.000 0.000 12.63 12.790 12.870 12.650 100.000 100.000 0.007 12.66 12.810 12.890 12.670 12.62 12.770 12.850 12.630 12.660 12.670 12.620 12.630 14.618 14.618 0.000 14.637 14.637 -0.000
PRIMET_226 2017-09-29 21:25:00 226 156.7 0.00 194 0.007 0.007 215.900 1.104 12.680 12.670 0.000 0.000 12.68 12.840 12.910 12.670 100.000 100.000 0.007 12.69 12.870 12.930 12.680 12.65 12.810 12.890 12.670 12.690 12.680 12.650 12.670 14.666 14.666 0.000 14.656 14.656 0.000
PRIMET_226 2017-09-29 21:20:00 226 156.7 0.00 198 0.007 0.007 216.000 2.024 12.670 12.670 0.000 0.000 12.67 12.830 12.900 12.670 100.000 100.000 0.007 12.69 12.860 12.940 12.710 12.64 12.810 12.870 12.650 12.690 12.710 12.640 12.650 14.656 14.656 0.000 14.656 14.656 0.000
PRIMET_226 2017-09-29 21:15:00 226 156.7 0.00 194 0.007 0.007 218.200 0.000 12.690 12.690 0.000 0.000 12.69 12.860 12.930 12.690 100.000 100.000 0.007 12.71 12.880 12.940 12.700 12.66 12.820 12.900 12.660 12.710 12.700 12.660 12.660 14.675 14.675 0.000 14.675 14.675 0.000
PRIMET_226 2017-09-29 21:10:00 226 156.7 0.00 181 0.007 0.007 218.200 0.000 12.650 12.650 0.000 0.000 12.65 12.810 12.880 12.650 100.000 100.000 0.007 12.67 12.820 12.890 12.670 12.63 12.800 12.870 12.630 12.670 12.670 12.630 12.630 14.637 14.637 -0.000 14.637 14.637 -0.000
PRIMET_226 2017-09-29 21:05:00 226 156.7 0.00 199 0.007 0.007 218.300 0.215 12.620 12.630 0.000 0.000 12.62 12.780 12.850 12.630 100.000 100.000 0.007 12.64 12.800 12.870 12.640 12.61 12.760 12.840 12.620 12.640 12.640 12.610 12.620 14.608 14.608 0.000 14.618 14.618 0.000
PRIMET_226 2017-09-29 21:00:00 226 156.7 0.00 197 0.007 0.007 218.600 0.000 12.620 12.640 0.000 0.000 12.62 12.770 12.850 12.640 100.000 100.000 0.007 12.63 12.780 12.860 12.650 12.61 12.760 12.840 12.620 12.630 12.650 12.610 12.620 14.608 14.608 0.000 14.627 14.627 0.000
PRIMET_226 2017-09-29 20:55:00 226 156.7 0.00 199 0.007 0.007 218.600 0.000 12.610 12.630 0.000 0.000 12.61 12.760 12.840 12.630 100.000 100.000 0.007 12.63 12.770 12.850 12.630 12.60 12.750 12.830 12.610 12.630 12.630 12.600 12.610 14.599 14.599 0.000 14.618 14.618 0.000
PRIMET_226 2017-09-29 20:50:00 226 156.7 0.00 199 0.007 0.007 218.600 0.000 12.620 12.650 0.000 0.000 12.62 12.770 12.860 12.650 100.000 100.000 0.007 12.63 12.790 12.880 12.660 12.60 12.750 12.840 12.630 12.630 12.660 12.600 12.630 14.608 14.608 0.000 14.637 14.637 -0.000
PRIMET_226 2017-09-29 20:45:00 226 156.7 0.00 198 0.007 0.007 218.600 0.000 12.640 12.660 0.000 0.000 12.64 12.790 12.870 12.660 100.000 100.000 0.007 12.65 12.800 12.890 12.670 12.63 12.780 12.860 12.650 12.650 12.670 12.630 12.650 14.627 14.627 0.000 14.647 14.647 0.000
PRIMET_226 2017-09-29 20:40:00 226 156.7 0.00 198 0.007 0.007 218.700 0.063 12.670 12.670 0.000 0.000 12.67 12.810 12.890 12.670 100.000 100.000 0.007 12.69 12.830 12.920 12.690 12.65 12.790 12.880 12.650 12.690 12.690 12.650 12.650 14.656 14.656 0.000 14.656 14.656 0.000
PRIMET_226 2017-09-29 20:35:00 226 156.7 0.00 198 0.007 0.007 218.600 0.204 12.650 12.630 0.000 0.000 12.65 12.790 12.860 12.630 100.000 100.000 0.007 12.70 12.840 12.920 12.680 12.61 12.740 12.810 12.600 12.700 12.680 12.610 12.600 14.637 14.637 -0.000 14.618 14.618 0.000
PRIMET_226 2017-09-29 20:30:00 226 156.7 0.00 194 0.007 0.007 219.800 0.461 12.610 12.620 0.000 0.000 12.61 12.730 12.820 12.620 100.000 100.000 0.007 12.62 12.740 12.830 12.640 12.60 12.720 12.810 12.600 12.620 12.640 12.600 12.600 14.599 14.599 0.000 14.608 14.608 0.000
PRIMET_226 2017-09-29 20:25:00 226 156.7 0.00 191 0.007 0.007 220.000 0.000 12.640 12.640 0.000 0.000 12.64 12.760 12.840 12.640 100.000 100.000 0.007 12.65 12.770 12.850 12.650 12.62 12.740 12.830 12.630 12.650 12.650 12.620 12.630 14.627 14.627 0.000 14.627 14.627 0.000
PRIMET_226 2017-09-29 20:20:00 226 156.7 0.00 198 0.007 0.007 219.900 0.028 12.640 12.680 0.000 0.000 12.64 12.750 12.850 12.680 100.000 100.000 0.007 12.68 12.800 12.900 12.710 12.62 12.720 12.820 12.650 12.680 12.710 12.620 12.650 14.627 14.627 0.000 14.666 14.666 0.000
PRIMET_226 2017-09-29 20:15:00 226 156.7 0.00 194 0.007 0.007 219.900 0.000 12.700 12.710 0.000 0.000 12.70 12.810 12.900 12.710 100.000 100.000 0.007 12.72 12.830 12.910 12.720 12.67 12.800 12.890 12.700 12.720 12.720 12.670 12.700 14.685 14.685 0.000 14.695 14.695 0.000
PRIMET_226 2017-09-29 20:10:00 226 156.7 0.00 199 0.007 0.007 221.600 1.285 12.740 12.750 0.000 0.000 12.74 12.850 12.930 12.750 100.000 100.000 0.007 12.76 12.870 12.950 12.770 12.73 12.830 12.910 12.720 12.760 12.770 12.730 12.720 14.724 14.724 0.000 14.733 14.733 0.000
PRIMET_226 2017-09-29 20:05:00 226 156.7 0.00 189 0.007 0.007 222.800 0.069 12.790 12.800 0.001 0.000 12.79 12.900 12.980 12.800 100.000 100.000 0.007 12.83 12.930 13.020 12.830 12.76 12.860 12.940 12.760 12.830 12.830 12.760 12.760 14.772 14.772 0.000 14.782 14.782 0.000
PRIMET_226 2017-09-29 20:00:00 226 156.7 0.00 184 0.007 0.006 203.400 6.433 12.870 12.860 0.000 0.000 12.87 12.980 13.060 12.860 100.000 100.000 0.007 12.92 13.030 13.100 12.880 12.82 12.930 13.010 12.830 12.920 12.880 12.820 12.830 14.850 14.850 0.000 14.840 14.840 0.000
PRIMET_226 2017-09-29 19:55:00 226 156.7 0.00 198 0.007 0.007 201.300 0.088 12.900 12.880 0.000 0.000 12.90 13.010 13.080 12.880 100.000 100.000 0.007 12.92 13.020 13.100 12.890 12.86 12.990 13.070 12.860 12.920 12.890 12.860 12.860 14.879 14.879 0.000 14.859 14.859 0.000
PRIMET_226 2017-09-29 19:50:00 226 156.7 0.00 190 0.007 0.007 201.300 0.079 12.820 12.850 0.004 0.000 12.83 12.960 13.040 12.850 100.000 100.000 0.007 12.86 12.990 13.060 12.860 12.80 12.930 13.030 12.830 12.860 12.860 12.790 12.830 14.811 14.801 0.000 14.830 14.830 0.000
PRIMET_226 2017-09-29 19:45:00 226 156.7 0.00 198 0.007 0.007 201.300 0.079 12.830 12.860 0.013 0.000 12.85 12.950 13.040 12.860 99.900 100.000 0.007 12.89 12.990 13.080 12.880 12.81 12.930 13.020 12.840 12.880 12.880 12.790 12.840 14.830 14.811 0.015 14.840 14.840 0.000
PRIMET_226 2017-09-29 19:40:00 226 156.7 0.00 199 0.007 0.007 199.200 2.377 12.890 12.880 0.011 0.000 12.91 13.010 13.080 12.880 99.900 100.000 0.007 12.93 13.030 13.100 12.890 12.88 12.990 13.060 12.860 12.920 12.890 12.880 12.860 14.889 14.869 0.015 14.859 14.859 0.000
PRIMET_226 2017-09-29 19:35:00 226 156.7 0.00 185 0.007 0.006 192.700 14.900 12.900 12.890 0.022 0.000 12.92 13.020 13.090 12.890 99.900 100.000 0.007 12.94 13.030 13.100 12.900 12.91 13.000 13.080 12.860 12.910 12.900 12.890 12.860 14.898 14.879 0.015 14.869 14.869 -0.000
PRIMET_226 2017-09-29 19:30:00 226 156.7 0.00 197 0.007 0.007 208.800 1.575 12.870 12.890 0.043 0.002 12.92 13.010 13.080 12.890 99.700 100.000 0.007 12.93 13.030 13.100 12.910 12.90 12.990 13.070 12.880 12.890 12.900 12.850 12.880 14.898 14.850 0.045 14.869 14.869 -0.000
PRIMET_226 2017-09-29 19:25:00 226 156.7 0.00 198 0.007 0.007 207.600 0.079 12.850 12.910 0.082 0.020 12.93 13.010 13.090 12.930 99.400 99.900 0.007 12.94 13.010 13.100 12.950 12.92 13.000 13.080 12.900 12.870 12.910 12.820 12.890 14.908 14.830 0.089 14.908 14.889 0.015
PRIMET_226 2017-09-29 19:20:00 226 156.7 0.00 198 0.007 0.007 207.600 0.079 12.910 12.940 0.096 0.043 13.00 13.050 13.140 12.980 99.400 99.700 0.007 13.04 13.100 13.170 13.000 12.95 13.000 13.090 12.950 12.940 12.960 12.840 12.910 14.976 14.889 0.090 14.957 14.918 0.045
PRIMET_226 2017-09-29 19:15:00 226 156.7 0.00 197 0.007 0.007 207.600 0.079 13.010 12.990 0.078 0.046 13.09 13.150 13.210 13.040 99.500 99.700 0.007 13.13 13.190 13.260 13.070 13.04 13.100 13.160 12.990 13.060 13.040 12.950 12.940 15.065 14.986 0.075 15.016 14.967 0.045
PRIMET_226 2017-09-29 19:10:00 226 156.7 0.00 193 0.007 0.007 207.600 0.084 13.030 13.030 0.084 0.036 13.11 13.180 13.240 13.070 99.400 99.800 0.007 13.13 13.200 13.270 13.080 13.09 13.160 13.220 13.050 13.060 13.050 12.990 13.010 15.085 15.006 0.091 15.045 15.006 0.030
PRIMET_226 2017-09-29 19:05:00 226 156.7 0.00 198 0.007 0.007 206.500 0.358 13.050 13.030 0.091 0.057 13.14 13.190 13.260 13.080 99.400 99.600 0.007 13.16 13.220 13.280 13.120 13.12 13.170 13.230 13.040 13.070 13.060 13.030 12.990 15.114 15.025 0.091 15.055 15.006 0.060
PRIMET_226 2017-09-29 19:00:00 226 156.7 0.00 199 0.007 0.007 206.000 0.310 13.040 13.040 0.124 0.085 13.17 13.220 13.290 13.130 99.200 99.400 0.007 13.19 13.250 13.320 13.160 13.16 13.200 13.270 13.110 13.060 13.060 13.030 13.020 15.144 15.016 0.121 15.104 15.016 0.091
PRIMET_226 2017-09-29 18:55:00 226 156.7 0.00 195 0.368 0.368 206.100 1.074 13.070 13.100 0.171 0.122 13.25 13.310 13.380 13.220 98.900 99.200 0.686 13.31 13.380 13.450 13.290 13.18 13.260 13.330 13.170 13.130 13.160 13.030 13.060 15.223 15.045 0.167 15.193 15.075 0.122
PRIMET_226 2017-09-29 18:50:00 226 156.7 0.00 194 0.034 0.034 217.700 9.000 13.260 13.210 0.135 0.114 13.40 13.480 13.530 13.320 99.100 99.300 0.555 13.43 13.510 13.560 13.340 13.34 13.390 13.470 13.290 13.310 13.240 13.160 13.160 15.373 15.233 0.138 15.293 15.183 0.107
PRIMET_226 2017-09-29 18:45:00 226 156.7 0.00 200 0.007 0.007 237.700 0.063 13.260 13.200 0.122 0.103 13.38 13.470 13.520 13.310 99.200 99.300 0.007 13.40 13.490 13.540 13.320 13.37 13.460 13.510 13.300 13.270 13.210 13.250 13.190 15.353 15.233 0.123 15.283 15.173 0.107
PRIMET_226 2017-09-29 18:40:00 226 156.7 0.00 198 0.007 0.007 237.700 0.040 13.240 13.210 0.124 0.098 13.36 13.450 13.520 13.310 99.200 99.400 0.007 13.38 13.470 13.530 13.330 13.34 13.430 13.510 13.300 13.260 13.230 13.210 13.190 15.333 15.213 0.123 15.283 15.183 0.092
PRIMET_226 2017-09-29 18:35:00 226 156.7 0.00 198 0.007 0.007 238.000 0.553 13.190 13.170 0.157 0.125 13.35 13.430 13.500 13.300 99.000 99.200 0.007 13.36 13.450 13.500 13.310 13.33 13.420 13.490 13.290 13.210 13.190 13.170 13.150 15.323 15.164 0.153 15.273 15.144 0.122
PRIMET_226 2017-09-29 18:30:00 226 156.7 0.00 194 0.007 0.007 240.400 0.181 13.200 13.160 0.166 0.150 13.37 13.440 13.500 13.310 98.900 99.000 0.007 13.38 13.450 13.510 13.320 13.36 13.420 13.490 13.300 13.220 13.170 13.190 13.140 15.343 15.173 0.169 15.283 15.134 0.153
PRIMET_226 2017-09-29 18:25:00 226 156.7 0.00 194 0.007 0.007 240.400 0.063 13.160 13.150 0.195 0.164 13.36 13.420 13.490 13.310 98.700 98.900 0.007 13.38 13.430 13.500 13.330 13.35 13.400 13.470 13.300 13.200 13.160 13.140 13.130 15.333 15.134 0.199 15.283 15.124 0.168
PRIMET_226 2017-09-29 18:20:00 226 156.7 0.00 195 0.007 0.007 240.700 0.097 13.160 13.130 0.228 0.198 13.39 13.420 13.500 13.330 98.500 98.700 0.007 13.42 13.450 13.520 13.360 13.37 13.410 13.480 13.320 13.200 13.160 13.140 13.120 15.363 15.134 0.230 15.303 15.104 0.199
PRIMET_226 2017-09-29 18:15:00 226 156.7 0.00 197 0.007 0.007 240.700 0.063 13.170 13.140 0.244 0.228 13.42 13.440 13.510 13.370 98.400 98.500 0.007 13.43 13.450 13.520 13.390 13.40 13.430 13.500 13.350 13.200 13.160 13.150 13.130 15.393 15.144 0.246 15.343 15.114 0.230
PRIMET_226 2017-09-29 18:10:00 226 156.7 0.00 199 0.007 0.007 240.700 0.069 13.120 13.130 0.310 0.285 13.43 13.440 13.520 13.410 98.000 98.100 0.007 13.46 13.460 13.550 13.440 13.42 13.420 13.510 13.390 13.140 13.140 13.110 13.120 15.403 15.094 0.308 15.383 15.104 0.292
PRIMET_226 2017-09-29 18:05:00 226 156.7 0.00 198 0.007 0.007 240.700 0.063 13.120 13.130 0.362 0.338 13.49 13.470 13.560 13.470 97.700 97.800 0.007 13.54 13.500 13.580 13.500 13.46 13.450 13.540 13.430 13.150 13.140 13.110 13.120 15.463 15.094 0.356 15.443 15.104 0.340
PRIMET_226 2017-09-29 18:00:00 226 156.7 0.00 185 0.007 0.007 240.700 0.074 13.150 13.170 0.456 0.402 13.61 13.570 13.660 13.570 97.100 97.400 0.007 13.70 13.650 13.730 13.640 13.53 13.490 13.580 13.520 13.200 13.210 13.110 13.140 15.585 15.124 0.452 15.544 15.144 0.404
PRIMET_226 2017-09-29 17:55:00 226 156.7 0.00 198 0.007 0.007 240.700 0.069 13.220 13.230 0.580 0.476 13.79 13.730 13.800 13.710 96.300 97.000 0.007 13.89 13.800 13.870 13.790 13.70 13.660 13.730 13.640 13.240 13.270 13.190 13.200 15.768 15.193 0.583 15.686 15.203 0.471
PRIMET_226 2017-09-29 17:50:00 226 156.7 0.00 193 0.007 0.007 240.700 0.069 13.350 13.350 0.669 0.529 14.01 13.930 13.980 13.880 95.800 96.700 0.007 14.09 14.030 14.070 13.940 13.91 13.810 13.880 13.790 13.420 13.420 13.260 13.270 15.995 15.323 0.672 15.861 15.323 0.523
PRIMET_226 2017-09-29 17:45:00 226 156.7 0.00 198 0.007 0.007 240.700 0.074 13.490 13.450 0.693 0.575 14.16 14.100 14.150 14.010 95.700 96.400 0.007 14.23 14.180 14.230 14.090 14.11 14.030 14.070 13.950 13.550 13.520 13.450 13.410 16.151 15.463 0.695 15.995 15.423 0.576
PRIMET_226 2017-09-29 17:40:00 226 156.7 0.00 194 0.007 0.007 240.700 0.056 13.610 13.550 0.690 0.597 14.28 14.230 14.280 14.130 95.800 96.300 0.007 14.34 14.300 14.350 14.210 14.24 14.180 14.230 14.080 13.690 13.620 13.560 13.510 16.277 15.585 0.684 16.120 15.524 0.596
PRIMET_226 2017-09-29 17:35:00 226 156.7 0.00 197 0.007 0.007 240.700 0.074 13.780 13.670 0.641 0.608 14.39 14.360 14.410 14.260 96.100 96.300 0.007 14.43 14.420 14.450 14.300 14.35 14.310 14.350 14.200 13.830 13.720 13.700 13.610 16.394 15.758 0.639 16.256 15.646 0.601
PRIMET_226 2017-09-29 17:30:00 226 156.7 0.00 189 0.007 0.007 240.700 0.084 13.880 13.770 0.619 0.596 14.47 14.460 14.510 14.350 96.200 96.400 0.007 14.52 14.510 14.550 14.380 14.43 14.410 14.460 14.290 13.910 13.820 13.820 13.710 16.479 15.861 0.626 16.351 15.748 0.589
PRIMET_226 2017-09-29 17:25:00 226 156.7 0.00 199 0.007 0.007 242.100 1.098 13.890 13.760 0.715 0.674 14.57 14.560 14.590 14.410 95.700 95.900 0.007 14.60 14.600 14.640 14.440 14.52 14.510 14.550 14.370 13.910 13.800 13.860 13.670 16.586 15.871 0.713 16.415 15.737 0.673
PRIMET_226 2017-09-29 17:20:00 226 156.7 0.00 189 0.007 0.007 242.200 0.703 13.870 13.790 0.830 0.739 14.65 14.640 14.690 14.490 95.000 95.500 0.007 14.71 14.690 14.730 14.540 14.59 14.590 14.630 14.440 13.930 13.860 13.790 13.680 16.671 15.850 0.834 16.500 15.768 0.743
PRIMET_226 2017-09-29 17:15:00 226 156.7 0.00 193 0.007 0.007 241.900 0.925 13.960 13.870 0.842 0.753 14.75 14.720 14.760 14.590 95.000 95.500 0.007 14.82 14.770 14.790 14.620 14.70 14.680 14.730 14.550 14.000 13.890 13.900 13.840 16.779 15.943 0.839 16.607 15.850 0.747
PRIMET_226 2017-09-29 17:10:00 226 156.7 0.00 197 0.007 0.007 250.000 0.605 13.920 13.770 1.049 0.920 14.91 14.820 14.840 14.650 93.800 94.500 0.007 15.01 14.900 14.920 14.730 14.82 14.750 14.780 14.590 14.090 13.890 13.780 13.670 16.953 15.902 1.051 16.671 15.748 0.917
PRIMET_226 2017-09-29 17:05:00 226 156.7 0.00 197 0.007 0.007 250.300 0.088 14.060 13.870 1.021 0.967 15.02 14.920 14.950 14.780 94.000 94.300 0.007 15.07 14.950 15.010 14.870 14.98 14.890 14.920 14.720 14.120 13.890 13.940 13.850 17.074 16.047 1.024 16.812 15.850 0.958
PRIMET_226 2017-09-29 17:00:00 226 156.7 0.00 193 0.007 0.007 250.300 0.384 14.040 13.970 1.213 1.078 15.17 15.080 15.130 14.980 93.000 93.700 0.007 15.24 15.160 15.200 15.050 15.08 14.960 15.030 14.870 14.170 14.090 13.930 13.880 17.239 16.026 1.207 17.030 15.954 1.073
PRIMET_226 2017-09-29 16:55:00 226 156.7 0.00 202 0.007 0.007 252.600 0.310 13.960 13.870 1.491 1.398 15.34 15.250 15.300 15.180 91.400 91.900 0.007 15.47 15.350 15.410 15.310 15.27 15.170 15.200 15.050 14.030 13.940 13.900 13.810 17.429 15.943 1.499 17.250 15.850 1.397
PRIMET_226 2017-09-29 16:50:00 226 156.7 0.00 192 0.041 0.040 266.800 8.180 13.990 13.800 1.802 1.825 15.65 15.560 15.600 15.500 89.900 89.600 0.503 15.80 15.750 15.780 15.640 15.49 15.360 15.420 15.330 14.110 13.870 13.750 13.670 17.779 15.974 1.796 17.609 15.778 1.831
PRIMET_226 2017-09-29 16:45:00 226 156.7 0.00 197 0.467 0.438 233.400 20.190 13.380 13.180 2.717 2.749 15.90 15.880 15.930 15.760 85.000 84.700 0.987 15.99 16.010 16.040 15.830 15.79 15.760 15.800 15.660 13.660 13.580 12.940 12.840 18.065 15.353 2.710 17.904 15.154 2.739
PRIMET_226 2017-09-29 16:40:00 226 156.7 0.00 208 0.356 0.337 213.800 18.580 13.250 12.880 2.886 3.059 15.94 15.930 15.970 15.780 84.100 82.900 0.987 15.97 15.990 16.030 15.820 15.90 15.880 15.930 15.740 13.620 13.110 12.860 12.700 18.112 15.223 2.880 17.927 14.859 3.066
PRIMET_226 2017-09-29 16:35:00 226 156.7 0.00 199 0.401 0.378 227.200 19.330 13.300 13.140 2.794 2.819 15.91 15.950 15.980 15.790 84.500 84.300 1.045 15.93 15.980 16.000 15.820 15.88 15.920 15.960 15.760 13.770 13.490 12.710 12.680 18.077 15.273 2.802 17.939 15.114 2.816
PRIMET_226 2017-09-29 16:30:00 226 156.7 0.00 198 0.470 0.459 223.900 12.490 13.440 13.170 2.680 2.853 15.92 15.950 15.980 15.840 85.200 84.100 1.882 16.02 16.020 16.070 15.900 15.86 15.880 15.910 15.780 13.900 13.520 12.800 12.700 18.088 15.413 2.677 17.996 15.144 2.861
PRIMET_226 2017-09-29 16:25:00 226 156.7 0.00 192 0.139 0.136 216.000 10.570 13.870 13.480 2.421 2.642 16.08 16.090 16.120 15.930 86.700 85.400 0.529 16.12 16.120 16.150 15.970 16.03 16.050 16.070 15.890 14.040 13.740 13.680 13.050 18.274 15.850 2.430 18.100 15.453 2.643
PRIMET_226 2017-09-29 16:20:00 226 156.7 0.00 204 0.022 0.022 205.200 0.137 13.720 13.460 2.615 2.712 16.11 16.100 16.140 15.970 85.700 85.100 0.281 16.13 16.140 16.180 16.010 16.09 16.060 16.100 15.930 13.930 13.590 13.180 13.180 18.309 15.697 2.618 18.146 15.433 2.704
PRIMET_226 2017-09-29 16:15:00 226 156.7 0.00 341 0.362 0.192 249.800 55.440 13.140 12.830 3.230 3.393 16.15 16.170 16.220 16.020 82.400 81.400 0.921 16.16 16.230 16.270 16.040 16.11 16.100 16.160 15.970 13.730 13.470 12.650 12.550 18.356 15.114 3.231 18.204 14.811 3.386
PRIMET_226 2017-09-29 16:10:00 226 156.7 0.00 196 0.045 0.041 190.400 23.680 12.680 12.510 3.657 3.674 16.12 16.180 16.220 16.000 80.000 79.790 0.307 16.17 16.240 16.270 16.040 16.10 16.130 16.170 15.980 13.250 12.700 12.520 12.450 18.321 14.666 3.664 18.181 14.503 3.674
PRIMET_226 2017-09-29 16:05:00 226 156.7 0.00 195 0.145 0.082 191.600 53.460 13.680 13.400 2.750 2.867 16.19 16.170 16.220 16.050 85.100 84.300 0.608 16.25 16.290 16.320 16.120 16.10 16.080 16.150 15.970 14.090 13.810 12.570 12.480 18.403 15.656 2.742 18.239 15.373 2.864
PRIMET_226 2017-09-29 16:00:00 226 156.7 0.00 195 0.467 0.411 240.100 28.160 12.870 12.710 3.589 3.627 16.22 16.250 16.290 16.120 80.500 80.200 1.875 16.24 16.280 16.310 16.190 16.20 16.220 16.270 16.080 13.550 13.370 12.410 12.390 18.438 14.850 3.595 18.321 14.695 3.628
PRIMET_226 2017-09-29 15:55:00 226 156.7 0.00 193 0.217 0.216 236.800 7.079 13.290 13.000 3.359 3.542 16.38 16.410 16.450 16.290 82.000 80.900 0.647 16.43 16.480 16.500 16.320 16.28 16.280 16.310 16.230 13.920 13.580 12.670 12.490 18.627 15.263 3.353 18.521 14.976 3.537
PRIMET_226 2017-09-29 15:50:00 226 156.7 0.00 198 0.795 0.682 223.200 30.570 12.740 12.630 3.991 3.983 16.45 16.490 16.530 16.360 78.680 78.590 1.352 16.55 16.600 16.630 16.420 16.38 16.430 16.480 16.310 13.280 13.090 12.390 12.340 18.710 14.724 3.989 18.603 14.618 3.983
PRIMET_226 2017-09-29 15:45:00 226 156.7 0.00 199 0.640 0.440 200.200 45.300 12.670 12.620 4.274 4.167 16.64 16.670 16.700 16.510 77.430 77.810 2.862 16.78 16.840 16.860 16.670 16.55 16.600 16.630 16.410 13.410 13.270 12.510 12.390 18.938 14.656 4.274 18.782 14.608 4.168
PRIMET_226 2017-09-29 15:40:00 226 156.7 0.00 205 0.563 0.518 216.200 22.740 13.030 12.740 4.081 4.162 16.76 16.850 16.850 16.600 78.610 77.960 1.509 16.81 16.940 16.930 16.670 16.71 16.750 16.750 16.520 13.760 13.260 12.610 12.430 19.083 15.006 4.082 18.890 14.724 4.163
PRIMET_226 2017-09-29 15:35:00 226 156.7 0.00 201 0.887 0.795 224.600 26.070 13.310 12.960 3.676 3.867 16.66 16.750 16.750 16.530 80.600 79.440 2.548 16.72 16.790 16.780 16.550 16.63 16.690 16.690 16.520 14.060 13.600 12.770 12.570 18.962 15.283 3.679 18.806 14.937 3.866
PRIMET_226 2017-09-29 15:30:00 226 156.7 0.00 210 0.770 0.726 227.000 19.370 13.160 12.940 3.801 3.858 16.65 16.760 16.770 16.510 79.940 79.450 1.679 16.70 16.830 16.830 16.580 16.56 16.650 16.650 16.410 14.110 13.530 12.620 12.630 18.950 15.134 3.801 18.782 14.918 3.860
PRIMET_226 2017-09-29 15:25:00 226 156.7 0.00 200 0.598 0.561 222.400 20.390 13.460 13.150 3.321 3.466 16.49 16.570 16.570 16.350 82.300 81.400 1.640 16.55 16.650 16.650 16.410 16.43 16.480 16.500 16.320 14.050 13.650 12.820 12.600 18.758 15.433 3.320 18.592 15.124 3.458
PRIMET_226 2017-09-29 15:20:00 226 156.7 0.00 196 0.492 0.479 224.900 13.050 13.490 13.250 3.249 3.336 16.46 16.520 16.530 16.330 82.600 82.000 1.294 16.48 16.570 16.560 16.360 16.43 16.450 16.490 16.300 14.220 14.010 12.670 12.590 18.722 15.463 3.258 18.568 15.223 3.342
PRIMET_226 2017-09-29 15:15:00 226 156.7 0.00 195 0.512 0.383 237.700 40.750 13.650 13.230 3.141 3.353 16.51 16.560 16.550 16.330 83.300 81.900 1.477 16.55 16.620 16.600 16.360 16.45 16.490 16.500 16.280 14.380 13.860 12.820 12.690 18.782 15.625 3.137 18.568 15.203 3.361
PRIMET_226 2017-09-29 15:10:00 226 156.7 0.00 200 0.261 0.251 223.400 15.640 13.890 13.670 2.905 2.973 16.51 16.530 16.550 16.370 84.500 84.000 0.973 16.55 16.580 16.600 16.420 16.47 16.470 16.520 16.330 14.360 14.140 13.120 13.050 18.782 15.871 2.911 18.615 15.646 2.978
PRIMET_226 2017-09-29 15:05:00 226 156.7 0.00 188 0.071 0.071 222.000 2.404 14.080 13.900 2.802 2.858 16.59 16.640 16.670 16.470 85.200 84.700 0.366 16.64 16.710 16.740 16.510 16.53 16.560 16.600 16.410 14.240 14.070 13.630 13.650 18.878 16.068 2.794 18.734 15.881 2.866
PRIMET_226 2017-09-29 15:00:00 226 156.7 0.00 203 0.176 0.171 228.900 13.790 13.950 13.630 3.085 3.271 16.71 16.750 16.770 16.590 83.800 82.700 0.444 16.81 16.840 16.880 16.710 16.65 16.700 16.740 16.500 14.410 14.250 12.970 12.740 19.022 15.933 3.082 18.878 15.605 3.266
PRIMET_226 2017-09-29 14:55:00 226 156.7 0.00 190 0.510 0.462 204.200 24.730 13.880 13.570 3.391 3.537 16.91 16.950 16.970 16.770 82.400 81.500 1.568 16.95 17.030 17.030 16.800 16.82 16.830 16.870 16.700 14.500 14.300 12.700 12.580 19.265 15.861 3.391 19.095 15.544 3.533
PRIMET_226 2017-09-29 14:50:00 226 156.7 0.00 201 0.172 0.161 226.800 19.930 14.220 13.680 3.082 3.475 16.93 17.010 17.020 16.800 84.000 81.800 0.751 16.98 17.100 17.080 16.850 16.90 16.960 16.990 16.760 14.520 14.380 13.340 12.770 19.290 16.214 3.086 19.131 15.656 3.482
PRIMET_226 2017-09-29 14:45:00 226 156.7 0.00 208 0.984 0.958 226.200 13.050 12.900 12.740 4.372 4.377 16.90 17.040 17.030 16.780 77.290 77.090 1.575 16.98 17.140 17.110 16.840 16.82 16.970 16.960 16.720 13.770 13.600 12.410 12.360 19.253 14.879 4.372 19.107 14.724 4.377
PRIMET_226 2017-09-29 14:40:00 226 156.7 0.00 203 0.275 0.269 215.500 12.070 13.940 13.750 3.177 3.234 16.79 16.930 16.910 16.670 83.400 82.900 1.529 16.87 17.050 17.030 16.780 16.72 16.820 16.800 16.580 15.090 14.880 12.970 13.060 19.119 15.923 3.174 18.974 15.727 3.245
PRIMET_226 2017-09-29 14:35:00 226 156.7 0.00 207 0.054 0.054 209.800 2.018 14.520 14.390 2.422 2.419 16.65 16.760 16.750 16.540 87.200 87.100 0.379 16.73 16.880 16.860 16.620 16.59 16.660 16.670 16.460 14.950 14.880 13.730 13.610 18.950 16.532 2.426 18.818 16.394 2.427
PRIMET_226 2017-09-29 14:30:00 226 156.7 0.00 194 0.415 0.347 188.000 32.660 14.080 13.920 2.834 2.805 16.62 16.640 16.650 16.460 85.000 85.000 1.503 16.70 16.730 16.740 16.520 16.56 16.520 16.550 16.400 14.840 14.790 12.910 12.720 18.914 16.068 2.837 18.722 15.902 2.808
PRIMET_226 2017-09-29 14:25:00 226 156.7 0.00 194 0.024 0.024 208.800 0.207 14.780 14.660 2.327 2.247 16.81 16.830 16.840 16.640 87.800 88.100 0.333 16.86 16.940 16.930 16.690 16.71 16.690 16.710 16.510 14.940 14.860 14.670 14.500 19.143 16.812 2.335 18.938 16.682 2.254
PRIMET_226 2017-09-29 14:20:00 226 156.7 0.00 196 0.648 0.571 208.200 27.950 13.670 13.570 3.437 3.331 16.78 16.860 16.850 16.610 82.000 82.400 1.444 16.86 16.980 16.940 16.670 16.74 16.750 16.770 16.560 14.870 14.580 12.370 12.350 19.107 15.646 3.439 18.902 15.544 3.327
PRIMET_226 2017-09-29 14:15:00 226 156.7 0.00 197 0.184 0.183 215.200 6.762 14.870 14.720 2.263 2.167 16.84 16.850 16.820 16.620 88.200 88.500 0.784 16.86 16.920 16.870 16.660 16.79 16.770 16.780 16.600 15.150 15.050 13.420 13.630 19.180 16.910 2.263 18.914 16.747 2.175
PRIMET_226 2017-09-29 14:10:00 226 156.7 0.00 229 0.213 0.186 233.300 28.670 14.520 14.320 2.656 2.705 16.85 16.930 16.910 16.720 86.200 85.800 0.836 16.88 16.980 16.980 16.780 16.82 16.870 16.830 16.620 14.930 14.710 13.100 13.270 19.192 16.532 2.648 19.034 16.320 2.703
PRIMET_226 2017-09-29 14:05:00 226 156.7 0.00 202 0.271 0.258 224.500 17.820 14.410 13.990 2.951 3.225 17.00 17.030 17.030 16.860 84.800 83.200 0.745 17.13 17.090 17.080 16.960 16.89 16.920 16.950 16.800 14.850 14.700 13.750 12.910 19.375 16.415 2.945 19.204 15.974 3.226
PRIMET_226 2017-09-29 14:00:00 226 156.7 0.00 197 0.325 0.273 218.100 32.190 13.990 13.890 3.629 3.534 17.20 17.240 17.220 17.040 81.500 81.800 1.503 17.23 17.330 17.300 17.090 17.16 17.080 17.090 16.970 14.840 14.960 12.710 12.550 19.622 15.974 3.630 19.425 15.871 3.535
PRIMET_226 2017-09-29 13:55:00 226 156.7 0.00 210 0.271 0.255 213.500 19.950 14.170 14.000 3.601 3.573 17.32 17.360 17.350 17.160 81.800 81.700 0.719 17.37 17.470 17.460 17.210 17.24 17.230 17.230 17.090 14.860 14.760 12.870 12.770 19.772 16.162 3.598 19.573 15.985 3.582
PRIMET_226 2017-09-29 13:50:00 226 156.7 0.00 201 0.656 0.461 232.700 44.130 12.910 12.790 4.932 4.804 17.36 17.430 17.400 17.170 75.130 75.470 2.176 17.40 17.500 17.460 17.210 17.33 17.380 17.360 17.120 14.290 13.940 12.160 12.210 19.822 14.889 4.930 19.585 14.772 4.804
PRIMET_226 2017-09-29 13:45:00 226 156.7 0.00 206 0.661 0.643 215.300 13.420 13.870 13.630 4.044 4.078 17.44 17.490 17.480 17.260 79.690 79.290 2.430 17.50 17.610 17.600 17.320 17.38 17.420 17.400 17.180 14.920 14.630 12.510 12.420 19.922 15.850 4.046 19.697 15.605 4.079
PRIMET_226 2017-09-29 13:40:00 226 156.7 0.00 193 0.505 0.484 220.900 16.570 13.480 13.250 4.358 4.432 17.36 17.460 17.470 17.230 78.010 77.450 2.025 17.43 17.530 17.510 17.280 17.31 17.400 17.410 17.170 14.540 14.110 12.410 12.360 19.822 15.453 4.359 19.660 15.223 4.433
PRIMET_226 2017-09-29 13:35:00 226 156.7 0.00 196 0.669 0.590 205.900 27.850 13.260 13.180 4.532 4.455 17.32 17.410 17.390 17.190 77.080 77.290 1.424 17.37 17.510 17.490 17.240 17.26 17.320 17.300 17.150 14.090 13.890 12.720 12.700 19.772 15.233 4.532 19.610 15.154 4.453
PRIMET_226 2017-09-29 13:30:00 226 156.7 0.00 243 0.579 0.528 209.300 24.060 13.280 13.220 4.509 4.399 17.31 17.450 17.420 17.180 77.180 77.550 1.281 17.37 17.510 17.490 17.250 17.25 17.340 17.300 17.090 13.990 14.010 12.780 12.650 19.759 15.253 4.509 19.597 15.193 4.400
PRIMET_226 2017-09-29 13:25:00 226 156.7 0.00 199 0.540 0.445 238.900 34.010 13.270 13.080 4.470 4.399 17.28 17.300 17.240 17.070 77.330 77.400 1.274 17.31 17.380 17.300 17.120 17.24 17.240 17.190 17.020 14.080 13.880 12.690 12.610 19.722 15.243 4.471 19.461 15.055 4.398
PRIMET_226 2017-09-29 13:20:00 226 156.7 0.00 230 0.906 0.782 223.200 29.930 12.930 12.850 5.050 4.897 17.47 17.510 17.460 17.290 74.710 75.190 2.528 17.56 17.600 17.530 17.360 17.35 17.270 17.220 17.160 13.960 13.780 12.410 12.380 19.960 14.908 5.048 19.734 14.830 4.896
PRIMET_226 2017-09-29 13:15:00 226 156.7 0.00 208 0.959 0.721 258.500 40.340 13.030 12.820 5.302 5.293 17.75 17.830 17.760 17.570 73.910 73.660 2.247 17.92 18.020 17.960 17.790 17.57 17.560 17.520 17.390 14.240 13.850 12.460 12.470 20.316 15.006 5.300 20.086 14.801 5.291
PRIMET_226 2017-09-29 13:10:00 226 156.7 0.00 198 0.676 0.507 233.700 40.420 13.440 13.100 5.238 5.334 18.02 18.220 18.120 17.830 74.660 73.870 1.339 18.14 18.380 18.250 17.940 17.78 18.040 17.940 17.660 14.280 13.770 12.690 12.770 20.664 15.413 5.236 20.418 15.075 5.335
PRIMET_226 2017-09-29 13:05:00 226 156.7 0.00 195 0.494 0.356 266.500 42.890 13.510 13.240 4.727 4.902 17.68 17.990 17.940 17.600 76.640 75.640 1.470 17.77 18.100 18.020 17.660 17.56 17.860 17.820 17.510 14.670 14.200 12.390 12.570 20.226 15.483 4.725 20.124 15.213 4.902
PRIMET_226 2017-09-29 13:00:00 226 156.7 0.00 204 0.374 0.306 202.300 34.350 13.520 13.370 4.270 4.303 17.33 17.610 17.560 17.230 78.390 78.090 0.947 17.52 17.840 17.830 17.470 17.18 17.320 17.270 17.030 14.620 14.520 12.250 12.300 19.784 15.494 4.275 19.660 15.343 4.307
PRIMET_226 2017-09-29 12:55:00 226 156.7 0.00 248 0.942 0.842 223.200 26.330 13.010 12.850 4.695 4.673 17.26 17.430 17.340 17.110 76.190 76.050 1.986 17.38 17.550 17.410 17.160 17.11 17.310 17.270 17.040 14.670 14.260 12.140 12.170 19.697 14.986 4.690 19.511 14.830 4.673
PRIMET_226 2017-09-29 12:50:00 226 156.7 0.00 233 0.988 0.924 224.200 20.600 13.300 13.090 4.023 4.170 16.94 17.150 17.120 16.890 79.160 78.320 2.247 17.06 17.290 17.240 17.010 16.89 17.060 17.050 16.820 14.060 13.920 12.400 12.360 19.302 15.273 4.022 19.241 15.065 4.171
PRIMET_226 2017-09-29 12:45:00 226 156.7 0.00 199 0.301 0.281 216.200 20.930 12.410 12.390 4.702 4.645 16.78 17.000 16.970 16.720 75.390 75.600 1.032 16.92 17.140 17.110 16.820 16.68 16.850 16.830 16.650 13.020 13.090 12.080 12.080 19.107 14.408 4.702 19.034 14.389 4.644
PRIMET_226 2017-09-29 12:40:00 226 156.7 0.00 218 1.075 1.043 222.800 14.030 13.060 12.740 4.039 4.324 16.77 16.940 16.920 16.730 78.840 77.300 2.247 16.82 17.040 17.000 16.770 16.68 16.840 16.820 16.670 14.150 13.530 12.070 12.090 19.095 15.035 4.040 19.046 14.724 4.324
PRIMET_226 2017-09-29 12:35:00 226 156.7 0.00 201 0.894 0.793 227.600 27.240 12.730 12.560 4.481 4.540 16.86 17.030 17.030 16.770 76.660 76.220 1.718 16.90 17.120 17.100 16.790 16.79 16.930 16.940 16.750 13.840 13.140 12.100 12.140 19.204 14.714 4.482 19.095 14.551 4.541
PRIMET_226 2017-09-29 12:30:00 226 156.7 0.00 209 0.495 0.453 237.400 23.390 12.870 12.590 4.166 4.364 16.71 16.910 16.920 16.650 78.100 76.960 1.960 16.89 17.110 17.130 16.780 16.56 16.680 16.730 16.530 13.600 13.160 12.240 12.250 19.022 14.850 4.166 18.950 14.579 4.366
PRIMET_226 2017-09-29 12:25:00 226 156.7 0.00 200 0.571 0.492 254.500 30.040 13.030 12.570 3.707 4.140 16.46 16.630 16.640 16.440 80.200 77.870 1.437 16.57 16.690 16.710 16.510 16.39 16.550 16.560 16.400 13.900 13.500 12.020 12.220 18.722 15.006 3.707 18.698 14.560 4.138
PRIMET_226 2017-09-29 12:20:00 226 156.7 0.00 198 0.520 0.451 238.300 29.580 12.670 12.630 4.054 4.047 16.46 16.680 16.660 16.410 78.340 78.320 1.888 16.51 16.760 16.730 16.480 16.42 16.610 16.610 16.370 13.930 14.020 12.150 12.220 18.722 14.656 4.055 18.663 14.618 4.046
PRIMET_226 2017-09-29 12:15:00 226 156.7 0.00 196 0.660 0.138 170.200 72.060 13.490 13.390 3.352 3.417 16.55 16.770 16.750 16.520 82.200 81.800 1.241 16.61 16.930 16.890 16.640 16.45 16.660 16.670 16.390 14.460 14.420 12.650 12.620 18.830 15.463 3.352 18.794 15.363 3.420
PRIMET_226 2017-09-29 12:10:00 226 156.7 0.00 232 0.438 0.427 222.400 12.620 13.680 13.660 3.278 3.167 16.64 16.970 16.890 16.530 82.700 83.200 0.895 16.72 17.090 16.960 16.620 16.56 16.900 16.820 16.400 14.540 14.310 12.820 13.150 18.938 15.656 3.276 18.806 15.635 3.159
PRIMET_226 2017-09-29 12:05:00 226 156.7 0.00 199 0.236 0.198 231.400 32.420 14.340 14.210 2.304 2.350 16.39 16.710 16.660 16.320 87.600 87.300 0.588 16.56 16.880 16.790 16.430 16.23 16.480 16.440 16.180 14.720 14.490 13.580 13.550 18.639 16.341 2.311 18.556 16.204 2.357
PRIMET_226 2017-09-29 12:00:00 226 156.7 0.00 195 0.729 0.713 230.300 12.120 13.860 13.720 2.658 2.755 16.28 16.510 16.470 16.240 85.600 85.100 1.352 16.41 16.670 16.590 16.350 16.21 16.430 16.400 16.170 14.640 14.470 12.670 12.780 18.509 15.840 2.665 18.462 15.697 2.751
PRIMET_226 2017-09-29 11:55:00 226 156.7 0.00 200 0.862 0.782 229.900 24.590 13.240 13.140 3.551 3.582 16.50 16.720 16.660 16.440 81.100 80.800 1.529 16.66 16.890 16.830 16.630 16.40 16.620 16.550 16.320 13.970 13.850 12.630 12.570 18.770 15.213 3.548 18.698 15.114 3.590
PRIMET_226 2017-09-29 11:50:00 226 156.7 0.00 272 0.800 0.755 215.300 19.060 13.320 13.290 3.971 3.946 16.91 17.180 17.100 16.870 79.390 79.470 1.176 17.10 17.410 17.310 17.020 16.67 16.900 16.830 16.660 13.880 14.120 12.730 12.800 19.265 15.293 3.971 19.216 15.263 3.945
PRIMET_226 2017-09-29 11:45:00 226 156.7 0.00 203 0.778 0.745 216.400 16.700 13.050 13.100 4.506 4.337 17.13 17.480 17.330 17.040 76.930 77.670 1.222 17.21 17.650 17.450 17.070 17.08 17.360 17.230 17.000 14.120 13.910 12.430 12.500 19.536 15.025 4.507 19.425 15.075 4.337
PRIMET_226 2017-09-29 11:40:00 226 156.7 0.00 206 0.590 0.583 210.300 8.760 13.220 13.180 4.021 4.030 16.87 17.290 17.160 16.850 79.110 79.040 1.633 17.07 17.530 17.350 17.050 16.60 16.970 16.850 16.560 14.120 14.630 12.460 12.450 19.216 15.193 4.014 19.192 15.154 4.023
PRIMET_226 2017-09-29 11:35:00 226 156.7 0.00 221 1.008 0.986 212.800 12.060 13.010 12.880 3.859 3.914 16.57 16.950 16.800 16.510 79.530 79.160 1.418 16.60 17.100 16.870 16.530 16.51 16.860 16.740 16.490 14.210 14.160 12.320 12.110 18.854 14.986 3.859 18.782 14.859 3.914
PRIMET_226 2017-09-29 11:30:00 226 156.7 0.00 193 0.487 0.464 223.100 17.550 13.730 13.660 3.034 3.049 16.48 17.020 16.860 16.430 83.800 83.700 1.379 16.60 17.160 16.980 16.550 16.24 16.740 16.610 16.220 14.640 14.440 13.220 13.280 18.746 15.707 3.037 18.686 15.635 3.046
PRIMET_226 2017-09-29 11:25:00 226 156.7 0.00 211 0.057 0.057 231.800 4.735 13.840 13.750 2.345 2.384 15.99 16.480 16.310 15.940 87.100 86.800 0.438 16.21 16.790 16.570 16.200 15.79 16.240 16.090 15.760 14.490 14.360 12.920 13.100 18.170 15.819 2.344 18.112 15.727 2.391
PRIMET_226 2017-09-29 11:20:00 226 156.7 0.00 257 0.608 0.593 219.200 12.700 13.360 13.350 2.851 2.911 16.00 16.500 16.350 16.040 84.300 84.000 1.215 16.17 16.900 16.740 16.300 15.79 16.240 16.080 15.770 13.930 13.690 12.850 13.080 18.181 15.333 2.854 18.228 15.323 2.916
PRIMET_226 2017-09-29 11:15:00 226 156.7 0.00 204 0.059 0.058 211.300 10.890 13.030 13.020 2.844 2.880 15.71 16.280 16.140 15.730 84.100 83.900 0.431 16.08 16.770 16.650 16.200 15.19 15.540 15.480 15.120 13.730 13.660 12.610 12.640 17.847 15.006 2.838 17.870 14.996 2.877
PRIMET_226 2017-09-29 11:10:00 226 156.7 0.00 248 0.041 0.041 206.700 0.417 13.540 13.550 1.405 1.273 14.88 15.140 15.120 14.770 91.700 92.400 0.255 15.15 15.490 15.450 15.070 14.66 14.830 14.860 14.550 14.060 14.060 12.740 13.000 16.921 15.514 1.404 16.801 15.524 1.277
PRIMET_226 2017-09-29 11:05:00 226 156.7 0.00 196 0.007 0.007 206.400 0.172 13.270 13.230 1.348 1.276 14.58 14.820 14.820 14.470 91.900 92.300 0.007 14.64 14.860 14.860 14.540 14.55 14.790 14.790 14.440 13.400 13.340 13.170 13.190 16.596 15.243 1.344 16.479 15.203 1.269
PRIMET_226 2017-09-29 11:00:00 226 156.7 0.00 182 0.007 0.007 206.200 0.079 13.580 13.570 1.046 0.962 14.59 14.930 14.860 14.500 93.700 94.200 0.007 14.62 14.960 14.890 14.520 14.50 14.880 14.820 14.460 14.040 13.760 13.200 13.340 16.607 15.554 1.046 16.511 15.544 0.958
PRIMET_226 2017-09-29 10:55:00 226 156.7 0.00 194 0.007 0.007 205.800 0.523 13.610 13.600 0.679 0.765 14.27 14.680 14.630 14.340 95.800 95.300 0.007 14.48 14.920 14.800 14.450 14.17 14.560 14.560 14.290 14.040 13.740 13.350 13.510 16.267 15.585 0.683 16.341 15.574 0.768
PRIMET_226 2017-09-29 10:50:00 226 156.7 0.00 187 0.007 0.007 204.700 0.163 13.560 13.840 0.580 0.419 14.12 14.580 14.570 14.250 96.400 97.400 0.007 14.18 14.660 14.630 14.310 14.02 14.440 14.440 14.110 13.760 14.030 13.360 13.650 16.110 15.534 0.580 16.246 15.819 0.422
PRIMET_226 2017-09-29 10:45:00 226 156.7 0.00 210 0.007 0.007 208.700 0.119 13.580 13.860 0.393 0.227 13.97 14.410 14.410 14.080 97.500 98.600 0.007 14.01 14.450 14.440 14.120 13.93 14.370 14.370 14.030 13.640 13.910 13.530 13.820 15.954 15.554 0.399 16.068 15.840 0.225
PRIMET_226 2017-09-29 10:40:00 226 156.7 0.00 195 0.024 0.023 193.700 5.619 13.450 13.670 0.431 0.298 13.88 14.360 14.340 13.960 97.300 98.100 0.229 13.94 14.420 14.410 14.020 13.80 14.260 14.270 13.880 13.590 13.800 13.290 13.580 15.861 15.423 0.428 15.943 15.646 0.303
PRIMET_226 2017-09-29 10:35:00 226 156.7 0.00 194 0.007 0.006 175.900 8.630 13.540 13.630 0.174 0.137 13.71 14.170 14.150 13.760 98.900 99.100 0.007 13.85 14.310 14.270 13.880 13.54 14.010 14.000 13.650 13.650 13.710 13.340 13.550 15.686 15.514 0.173 15.737 15.605 0.142
PRIMET_226 2017-09-29 10:30:00 226 156.7 0.00 200 0.007 0.007 208.000 2.897 13.040 13.270 0.305 0.199 13.35 13.750 13.780 13.470 98.000 98.700 0.007 13.51 13.990 14.010 13.630 13.27 13.630 13.660 13.380 13.280 13.520 12.970 13.190 15.323 15.016 0.306 15.443 15.243 0.201
PRIMET_226 2017-09-29 10:25:00 226 156.7 0.00 192 0.007 0.006 217.500 10.450 12.810 12.980 0.372 0.266 13.19 13.550 13.560 13.250 97.500 98.300 0.007 13.28 13.650 13.660 13.370 13.09 13.390 13.410 13.140 13.010 13.190 12.610 12.750 15.164 14.791 0.379 15.223 14.957 0.259
PRIMET_226 2017-09-29 10:20:00 226 156.7 0.00 192 0.007 0.007 241.200 0.063 12.620 12.700 0.421 0.393 13.05 13.330 13.360 13.110 97.200 97.400 0.007 13.12 13.380 13.400 13.130 12.98 13.270 13.320 13.070 12.730 12.730 12.500 12.670 15.025 14.608 0.421 15.085 14.685 0.392
PRIMET_226 2017-09-29 10:15:00 226 156.7 0.00 207 0.007 0.007 241.200 0.074 12.540 12.680 0.423 0.371 12.98 13.260 13.300 13.060 97.200 97.500 0.007 13.02 13.300 13.330 13.100 12.93 13.210 13.250 13.050 12.590 12.750 12.490 12.630 14.957 14.532 0.419 15.035 14.666 0.376
PRIMET_226 2017-09-29 10:10:00 226 156.7 0.00 196 0.007 0.007 241.200 0.063 12.430 12.620 0.486 0.417 12.94 13.220 13.270 13.050 96.700 97.200 0.007 12.95 13.250 13.310 13.070 12.92 13.190 13.220 13.020 12.490 12.690 12.360 12.480 14.918 14.427 0.492 15.025 14.608 0.421
PRIMET_226 2017-09-29 10:05:00 226 156.7 0.00 200 0.007 0.007 241.500 0.796 12.270 12.410 0.621 0.601 12.92 13.180 13.240 13.040 95.800 96.000 0.007 12.94 13.190 13.250 13.050 12.90 13.160 13.220 13.020 12.360 12.500 12.180 12.320 14.898 14.276 0.626 15.016 14.408 0.601
PRIMET_226 2017-09-29 10:00:00 226 156.7 0.00 188 0.007 0.007 243.700 0.553 12.170 12.310 0.786 0.812 12.99 13.260 13.350 13.150 94.700 94.600 0.007 13.03 13.390 13.470 13.250 12.96 13.170 13.250 13.060 12.210 12.340 12.130 12.280 14.967 14.182 0.793 15.124 14.314 0.817
PRIMET_226 2017-09-29 09:55:00 226 156.7 0.00 187 0.046 0.037 237.000 36.360 12.000 12.090 0.986 1.138 13.04 13.430 13.500 13.270 93.400 92.500 0.359 13.06 13.470 13.530 13.320 13.01 13.370 13.470 13.240 12.300 12.330 11.620 11.800 15.016 14.025 0.991 15.243 14.108 1.143
PRIMET_226 2017-09-29 09:50:00 226 156.7 0.00 183 0.276 0.270 233.400 11.560 12.330 12.380 0.728 0.910 13.08 13.490 13.540 13.310 95.200 94.000 0.777 13.10 13.550 13.590 13.380 13.05 13.390 13.480 13.250 12.500 12.650 11.940 12.070 15.055 14.333 0.723 15.283 14.380 0.917
PRIMET_226 2017-09-29 09:45:00 226 156.7 0.00 194 0.415 0.391 236.600 19.360 11.930 12.040 1.087 1.241 13.08 13.520 13.580 13.330 92.800 91.900 1.424 13.12 13.580 13.620 13.380 13.05 13.460 13.530 13.300 12.300 12.490 11.590 11.740 15.055 13.960 1.084 15.303 14.062 1.240
PRIMET_226 2017-09-29 09:40:00 226 156.7 0.00 191 0.473 0.468 219.200 8.450 12.340 12.420 0.805 0.930 13.17 13.590 13.640 13.380 94.700 93.900 1.477 13.22 13.690 13.730 13.440 13.14 13.550 13.580 13.340 12.500 12.770 12.130 12.060 15.144 14.342 0.803 15.353 14.418 0.937
PRIMET_226 2017-09-29 09:35:00 226 156.7 0.00 200 0.078 0.078 225.000 4.223 12.160 12.320 1.006 1.079 13.21 13.680 13.720 13.430 93.400 93.000 0.457 13.23 13.720 13.760 13.450 13.18 13.660 13.700 13.420 12.480 12.760 11.890 11.970 15.183 14.173 1.002 15.403 14.323 1.078
PRIMET_226 2017-09-29 09:30:00 226 156.7 0.00 195 0.053 0.052 229.500 10.850 12.010 12.050 1.137 1.301 13.20 13.680 13.720 13.400 92.500 91.500 0.516 13.26 13.740 13.770 13.460 13.15 13.620 13.640 13.320 12.210 12.160 11.750 11.920 15.173 14.034 1.138 15.373 14.071 1.307
PRIMET_226 2017-09-29 09:25:00 226 156.7 0.00 188 0.240 0.186 262.100 38.360 12.170 12.130 0.872 1.092 13.08 13.580 13.610 13.260 94.200 92.800 0.836 13.15 13.660 13.680 13.320 12.98 13.510 13.540 13.180 12.470 12.540 12.010 11.960 15.055 14.182 0.873 15.233 14.145 1.097
PRIMET_226 2017-09-29 09:20:00 226 156.7 0.00 222 0.397 0.317 239.600 36.410 11.950 12.070 0.810 0.924 12.81 13.370 13.410 13.040 94.500 93.800 1.078 12.96 13.490 13.520 13.160 12.66 13.230 13.270 12.890 12.340 12.300 11.700 11.960 14.791 13.978 0.814 15.016 14.089 0.931
PRIMET_226 2017-09-29 09:15:00 226 156.7 0.00 189 0.700 0.655 222.800 20.550 12.130 12.240 0.411 0.527 12.56 13.150 13.180 12.790 97.200 96.400 1.490 12.63 13.230 13.270 12.890 12.46 13.080 13.120 12.690 12.280 12.360 11.780 12.020 14.551 14.145 0.407 14.772 14.248 0.532
PRIMET_226 2017-09-29 09:10:00 226 156.7 0.00 196 0.185 0.171 213.900 22.640 12.300 12.370 0.043 0.183 12.35 12.930 12.980 12.560 99.700 98.700 0.973 12.45 13.050 13.090 12.680 12.24 12.720 12.780 12.390 12.380 12.530 12.240 12.240 14.351 14.304 0.043 14.551 14.370 0.189
PRIMET_226 2017-09-29 09:05:00 226 156.7 0.00 199 0.053 0.052 185.400 10.170 12.120 12.290 0.000 0.002 12.12 12.630 12.670 12.290 100.000 100.000 0.510 12.24 12.750 12.790 12.420 11.94 12.370 12.420 12.070 12.240 12.420 11.940 12.070 14.136 14.136 0.000 14.295 14.295 0.000
PRIMET_226 2017-09-29 09:00:00 226 156.7 0.00 282 0.140 0.139 200.800 6.909 11.800 11.980 0.000 0.000 11.80 12.260 12.320 11.980 100.000 100.000 0.921 11.94 12.360 12.410 12.070 11.66 12.140 12.200 11.870 11.940 12.070 11.660 11.870 13.841 13.841 0.000 14.006 14.006 0.000
PRIMET_226 2017-09-29 08:55:00 226 156.7 0.00 197 0.061 0.061 261.200 0.452 11.540 11.750 0.000 0.000 11.54 11.980 12.050 11.750 100.000 100.000 0.784 11.65 12.110 12.180 11.860 11.48 11.910 11.980 11.690 11.650 11.860 11.480 11.690 13.605 13.605 0.000 13.795 13.795 0.000
PRIMET_226 2017-09-29 08:50:00 226 156.7 0.00 201 0.279 0.232 261.400 33.350 11.470 11.630 0.000 0.000 11.47 11.930 11.990 11.630 100.000 100.000 1.058 11.52 11.970 12.040 11.690 11.45 11.890 11.940 11.580 11.520 11.690 11.450 11.580 13.542 13.542 0.000 13.686 13.686 0.000
PRIMET_226 2017-09-29 08:45:00 226 156.7 0.00 193 0.007 0.006 212.900 5.915 11.440 11.560 0.000 0.000 11.44 11.870 11.910 11.560 100.000 100.000 0.007 11.47 11.900 11.930 11.590 11.41 11.840 11.880 11.540 11.470 11.590 11.410 11.540 13.515 13.515 0.000 13.623 13.623 0.000
PRIMET_226 2017-09-29 08:40:00 226 156.7 0.00 195 0.007 0.007 209.500 0.093 11.420 11.530 0.000 0.000 11.42 11.870 11.910 11.530 100.000 100.000 0.007 11.45 11.920 11.960 11.570 11.38 11.840 11.880 11.490 11.450 11.570 11.380 11.490 13.497 13.497 0.000 13.596 13.596 0.000
PRIMET_226 2017-09-29 08:35:00 226 156.7 0.00 200 0.007 0.007 209.500 0.056 11.340 11.480 0.000 0.000 11.34 11.810 11.860 11.480 100.000 100.000 0.007 11.39 11.850 11.880 11.510 11.27 11.760 11.800 11.420 11.390 11.510 11.270 11.420 13.426 13.426 0.000 13.551 13.551 0.000
PRIMET_226 2017-09-29 08:30:00 226 156.7 0.00 200 0.007 0.007 209.500 0.074 11.200 11.350 0.000 0.000 11.20 11.670 11.720 11.350 100.000 100.000 0.007 11.25 11.760 11.800 11.430 11.14 11.620 11.670 11.280 11.250 11.430 11.140 11.280 13.302 13.302 0.000 13.435 13.435 0.000
PRIMET_226 2017-09-29 08:25:00 226 156.7 0.00 193 0.007 0.007 209.500 0.063 11.090 11.230 0.000 0.000 11.09 11.530 11.590 11.230 100.000 100.000 0.007 11.14 11.600 11.650 11.280 11.04 11.460 11.540 11.180 11.140 11.280 11.040 11.180 13.205 13.205 0.000 13.328 13.328 0.000
PRIMET_226 2017-09-29 08:20:00 226 156.7 0.00 199 0.007 0.007 209.500 0.074 10.980 11.110 0.000 0.000 10.98 11.420 11.490 11.110 100.000 100.000 0.007 11.05 11.470 11.540 11.170 10.92 11.380 11.430 11.050 11.050 11.170 10.920 11.050 13.109 13.109 -0.000 13.222 13.222 0.000
PRIMET_226 2017-09-29 08:15:00 226 156.7 0.00 199 0.007 0.007 209.500 0.069 10.890 11.010 0.000 0.000 10.89 11.300 11.350 11.010 100.000 100.000 0.007 10.92 11.370 11.410 11.060 10.88 11.260 11.320 10.980 10.920 11.060 10.880 10.980 13.030 13.030 -0.000 13.135 13.135 0.000
PRIMET_226 2017-09-29 08:10:00 226 156.7 0.00 202 0.007 0.007 209.500 0.063 10.790 10.900 0.000 0.000 10.79 11.180 11.240 10.900 100.000 100.000 0.007 10.87 11.260 11.310 10.980 10.73 11.110 11.150 10.820 10.870 10.980 10.730 10.820 12.944 12.944 0.000 13.039 13.039 0.000
PRIMET_226 2017-09-29 08:05:00 226 156.7 0.00 199 0.007 0.007 209.400 0.202 10.640 10.740 0.000 0.000 10.64 11.030 11.070 10.740 100.000 100.000 0.007 10.71 11.100 11.150 10.820 10.59 10.960 10.990 10.660 10.710 10.820 10.590 10.660 12.815 12.815 0.000 12.901 12.901 0.000
PRIMET_226 2017-09-29 08:00:00 226 156.7 0.00 199 0.007 0.007 209.700 0.504 10.530 10.620 0.000 0.000 10.53 10.900 10.950 10.620 100.000 100.000 0.007 10.59 10.960 10.990 10.660 10.46 10.840 10.900 10.560 10.590 10.660 10.460 10.560 12.722 12.722 0.000 12.798 12.798 0.000
PRIMET_226 2017-09-29 07:55:00 226 156.7 0.00 190 0.007 0.007 210.000 0.128 10.400 10.520 0.000 0.000 10.40 10.780 10.850 10.520 100.000 100.000 0.007 10.47 10.850 10.910 10.580 10.34 10.710 10.770 10.460 10.460 10.570 10.340 10.460 12.612 12.612 0.000 12.713 12.713 0.000
PRIMET_226 2017-09-29 07:50:00 226 156.7 0.00 201 0.007 0.007 210.300 0.346 10.290 10.420 0.000 0.000 10.29 10.650 10.720 10.420 100.000 100.000 0.007 10.35 10.710 10.770 10.470 10.24 10.590 10.660 10.380 10.350 10.470 10.240 10.380 12.519 12.519 0.000 12.629 12.629 0.000
PRIMET_226 2017-09-29 07:45:00 226 156.7 0.00 202 0.007 0.006 205.300 7.162 10.180 10.320 0.000 0.000 10.18 10.540 10.610 10.320 100.000 100.000 0.007 10.23 10.590 10.660 10.370 10.14 10.500 10.570 10.280 10.230 10.370 10.140 10.280 12.428 12.428 0.000 12.545 12.545 0.000
PRIMET_226 2017-09-29 07:40:00 226 156.7 0.00 204 0.007 0.007 217.300 0.177 10.100 10.230 0.000 0.000 10.10 10.460 10.520 10.230 100.000 100.000 0.007 10.14 10.510 10.580 10.290 10.07 10.420 10.480 10.200 10.140 10.290 10.070 10.200 12.361 12.361 -0.000 12.469 12.469 0.000
PRIMET_226 2017-09-29 07:35:00 226 156.7 0.00 204 0.007 0.007 218.700 0.999 10.070 10.190 0.000 0.000 10.07 10.400 10.470 10.190 100.000 100.000 0.007 10.10 10.420 10.490 10.210 10.04 10.360 10.430 10.140 10.100 10.210 10.040 10.140 12.336 12.336 0.000 12.436 12.436 0.000
PRIMET_226 2017-09-29 07:30:00 226 156.7 0.00 202 0.007 0.007 219.300 0.000 10.000 10.120 0.000 0.000 10.00 10.330 10.390 10.120 100.000 100.000 0.007 10.04 10.370 10.430 10.150 9.96 10.290 10.360 10.080 10.040 10.150 9.960 10.080 12.279 12.279 0.000 12.378 12.378 0.000
PRIMET_226 2017-09-29 07:25:00 226 156.7 0.00 203 0.007 0.007 219.300 0.000 9.970 10.050 0.000 0.000 9.97 10.260 10.320 10.050 100.000 100.000 0.007 9.99 10.290 10.350 10.090 9.94 10.220 10.280 10.010 9.990 10.090 9.940 10.010 12.254 12.254 0.000 12.320 12.320 0.000
PRIMET_226 2017-09-29 07:20:00 226 156.7 0.00 203 0.007 0.007 219.400 0.000 9.870 9.970 0.000 0.000 9.87 10.160 10.240 9.970 100.000 100.000 0.007 9.93 10.210 10.280 10.010 9.81 10.110 10.190 9.920 9.930 10.010 9.810 9.920 12.172 12.172 0.000 12.254 12.254 0.000
PRIMET_226 2017-09-29 07:15:00 226 156.7 0.00 202 0.007 0.007 219.300 0.056 9.740 9.860 0.000 0.000 9.74 10.020 10.100 9.860 100.000 100.000 0.007 9.80 10.100 10.180 9.910 9.69 9.970 10.050 9.820 9.800 9.910 9.690 9.820 12.066 12.066 0.000 12.164 12.164 0.000
PRIMET_226 2017-09-29 07:10:00 226 156.7 0.00 210 0.007 0.007 220.100 0.229 9.650 9.780 0.000 0.000 9.65 9.930 10.010 9.780 100.000 100.000 0.007 9.69 9.970 10.050 9.820 9.59 9.890 9.980 9.720 9.690 9.820 9.590 9.720 11.994 11.994 0.000 12.099 12.099 -0.000
PRIMET_226 2017-09-29 07:05:00 226 156.7 0.00 205 0.007 0.007 218.000 2.001 9.550 9.690 0.000 0.000 9.55 9.820 9.910 9.690 100.000 100.000 0.007 9.60 9.890 9.960 9.730 9.52 9.780 9.890 9.650 9.600 9.730 9.520 9.650 11.913 11.913 0.000 12.026 12.026 -0.000
PRIMET_226 2017-09-29 07:00:00 226 156.7 0.00 202 0.007 0.007 216.200 0.000 9.510 9.640 0.000 0.000 9.51 9.770 9.870 9.640 100.000 100.000 0.007 9.52 9.780 9.880 9.650 9.48 9.760 9.860 9.620 9.520 9.650 9.480 9.620 11.881 11.881 -0.000 11.986 11.986 0.000
PRIMET_226 2017-09-29 06:55:00 226 156.7 0.00 201 0.007 0.007 216.200 0.000 9.530 9.600 0.000 0.000 9.53 9.760 9.840 9.600 100.000 100.000 0.007 9.56 9.790 9.880 9.630 9.49 9.720 9.800 9.570 9.560 9.630 9.490 9.570 11.897 11.897 -0.000 11.953 11.953 0.000
PRIMET_226 2017-09-29 06:50:00 226 156.7 0.00 203 0.007 0.007 216.100 0.056 9.480 9.570 0.000 0.000 9.48 9.700 9.790 9.570 100.000 100.000 0.007 9.49 9.710 9.800 9.580 9.47 9.690 9.780 9.550 9.490 9.580 9.470 9.550 11.857 11.857 0.000 11.929 11.929 0.000
PRIMET_226 2017-09-29 06:45:00 226 156.7 0.00 204 0.007 0.007 218.800 0.699 9.460 9.550 0.000 0.000 9.46 9.670 9.770 9.550 100.000 100.000 0.007 9.49 9.700 9.790 9.570 9.44 9.640 9.740 9.540 9.490 9.570 9.440 9.540 11.841 11.841 0.000 11.913 11.913 0.000
PRIMET_226 2017-09-29 06:40:00 226 156.7 0.00 204 0.007 0.007 218.900 0.101 9.470 9.560 0.000 0.000 9.47 9.670 9.770 9.560 100.000 100.000 0.007 9.49 9.700 9.800 9.580 9.45 9.640 9.740 9.540 9.490 9.580 9.450 9.540 11.849 11.849 0.000 11.921 11.921 -0.000
PRIMET_226 2017-09-29 06:35:00 226 156.7 0.00 204 0.007 0.007 219.000 0.000 9.440 9.520 0.000 0.000 9.44 9.660 9.750 9.520 100.000 100.000 0.007 9.48 9.700 9.790 9.550 9.40 9.610 9.730 9.490 9.480 9.550 9.400 9.490 11.826 11.826 0.000 11.889 11.889 0.000
PRIMET_226 2017-09-29 06:30:00 226 156.7 0.00 203 0.007 0.007 219.000 0.000 9.410 9.480 0.000 0.000 9.41 9.620 9.710 9.480 100.000 100.000 0.007 9.42 9.630 9.720 9.500 9.40 9.610 9.700 9.470 9.420 9.500 9.400 9.470 11.802 11.802 0.000 11.857 11.857 0.000
PRIMET_226 2017-09-29 06:25:00 226 156.7 0.00 203 0.007 0.007 219.000 0.000 9.390 9.470 0.000 0.000 9.39 9.590 9.690 9.470 100.000 100.000 0.007 9.42 9.610 9.710 9.480 9.36 9.560 9.670 9.450 9.420 9.480 9.360 9.450 11.786 11.786 0.000 11.849 11.849 0.000
PRIMET_226 2017-09-29 06:20:00 226 156.7 0.00 198 0.007 0.007 219.000 0.028 9.370 9.450 0.000 0.000 9.37 9.570 9.670 9.450 100.000 100.000 0.007 9.39 9.590 9.690 9.460 9.36 9.560 9.660 9.430 9.390 9.460 9.360 9.430 11.770 11.770 0.000 11.833 11.833 0.000
PRIMET_226 2017-09-29 06:15:00 226 156.7 0.00 201 0.007 0.007 219.000 0.000 9.360 9.440 0.000 0.000 9.36 9.570 9.670 9.440 100.000 100.000 0.007 9.38 9.580 9.690 9.460 9.33 9.530 9.640 9.420 9.380 9.460 9.330 9.420 11.762 11.762 0.000 11.826 11.826 0.000
PRIMET_226 2017-09-29 06:10:00 226 156.7 0.00 197 0.007 0.007 219.000 0.000 9.320 9.390 0.000 0.000 9.32 9.520 9.610 9.390 100.000 100.000 0.007 9.34 9.540 9.640 9.430 9.31 9.500 9.600 9.370 9.340 9.430 9.310 9.370 11.730 11.730 0.000 11.786 11.786 0.000
PRIMET_226 2017-09-29 06:05:00 226 156.7 0.00 193 0.007 0.007 219.000 0.000 9.300 9.370 0.000 0.000 9.30 9.490 9.590 9.370 100.000 100.000 0.007 9.32 9.510 9.600 9.390 9.28 9.480 9.580 9.350 9.320 9.390 9.280 9.350 11.715 11.715 0.000 11.770 11.770 0.000
PRIMET_226 2017-09-29 06:00:00 226 156.7 0.00 202 0.007 0.007 219.000 0.000 9.280 9.350 0.000 0.000 9.28 9.460 9.560 9.350 100.000 100.000 0.007 9.29 9.470 9.580 9.370 9.26 9.440 9.550 9.330 9.290 9.370 9.260 9.330 11.699 11.699 0.000 11.754 11.754 0.000
PRIMET_226 2017-09-29 05:55:00 226 156.7 0.00 204 0.007 0.007 219.000 0.000 9.270 9.340 0.000 0.000 9.27 9.460 9.550 9.340 100.000 100.000 0.007 9.29 9.470 9.560 9.350 9.25 9.430 9.540 9.330 9.290 9.350 9.250 9.330 11.691 11.691 0.000 11.746 11.746 0.000
PRIMET_226 2017-09-29 05:50:00 226 156.7 0.00 203 0.007 0.007 219.000 0.000 9.260 9.340 0.000 0.000 9.26 9.440 9.550 9.340 100.000 100.000 0.007 9.27 9.460 9.560 9.350 9.25 9.430 9.530 9.330 9.270 9.350 9.250 9.330 11.683 11.683 0.000 11.746 11.746 0.000
PRIMET_226 2017-09-29 05:45:00 226 156.7 0.00 203 0.007 0.007 219.000 0.000 9.260 9.330 0.000 0.000 9.26 9.430 9.540 9.330 100.000 100.000 0.007 9.27 9.440 9.540 9.340 9.25 9.430 9.530 9.320 9.270 9.340 9.250 9.320 11.683 11.683 0.000 11.738 11.738 -0.000
PRIMET_226 2017-09-29 05:40:00 226 156.7 0.00 202 0.007 0.007 219.000 0.000 9.260 9.340 0.000 0.000 9.26 9.440 9.540 9.340 100.000 100.000 0.007 9.27 9.450 9.560 9.340 9.25 9.420 9.530 9.320 9.270 9.340 9.250 9.320 11.683 11.683 0.000 11.746 11.746 0.000
PRIMET_226 2017-09-29 05:35:00 226 156.7 0.00 202 0.007 0.007 219.000 0.040 9.270 9.340 0.000 0.000 9.27 9.460 9.560 9.340 100.000 100.000 0.007 9.30 9.480 9.570 9.350 9.25 9.440 9.550 9.320 9.300 9.350 9.250 9.320 11.691 11.691 0.000 11.746 11.746 0.000
PRIMET_226 2017-09-29 05:30:00 226 156.7 0.00 204 0.007 0.007 219.200 0.000 9.210 9.270 0.000 0.000 9.21 9.370 9.460 9.270 100.000 100.000 0.007 9.25 9.430 9.540 9.310 9.20 9.330 9.430 9.240 9.250 9.310 9.200 9.240 11.644 11.644 -0.000 11.691 11.691 0.000
PRIMET_226 2017-09-29 05:25:00 226 156.7 0.00 202 0.007 0.007 219.100 0.048 9.200 9.270 0.000 0.000 9.20 9.340 9.440 9.270 100.000 100.000 0.007 9.21 9.350 9.460 9.280 9.19 9.320 9.430 9.250 9.210 9.280 9.190 9.250 11.636 11.636 0.000 11.691 11.691 0.000
PRIMET_226 2017-09-29 05:20:00 226 156.7 0.00 203 0.007 0.007 219.000 0.000 9.240 9.310 0.000 0.000 9.24 9.390 9.500 9.310 100.000 100.000 0.007 9.26 9.420 9.520 9.330 9.20 9.350 9.470 9.290 9.260 9.330 9.200 9.290 11.667 11.667 -0.000 11.722 11.722 0.000
PRIMET_226 2017-09-29 05:15:00 226 156.7 0.00 202 0.007 0.007 219.000 0.040 9.250 9.330 0.000 0.000 9.25 9.410 9.520 9.330 100.000 100.000 0.007 9.26 9.420 9.530 9.340 9.24 9.400 9.500 9.320 9.260 9.340 9.240 9.320 11.675 11.675 0.000 11.738 11.738 -0.000
PRIMET_226 2017-09-29 05:10:00 226 156.7 0.00 196 0.007 0.007 219.100 0.000 9.250 9.330 0.000 0.000 9.25 9.410 9.520 9.330 100.000 100.000 0.007 9.27 9.420 9.540 9.350 9.23 9.400 9.510 9.310 9.270 9.350 9.230 9.310 11.675 11.675 0.000 11.738 11.738 -0.000
PRIMET_226 2017-09-29 05:05:00 226 156.7 0.00 197 0.007 0.007 219.100 0.000 9.240 9.310 0.000 0.000 9.24 9.400 9.510 9.310 100.000 100.000 0.007 9.26 9.410 9.520 9.330 9.22 9.390 9.490 9.300 9.260 9.330 9.220 9.300 11.667 11.667 -0.000 11.722 11.722 0.000
PRIMET_226 2017-09-29 05:00:00 226 156.7 0.00 202 0.007 0.007 219.100 0.000 9.230 9.290 0.000 0.000 9.23 9.370 9.480 9.290 100.000 100.000 0.007 9.24 9.410 9.510 9.310 9.22 9.350 9.460 9.270 9.240 9.310 9.220 9.270 11.659 11.659 0.000 11.707 11.707 0.000
PRIMET_226 2017-09-29 04:55:00 226 156.7 0.00 204 0.007 0.007 219.200 0.040 9.230 9.280 0.000 0.000 9.23 9.370 9.470 9.280 100.000 100.000 0.007 9.25 9.380 9.480 9.290 9.22 9.360 9.470 9.260 9.250 9.290 9.220 9.260 11.659 11.659 0.000 11.699 11.699 0.000
PRIMET_226 2017-09-29 04:50:00 226 156.7 0.00 204 0.007 0.007 219.200 0.000 9.190 9.250 0.000 0.000 9.19 9.330 9.430 9.250 100.000 100.000 0.007 9.22 9.380 9.470 9.280 9.17 9.300 9.410 9.230 9.220 9.280 9.170 9.230 11.628 11.628 -0.000 11.675 11.675 0.000
PRIMET_226 2017-09-29 04:45:00 226 156.7 0.00 205 0.007 0.007 219.200 0.000 9.220 9.260 0.000 0.000 9.22 9.320 9.430 9.260 100.000 100.000 0.007 9.23 9.340 9.440 9.270 9.21 9.310 9.420 9.240 9.230 9.270 9.210 9.240 11.652 11.652 0.000 11.683 11.683 0.000
PRIMET_226 2017-09-29 04:40:00 226 156.7 0.00 202 0.007 0.007 219.200 0.000 9.230 9.280 0.000 0.000 9.23 9.350 9.460 9.280 100.000 100.000 0.007 9.25 9.380 9.480 9.300 9.21 9.330 9.440 9.250 9.250 9.300 9.210 9.250 11.659 11.659 0.000 11.699 11.699 0.000
PRIMET_226 2017-09-29 04:35:00 226 156.7 0.00 203 0.007 0.007 219.200 0.000 9.240 9.290 0.000 0.000 9.24 9.390 9.490 9.290 100.000 100.000 0.007 9.26 9.400 9.490 9.310 9.22 9.370 9.480 9.270 9.260 9.310 9.220 9.270 11.667 11.667 -0.000 11.707 11.707 0.000
PRIMET_226 2017-09-29 04:30:00 226 156.7 0.00 202 0.007 0.007 219.100 0.093 9.160 9.250 0.000 0.000 9.16 9.290 9.420 9.250 100.000 100.000 0.007 9.22 9.370 9.470 9.280 9.13 9.250 9.390 9.220 9.220 9.280 9.130 9.220 11.604 11.604 0.000 11.675 11.675 0.000
PRIMET_226 2017-09-29 04:25:00 226 156.7 0.00 197 0.007 0.007 219.200 0.000 9.200 9.240 0.000 0.000 9.20 9.300 9.410 9.240 100.000 100.000 0.007 9.21 9.310 9.420 9.260 9.17 9.290 9.400 9.230 9.210 9.260 9.170 9.230 11.636 11.636 0.000 11.667 11.667 -0.000
PRIMET_226 2017-09-29 04:20:00 226 156.7 0.00 206 0.007 0.007 219.200 0.000 9.220 9.270 0.000 0.000 9.22 9.310 9.420 9.270 100.000 100.000 0.007 9.24 9.330 9.440 9.280 9.21 9.290 9.410 9.250 9.240 9.280 9.210 9.250 11.652 11.652 0.000 11.691 11.691 0.000
PRIMET_226 2017-09-29 04:15:00 226 156.7 0.00 203 0.007 0.007 219.200 0.000 9.220 9.270 0.000 0.000 9.22 9.320 9.430 9.270 100.000 100.000 0.007 9.25 9.340 9.440 9.280 9.18 9.290 9.420 9.250 9.250 9.280 9.180 9.250 11.652 11.652 0.000 11.691 11.691 0.000
PRIMET_226 2017-09-29 04:10:00 226 156.7 0.00 203 0.007 0.007 219.200 0.000 9.220 9.270 0.000 0.000 9.22 9.290 9.410 9.270 100.000 100.000 0.007 9.26 9.330 9.450 9.310 9.18 9.270 9.380 9.240 9.260 9.310 9.180 9.240 11.652 11.652 0.000 11.691 11.691 0.000
PRIMET_226 2017-09-29 04:05:00 226 156.7 0.00 203 0.007 0.007 219.200 0.000 9.260 9.320 0.000 0.000 9.26 9.350 9.470 9.320 100.000 100.000 0.007 9.27 9.360 9.490 9.350 9.24 9.330 9.450 9.290 9.270 9.350 9.240 9.290 11.683 11.683 0.000 11.730 11.730 0.000
PRIMET_226 2017-09-29 04:00:00 226 156.7 0.00 208 0.007 0.007 219.200 0.000 9.310 9.370 0.000 0.000 9.31 9.400 9.520 9.370 100.000 100.000 0.007 9.32 9.420 9.530 9.380 9.29 9.360 9.480 9.340 9.320 9.380 9.290 9.340 11.722 11.722 0.000 11.770 11.770 0.000
PRIMET_226 2017-09-29 03:55:00 226 156.7 0.00 202 0.007 0.007 219.200 0.000 9.350 9.400 0.000 0.000 9.35 9.420 9.540 9.400 100.000 100.000 0.007 9.42 9.480 9.580 9.440 9.30 9.380 9.510 9.360 9.420 9.440 9.300 9.360 11.754 11.754 0.000 11.794 11.794 0.000
PRIMET_226 2017-09-29 03:50:00 226 156.7 0.00 205 0.007 0.007 219.200 0.028 9.430 9.450 0.000 0.000 9.43 9.520 9.620 9.450 100.000 100.000 0.007 9.45 9.530 9.630 9.470 9.41 9.490 9.600 9.440 9.450 9.470 9.410 9.440 11.818 11.818 0.000 11.833 11.833 0.000
PRIMET_226 2017-09-29 03:45:00 226 156.7 0.00 201 0.007 0.007 219.200 0.158 9.460 9.490 0.000 0.000 9.46 9.540 9.650 9.490 100.000 100.000 0.007 9.51 9.580 9.680 9.530 9.43 9.520 9.630 9.460 9.510 9.530 9.430 9.460 11.841 11.841 0.000 11.865 11.865 0.000
PRIMET_226 2017-09-29 03:40:00 226 156.7 0.00 208 0.007 0.007 219.400 0.000 9.510 9.530 0.000 0.000 9.51 9.610 9.710 9.530 100.000 100.000 0.007 9.53 9.620 9.720 9.550 9.50 9.580 9.690 9.520 9.530 9.550 9.500 9.520 11.881 11.881 -0.000 11.897 11.897 -0.000
PRIMET_226 2017-09-29 03:35:00 226 156.7 0.00 202 0.007 0.007 219.300 0.000 9.510 9.540 0.000 0.000 9.51 9.610 9.710 9.540 100.000 100.000 0.007 9.54 9.620 9.740 9.560 9.49 9.600 9.700 9.530 9.540 9.560 9.490 9.530 11.881 11.881 -0.000 11.905 11.905 0.000
PRIMET_226 2017-09-29 03:30:00 226 156.7 0.00 197 0.007 0.007 219.700 0.125 9.550 9.590 0.000 0.000 9.55 9.670 9.780 9.590 100.000 100.000 0.007 9.59 9.710 9.820 9.620 9.49 9.620 9.730 9.530 9.590 9.620 9.490 9.530 11.913 11.913 0.000 11.945 11.945 0.000
PRIMET_226 2017-09-29 03:25:00 226 156.7 0.00 203 0.007 0.007 219.800 0.000 9.460 9.530 0.000 0.000 9.46 9.560 9.680 9.530 100.000 100.000 0.007 9.48 9.600 9.720 9.550 9.44 9.540 9.660 9.510 9.480 9.550 9.440 9.510 11.841 11.841 0.000 11.897 11.897 -0.000
PRIMET_226 2017-09-29 03:20:00 226 156.7 0.00 210 0.007 0.007 219.800 0.000 9.510 9.560 0.000 0.000 9.51 9.590 9.710 9.560 100.000 100.000 0.007 9.57 9.630 9.750 9.590 9.48 9.570 9.690 9.530 9.570 9.590 9.480 9.530 11.881 11.881 -0.000 11.921 11.921 -0.000
PRIMET_226 2017-09-29 03:15:00 226 156.7 0.00 203 0.007 0.007 219.800 0.000 9.580 9.610 0.000 0.000 9.58 9.650 9.770 9.610 100.000 100.000 0.007 9.60 9.670 9.780 9.630 9.57 9.630 9.750 9.600 9.600 9.630 9.570 9.600 11.937 11.937 0.000 11.962 11.962 0.000
PRIMET_226 2017-09-29 03:10:00 226 156.7 0.00 201 0.007 0.007 219.800 0.000 9.590 9.650 0.000 0.000 9.59 9.670 9.790 9.650 100.000 100.000 0.007 9.60 9.680 9.800 9.680 9.58 9.660 9.780 9.630 9.600 9.680 9.580 9.630 11.945 11.945 0.000 11.994 11.994 0.000
PRIMET_226 2017-09-29 03:05:00 226 156.7 0.00 201 0.007 0.007 219.800 0.000 9.630 9.690 0.000 0.000 9.63 9.710 9.830 9.690 100.000 100.000 0.007 9.64 9.740 9.860 9.700 9.60 9.680 9.780 9.670 9.640 9.700 9.600 9.670 11.978 11.978 0.000 12.026 12.026 -0.000
PRIMET_226 2017-09-29 03:00:00 226 156.7 0.00 193 0.007 0.007 219.800 0.000 9.670 9.700 0.000 0.000 9.67 9.780 9.880 9.700 100.000 100.000 0.007 9.69 9.800 9.910 9.720 9.65 9.740 9.850 9.690 9.690 9.720 9.650 9.690 12.010 12.010 0.000 12.034 12.034 0.000
PRIMET_226 2017-09-29 02:55:00 226 156.7 0.00 202 0.007 0.007 219.800 0.000 9.680 9.710 0.000 0.000 9.68 9.780 9.890 9.710 100.000 100.000 0.007 9.70 9.810 9.900 9.720 9.65 9.760 9.870 9.700 9.700 9.720 9.650 9.700 12.018 12.018 0.000 12.042 12.042 0.000
PRIMET_226 2017-09-29 02:50:00 226 156.7 0.00 211 0.007 0.007 219.800 0.000 9.680 9.710 0.000 0.000 9.68 9.760 9.880 9.710 100.000 100.000 0.007 9.69 9.780 9.890 9.720 9.65 9.740 9.870 9.700 9.690 9.720 9.650 9.700 12.018 12.018 0.000 12.042 12.042 0.000
PRIMET_226 2017-09-29 02:45:00 226 156.7 0.00 205 0.007 0.007 219.800 0.000 9.680 9.700 0.000 0.000 9.68 9.780 9.890 9.700 100.000 100.000 0.007 9.69 9.790 9.900 9.710 9.67 9.770 9.880 9.680 9.690 9.710 9.670 9.680 12.018 12.018 0.000 12.034 12.034 0.000
PRIMET_226 2017-09-29 02:40:00 226 156.7 0.00 197 0.007 0.007 219.800 0.000 9.670 9.700 0.000 0.000 9.67 9.780 9.890 9.700 100.000 100.000 0.007 9.68 9.800 9.900 9.710 9.66 9.770 9.880 9.680 9.680 9.710 9.660 9.680 12.010 12.010 0.000 12.034 12.034 0.000
PRIMET_226 2017-09-29 02:35:00 226 156.7 0.00 210 0.007 0.007 219.800 0.000 9.670 9.680 0.000 0.000 9.67 9.750 9.860 9.680 100.000 100.000 0.007 9.68 9.780 9.890 9.700 9.66 9.740 9.850 9.660 9.680 9.700 9.660 9.660 12.010 12.010 0.000 12.018 12.018 0.000
PRIMET_226 2017-09-29 02:30:00 226 156.7 0.00 202 0.007 0.007 219.800 0.000 9.680 9.680 0.000 0.000 9.68 9.760 9.870 9.680 100.000 100.000 0.007 9.69 9.780 9.880 9.700 9.67 9.740 9.850 9.660 9.690 9.700 9.670 9.660 12.018 12.018 0.000 12.018 12.018 0.000
PRIMET_226 2017-09-29 02:25:00 226 156.7 0.00 204 0.007 0.007 219.800 0.000 9.690 9.690 0.000 0.000 9.69 9.770 9.870 9.690 100.000 100.000 0.007 9.70 9.780 9.890 9.710 9.67 9.760 9.870 9.680 9.700 9.710 9.670 9.680 12.026 12.026 -0.000 12.026 12.026 -0.000
PRIMET_226 2017-09-29 02:20:00 226 156.7 0.00 203 0.007 0.007 219.800 0.000 9.710 9.700 0.000 0.000 9.71 9.790 9.890 9.700 100.000 100.000 0.007 9.72 9.810 9.900 9.720 9.68 9.770 9.860 9.690 9.720 9.720 9.680 9.690 12.042 12.042 0.000 12.034 12.034 0.000
PRIMET_226 2017-09-29 02:15:00 226 156.7 0.00 203 0.007 0.007 219.800 0.000 9.670 9.670 0.000 0.000 9.67 9.720 9.830 9.670 100.000 100.000 0.007 9.68 9.770 9.880 9.700 9.66 9.700 9.810 9.650 9.680 9.700 9.660 9.650 12.010 12.010 0.000 12.010 12.010 0.000
PRIMET_226 2017-09-29 02:10:00 226 156.7 0.00 201 0.007 0.007 219.800 0.000 9.680 9.680 0.000 0.000 9.68 9.730 9.850 9.680 100.000 100.000 0.007 9.69 9.740 9.860 9.700 9.66 9.710 9.830 9.670 9.690 9.700 9.660 9.670 12.018 12.018 0.000 12.018 12.018 0.000
PRIMET_226 2017-09-29 02:05:00 226 156.7 0.00 195 0.007 0.007 219.800 0.000 9.680 9.710 0.000 0.000 9.68 9.720 9.850 9.710 100.000 100.000 0.007 9.69 9.730 9.860 9.720 9.66 9.700 9.840 9.700 9.690 9.720 9.660 9.700 12.018 12.018 0.000 12.042 12.042 0.000
PRIMET_226 2017-09-29 02:00:00 226 156.7 0.00 201 0.007 0.007 219.800 0.000 9.700 9.730 0.000 0.000 9.70 9.730 9.870 9.730 100.000 100.000 0.007 9.72 9.750 9.890 9.750 9.68 9.710 9.860 9.720 9.720 9.750 9.680 9.720 12.034 12.034 0.000 12.058 12.058 0.000
PRIMET_226 2017-09-29 01:55:00 226 156.7 0.00 208 0.007 0.007 219.800 0.000 9.760 9.760 0.000 0.000 9.76 9.790 9.900 9.760 100.000 100.000 0.007 9.80 9.830 9.940 9.790 9.73 9.740 9.860 9.730 9.800 9.790 9.730 9.730 12.083 12.083 0.000 12.083 12.083 0.000
PRIMET_226 2017-09-29 01:50:00 226 156.7 0.00 200 0.007 0.007 219.800 0.000 9.830 9.820 0.000 0.000 9.83 9.880 9.990 9.820 100.000 100.000 0.007 9.86 9.920 10.030 9.850 9.80 9.840 9.940 9.790 9.860 9.850 9.800 9.790 12.140 12.140 0.000 12.131 12.131 0.000
PRIMET_226 2017-09-29 01:45:00 226 156.7 0.00 204 0.007 0.007 219.800 0.000 9.810 9.850 0.000 0.000 9.81 9.910 10.010 9.850 100.000 100.000 0.007 9.85 9.940 10.040 9.860 9.75 9.850 9.970 9.820 9.850 9.860 9.750 9.820 12.123 12.123 0.000 12.156 12.156 0.000
PRIMET_226 2017-09-29 01:40:00 226 156.7 0.00 196 0.007 0.007 219.800 0.000 9.770 9.820 0.000 0.000 9.77 9.840 9.960 9.820 100.000 100.000 0.007 9.82 9.870 9.980 9.840 9.74 9.820 9.950 9.810 9.820 9.840 9.740 9.810 12.091 12.091 0.000 12.131 12.131 0.000
PRIMET_226 2017-09-29 01:35:00 226 156.7 0.00 204 0.007 0.007 219.800 0.000 9.860 9.870 0.000 0.000 9.86 9.900 10.010 9.870 100.000 100.000 0.007 9.88 9.920 10.040 9.900 9.82 9.870 9.980 9.850 9.880 9.900 9.820 9.850 12.164 12.164 0.000 12.172 12.172 0.000
PRIMET_226 2017-09-29 01:30:00 226 156.7 0.00 193 0.007 0.007 219.800 0.000 9.900 9.920 0.000 0.000 9.90 9.940 10.060 9.920 100.000 100.000 0.007 9.93 9.980 10.100 9.960 9.88 9.910 10.040 9.890 9.930 9.960 9.880 9.890 12.197 12.197 0.000 12.213 12.213 -0.000
PRIMET_226 2017-09-29 01:25:00 226 156.7 0.00 203 0.007 0.007 219.800 0.000 9.970 9.990 0.000 0.000 9.97 10.030 10.150 9.990 100.000 100.000 0.007 9.99 10.060 10.180 10.010 9.93 9.990 10.110 9.960 9.990 10.010 9.930 9.960 12.254 12.254 0.000 12.271 12.271 0.000
PRIMET_226 2017-09-29 01:20:00 226 156.7 0.00 308 0.007 0.007 219.800 0.000 9.940 9.980 0.000 0.000 9.94 9.990 10.130 9.980 100.000 100.000 0.007 9.98 10.030 10.160 10.010 9.92 9.970 10.110 9.950 9.980 10.010 9.920 9.950 12.229 12.229 0.000 12.262 12.262 0.000
PRIMET_226 2017-09-29 01:15:00 226 156.7 0.00 209 0.007 0.007 219.800 0.000 9.950 9.990 0.000 0.000 9.95 10.000 10.130 9.990 100.000 100.000 0.007 9.96 10.010 10.140 10.010 9.94 9.990 10.130 9.960 9.960 10.010 9.940 9.960 12.238 12.238 0.000 12.271 12.271 0.000
PRIMET_226 2017-09-29 01:10:00 226 156.7 0.00 209 0.007 0.007 219.800 0.000 9.970 10.030 0.000 0.000 9.97 10.000 10.140 10.030 100.000 100.000 0.007 9.99 10.040 10.180 10.060 9.94 9.980 10.120 10.010 9.990 10.060 9.940 10.010 12.254 12.254 0.000 12.303 12.303 0.000
PRIMET_226 2017-09-29 01:05:00 226 156.7 0.00 202 0.007 0.007 219.700 0.000 10.020 10.080 0.000 0.000 10.02 10.050 10.190 10.080 100.000 100.000 0.007 10.06 10.080 10.200 10.110 9.99 10.030 10.170 10.050 10.060 10.110 9.990 10.050 12.295 12.295 0.000 12.345 12.345 0.000
PRIMET_226 2017-09-29 01:00:00 226 156.7 0.00 203 0.007 0.007 219.700 0.000 10.110 10.140 0.000 0.000 10.11 10.150 10.270 10.140 100.000 100.000 0.007 10.16 10.220 10.320 10.170 10.07 10.080 10.220 10.100 10.160 10.170 10.070 10.100 12.370 12.370 0.000 12.394 12.394 0.000
PRIMET_226 2017-09-29 00:55:00 226 156.7 0.00 203 0.007 0.007 219.700 0.000 10.160 10.180 0.000 0.000 10.16 10.230 10.340 10.180 100.000 100.000 0.007 10.19 10.240 10.360 10.210 10.15 10.220 10.320 10.150 10.190 10.210 10.150 10.150 12.411 12.411 -0.000 12.428 12.428 0.000
PRIMET_226 2017-09-29 00:50:00 226 156.7 0.00 203 0.007 0.007 222.100 1.447 10.260 10.240 0.000 0.000 10.26 10.320 10.420 10.240 100.000 100.000 0.007 10.31 10.400 10.480 10.270 10.18 10.250 10.360 10.200 10.310 10.270 10.180 10.200 12.494 12.494 0.000 12.478 12.478 0.000
PRIMET_226 2017-09-29 00:45:00 226 156.7 0.00 204 0.007 0.007 223.100 0.048 10.240 10.260 0.000 0.000 10.24 10.330 10.430 10.260 100.000 100.000 0.007 10.30 10.400 10.480 10.290 10.19 10.260 10.380 10.240 10.300 10.290 10.190 10.240 12.478 12.478 0.000 12.494 12.494 0.000
PRIMET_226 2017-09-29 00:40:00 226 156.7 0.00 209 0.007 0.007 223.000 0.125 10.240 10.280 0.000 0.000 10.24 10.290 10.410 10.280 100.000 100.000 0.007 10.29 10.320 10.430 10.320 10.20 10.260 10.370 10.240 10.290 10.320 10.200 10.240 12.478 12.478 0.000 12.511 12.511 0.000
PRIMET_226 2017-09-29 00:35:00 226 156.7 0.00 212 0.007 0.007 223.100 0.088 10.340 10.350 0.000 0.000 10.34 10.380 10.490 10.350 100.000 100.000 0.007 10.38 10.430 10.540 10.390 10.28 10.320 10.430 10.310 10.380 10.390 10.280 10.310 12.561 12.561 0.000 12.570 12.570 0.000
PRIMET_226 2017-09-29 00:30:00 226 156.7 0.00 213 0.007 0.007 223.000 0.000 10.370 10.390 0.000 0.000 10.37 10.440 10.540 10.390 100.000 100.000 0.007 10.39 10.450 10.560 10.400 10.36 10.430 10.540 10.380 10.390 10.400 10.360 10.380 12.586 12.586 0.000 12.603 12.603 0.000
PRIMET_226 2017-09-29 00:25:00 226 156.7 0.00 211 0.007 0.007 222.800 0.063 10.430 10.430 0.000 0.000 10.43 10.480 10.590 10.430 100.000 100.000 0.007 10.51 10.550 10.660 10.490 10.38 10.440 10.540 10.380 10.510 10.490 10.380 10.380 12.637 12.637 0.000 12.637 12.637 0.000
PRIMET_226 2017-09-29 00:20:00 226 156.7 0.00 201 0.007 0.007 222.900 0.000 10.520 10.510 0.000 0.000 10.52 10.630 10.720 10.510 100.000 100.000 0.007 10.56 10.670 10.750 10.530 10.44 10.570 10.660 10.470 10.560 10.530 10.440 10.470 12.713 12.713 0.000 12.705 12.705 0.000
PRIMET_226 2017-09-29 00:15:00 226 156.7 0.00 213 0.007 0.007 222.900 0.028 10.390 10.440 0.000 0.000 10.39 10.470 10.590 10.440 100.000 100.000 0.007 10.43 10.570 10.660 10.460 10.36 10.440 10.570 10.410 10.430 10.460 10.360 10.410 12.603 12.603 0.000 12.645 12.645 0.000
PRIMET_226 2017-09-29 00:10:00 226 156.7 0.00 227 0.007 0.007 223.000 0.122 10.450 10.480 0.000 0.000 10.45 10.520 10.630 10.480 100.000 100.000 0.007 10.49 10.580 10.670 10.520 10.42 10.470 10.590 10.450 10.490 10.520 10.420 10.450 12.654 12.654 0.000 12.679 12.679 0.000
PRIMET_226 2017-09-29 00:05:00 226 156.7 0.00 216 0.007 0.007 223.100 0.000 10.530 10.580 0.000 0.000 10.53 10.630 10.730 10.580 100.000 100.000 0.007 10.56 10.670 10.760 10.620 10.49 10.580 10.690 10.520 10.560 10.620 10.490 10.520 12.722 12.722 0.000 12.764 12.764 0.000
PRIMET_226 2017-09-29 00:00:00 226 156.7 0.00 205 0.007 0.007 223.100 0.000 10.540 10.560 0.000 0.000 10.54 10.600 10.700 10.560 100.000 100.000 0.007 10.59 10.640 10.740 10.600 10.51 10.570 10.680 10.540 10.590 10.600 10.510 10.540 12.730 12.730 0.000 12.747 12.747 0.000
PRIMET_226 2017-09-28 23:55:00 226 156.7 0.00 218 0.007 0.007 223.100 0.000 10.630 10.640 0.000 0.000 10.63 10.680 10.770 10.640 100.000 100.000 0.007 10.67 10.740 10.830 10.680 10.60 10.620 10.720 10.590 10.670 10.680 10.600 10.590 12.807 12.807 0.000 12.815 12.815 0.000
PRIMET_226 2017-09-28 23:50:00 226 156.7 0.00 202 0.007 0.007 223.100 0.088 10.670 10.680 0.000 0.000 10.67 10.730 10.830 10.680 100.000 100.000 0.007 10.68 10.760 10.840 10.700 10.65 10.720 10.820 10.660 10.680 10.700 10.650 10.660 12.841 12.841 0.000 12.850 12.850 0.000
PRIMET_226 2017-09-28 23:45:00 226 156.7 0.00 222 0.007 0.007 222.800 0.112 10.710 10.740 0.000 0.000 10.71 10.800 10.890 10.740 100.000 100.000 0.007 10.73 10.850 10.920 10.780 10.69 10.740 10.840 10.690 10.730 10.780 10.690 10.690 12.875 12.875 0.000 12.901 12.901 0.000
PRIMET_226 2017-09-28 23:40:00 226 156.7 0.00 221 0.007 0.007 223.000 0.140 10.650 10.730 0.000 0.000 10.65 10.750 10.860 10.730 100.000 100.000 0.007 10.69 10.840 10.920 10.750 10.62 10.690 10.830 10.720 10.690 10.750 10.620 10.720 12.824 12.824 0.000 12.892 12.892 0.000
PRIMET_226 2017-09-28 23:35:00 226 156.7 0.00 214 0.007 0.007 222.700 0.000 10.730 10.800 0.000 0.000 10.73 10.780 10.900 10.800 100.000 100.000 0.007 10.81 10.860 10.970 10.840 10.66 10.720 10.850 10.750 10.810 10.840 10.660 10.750 12.892 12.892 0.000 12.953 12.953 0.000
PRIMET_226 2017-09-28 23:30:00 226 156.7 0.00 217 0.007 0.007 223.200 0.566 10.890 10.890 0.000 0.000 10.89 10.940 11.040 10.890 100.000 100.000 0.007 10.97 11.040 11.130 10.940 10.81 10.870 10.980 10.840 10.970 10.940 10.810 10.840 13.030 13.030 -0.000 13.030 13.030 -0.000
PRIMET_226 2017-09-28 23:25:00 226 156.7 0.00 210 0.007 0.007 224.000 0.000 10.910 10.910 0.000 0.000 10.91 11.000 11.100 10.910 100.000 100.000 0.007 10.97 11.060 11.150 10.940 10.83 10.910 11.020 10.860 10.970 10.940 10.830 10.860 13.048 13.048 0.000 13.048 13.048 0.000
PRIMET_226 2017-09-28 23:20:00 226 156.7 0.00 217 0.007 0.007 223.700 0.143 10.840 10.880 0.000 0.000 10.84 10.880 11.000 10.880 100.000 100.000 0.007 10.91 10.930 11.040 10.940 10.80 10.850 10.970 10.850 10.910 10.940 10.800 10.850 12.987 12.987 0.000 13.022 13.022 0.000
PRIMET_226 2017-09-28 23:15:00 226 156.7 0.00 219 0.007 0.007 223.700 0.112 10.960 10.980 0.000 0.000 10.96 11.000 11.120 10.980 100.000 100.000 0.007 11.01 11.040 11.170 11.010 10.91 10.940 11.060 10.930 11.010 11.010 10.910 10.930 13.091 13.091 0.000 13.109 13.109 -0.000
PRIMET_226 2017-09-28 23:10:00 226 156.7 0.00 235 0.007 0.007 223.800 0.000 11.030 11.020 0.000 0.000 11.03 11.060 11.170 11.020 100.000 100.000 0.007 11.05 11.070 11.180 11.050 11.02 11.050 11.160 11.010 11.050 11.050 11.020 11.010 13.152 13.152 0.000 13.144 13.144 0.000
PRIMET_226 2017-09-28 23:05:00 226 156.7 0.00 206 0.007 0.007 223.800 0.000 11.060 11.070 0.000 0.000 11.06 11.090 11.200 11.070 100.000 100.000 0.007 11.09 11.120 11.230 11.100 11.03 11.060 11.170 11.040 11.090 11.100 11.030 11.040 13.179 13.179 -0.000 13.187 13.187 0.000
PRIMET_226 2017-09-28 23:00:00 226 156.7 0.00 206 0.007 0.007 223.800 0.000 11.110 11.120 0.000 0.000 11.11 11.140 11.250 11.120 100.000 100.000 0.007 11.13 11.160 11.280 11.160 11.09 11.110 11.220 11.090 11.130 11.160 11.090 11.090 13.222 13.222 0.000 13.231 13.231 0.000
PRIMET_226 2017-09-28 22:55:00 226 156.7 0.00 251 0.007 0.007 223.800 0.000 11.150 11.170 0.000 0.000 11.15 11.180 11.300 11.170 100.000 100.000 0.007 11.19 11.210 11.320 11.200 11.11 11.150 11.270 11.150 11.190 11.200 11.110 11.150 13.258 13.258 -0.000 13.275 13.275 0.000
PRIMET_226 2017-09-28 22:50:00 226 156.7 0.00 203 0.007 0.007 223.800 0.000 11.220 11.220 0.000 0.000 11.22 11.250 11.350 11.220 100.000 100.000 0.007 11.26 11.300 11.400 11.270 11.19 11.220 11.320 11.190 11.260 11.270 11.190 11.190 13.319 13.319 0.000 13.319 13.319 0.000
PRIMET_226 2017-09-28 22:45:00 226 156.7 0.00 229 0.007 0.007 223.800 0.000 11.300 11.310 0.000 0.000 11.30 11.360 11.450 11.310 100.000 100.000 0.007 11.32 11.390 11.480 11.330 11.26 11.300 11.400 11.270 11.320 11.330 11.260 11.270 13.390 13.390 0.000 13.399 13.399 0.000
PRIMET_226 2017-09-28 22:40:00 226 156.7 0.00 203 0.007 0.007 223.800 0.000 11.240 11.310 0.000 0.000 11.24 11.310 11.430 11.310 100.000 100.000 0.007 11.28 11.350 11.450 11.340 11.22 11.290 11.420 11.290 11.280 11.340 11.220 11.290 13.337 13.337 -0.000 13.399 13.399 0.000
PRIMET_226 2017-09-28 22:35:00 226 156.7 0.00 206 0.007 0.007 223.800 0.000 11.280 11.370 0.000 0.000 11.28 11.340 11.460 11.370 100.000 100.000 0.007 11.31 11.360 11.480 11.390 11.23 11.310 11.450 11.350 11.310 11.390 11.230 11.350 13.372 13.372 0.000 13.452 13.452 0.000
PRIMET_226 2017-09-28 22:30:00 226 156.7 0.00 218 0.007 0.007 223.800 0.000 11.350 11.420 0.000 0.000 11.35 11.340 11.470 11.420 100.000 100.000 0.007 11.42 11.400 11.530 11.460 11.30 11.310 11.440 11.380 11.420 11.460 11.300 11.380 13.435 13.435 0.000 13.497 13.497 0.000
PRIMET_226 2017-09-28 22:25:00 226 156.7 0.00 233 0.007 0.007 223.800 0.000 11.490 11.510 0.000 0.000 11.49 11.520 11.620 11.510 100.000 100.000 0.007 11.57 11.580 11.690 11.560 11.42 11.420 11.530 11.450 11.570 11.560 11.420 11.450 13.560 13.560 0.000 13.578 13.578 0.000
PRIMET_226 2017-09-28 22:20:00 226 156.7 0.00 231 0.007 0.007 223.800 0.000 11.600 11.600 0.000 0.000 11.60 11.640 11.740 11.600 100.000 100.000 0.007 11.63 11.670 11.760 11.640 11.55 11.590 11.700 11.570 11.630 11.640 11.550 11.570 13.659 13.659 -0.000 13.659 13.659 -0.000
PRIMET_226 2017-09-28 22:15:00 226 156.7 0.00 225 0.007 0.007 223.800 0.000 11.580 11.620 0.000 0.000 11.58 11.640 11.750 11.620 100.000 100.000 0.007 11.61 11.670 11.770 11.660 11.56 11.620 11.740 11.600 11.610 11.660 11.560 11.600 13.641 13.641 0.000 13.677 13.677 0.000
PRIMET_226 2017-09-28 22:10:00 226 156.7 0.00 203 0.007 0.007 223.800 0.000 11.700 11.700 0.000 0.000 11.70 11.720 11.830 11.700 100.000 100.000 0.007 11.76 11.770 11.870 11.740 11.62 11.660 11.780 11.640 11.760 11.740 11.620 11.640 13.749 13.749 0.000 13.749 13.749 0.000
PRIMET_226 2017-09-28 22:05:00 226 156.7 0.00 200 0.007 0.007 223.800 0.000 11.770 11.760 0.000 0.000 11.77 11.800 11.900 11.760 100.000 100.000 0.007 11.78 11.830 11.920 11.780 11.75 11.770 11.880 11.740 11.780 11.780 11.750 11.740 13.813 13.813 -0.000 13.804 13.804 0.000
PRIMET_226 2017-09-28 22:00:00 226 156.7 0.00 202 0.007 0.007 223.800 0.000 11.800 11.780 0.000 0.000 11.80 11.800 11.900 11.780 100.000 100.000 0.007 11.83 11.830 11.920 11.810 11.77 11.780 11.890 11.750 11.830 11.810 11.770 11.750 13.841 13.841 0.000 13.822 13.822 0.000
PRIMET_226 2017-09-28 21:55:00 226 156.7 0.00 206 0.007 0.007 223.800 0.000 11.860 11.850 0.000 0.000 11.86 11.850 11.950 11.850 100.000 100.000 0.007 11.89 11.880 11.990 11.900 11.82 11.820 11.920 11.810 11.890 11.900 11.820 11.810 13.896 13.896 0.000 13.886 13.886 0.000
PRIMET_226 2017-09-28 21:50:00 226 156.7 0.00 220 0.007 0.007 223.800 0.000 11.930 11.910 0.000 0.000 11.93 11.920 12.020 11.910 100.000 100.000 0.007 11.96 11.960 12.060 11.950 11.89 11.890 11.980 11.890 11.960 11.950 11.890 11.890 13.960 13.960 0.000 13.941 13.941 0.000
PRIMET_226 2017-09-28 21:45:00 226 156.7 0.00 197 0.007 0.007 223.800 0.000 11.970 11.970 0.000 0.000 11.97 11.980 12.080 11.970 100.000 100.000 0.007 12.00 12.010 12.120 12.020 11.94 11.950 12.060 11.930 12.000 12.020 11.940 11.930 13.997 13.997 0.000 13.997 13.997 0.000
PRIMET_226 2017-09-28 21:40:00 226 156.7 0.00 209 0.007 0.007 223.800 0.000 12.050 12.050 0.000 0.000 12.05 12.050 12.160 12.050 100.000 100.000 0.007 12.09 12.090 12.190 12.090 12.01 12.010 12.110 12.030 12.090 12.090 12.010 12.030 14.071 14.071 0.000 14.071 14.071 0.000
PRIMET_226 2017-09-28 21:35:00 226 156.7 0.00 212 0.007 0.007 223.800 0.000 12.100 12.120 0.006 0.000 12.11 12.110 12.220 12.120 100.000 100.000 0.007 12.14 12.140 12.240 12.150 12.08 12.090 12.190 12.080 12.130 12.150 12.080 12.080 14.127 14.117 0.000 14.136 14.136 0.000
PRIMET_226 2017-09-28 21:30:00 226 156.7 0.00 261 0.007 0.007 223.800 0.000 12.180 12.180 0.007 0.000 12.19 12.180 12.280 12.180 100.000 100.000 0.007 12.24 12.230 12.320 12.220 12.14 12.130 12.250 12.150 12.230 12.220 12.130 12.150 14.201 14.192 0.000 14.192 14.192 0.000
PRIMET_226 2017-09-28 21:25:00 226 156.7 0.00 203 0.007 0.007 223.800 0.000 12.260 12.260 0.012 0.000 12.27 12.280 12.380 12.260 99.900 100.000 0.007 12.29 12.310 12.410 12.290 12.23 12.240 12.330 12.220 12.280 12.290 12.220 12.220 14.276 14.267 0.014 14.267 14.267 0.000
PRIMET_226 2017-09-28 21:20:00 226 156.7 0.00 203 0.007 0.007 223.800 0.000 12.280 12.310 0.029 0.000 12.32 12.310 12.420 12.310 99.800 100.000 0.007 12.36 12.350 12.450 12.340 12.28 12.280 12.390 12.290 12.330 12.340 12.250 12.290 14.323 14.286 0.029 14.314 14.314 0.000
PRIMET_226 2017-09-28 21:15:00 226 156.7 0.00 207 0.007 0.007 223.800 0.000 12.360 12.380 0.037 0.005 12.40 12.380 12.490 12.380 99.700 100.000 0.007 12.44 12.420 12.520 12.420 12.35 12.350 12.450 12.350 12.410 12.410 12.320 12.350 14.399 14.361 0.043 14.380 14.380 0.000
PRIMET_226 2017-09-28 21:10:00 226 156.7 0.00 201 0.007 0.007 223.800 0.000 12.430 12.460 0.045 0.011 12.48 12.480 12.580 12.470 99.700 99.900 0.007 12.51 12.520 12.620 12.500 12.44 12.440 12.530 12.430 12.460 12.490 12.400 12.420 14.475 14.427 0.043 14.465 14.456 0.014
PRIMET_226 2017-09-28 21:05:00 226 156.7 0.00 201 0.007 0.007 223.800 0.000 12.510 12.530 0.051 0.019 12.56 12.570 12.660 12.550 99.600 99.900 0.007 12.63 12.620 12.720 12.600 12.51 12.520 12.610 12.510 12.580 12.590 12.450 12.490 14.551 14.503 0.058 14.541 14.522 0.015
PRIMET_226 2017-09-28 21:00:00 226 156.7 0.00 204 0.007 0.007 223.900 0.040 12.630 12.650 0.043 0.006 12.67 12.690 12.760 12.660 99.700 100.000 0.007 12.69 12.730 12.790 12.680 12.62 12.630 12.710 12.610 12.650 12.680 12.580 12.600 14.656 14.618 0.044 14.647 14.637 0.000
PRIMET_226 2017-09-28 20:55:00 226 156.7 0.00 204 0.007 0.007 223.900 0.000 12.650 12.640 0.061 0.030 12.71 12.710 12.800 12.670 99.600 99.800 0.007 12.76 12.740 12.840 12.710 12.67 12.680 12.780 12.650 12.700 12.670 12.610 12.610 14.695 14.637 0.059 14.656 14.627 0.029
PRIMET_226 2017-09-28 20:50:00 226 156.7 0.00 202 0.007 0.007 223.900 0.000 12.730 12.730 0.061 0.031 12.80 12.790 12.890 12.760 99.600 99.800 0.007 12.83 12.840 12.940 12.810 12.75 12.740 12.840 12.710 12.770 12.780 12.690 12.680 14.782 14.714 0.059 14.743 14.714 0.029
PRIMET_226 2017-09-28 20:45:00 226 156.7 0.00 202 0.007 0.007 223.900 0.000 12.770 12.780 0.082 0.043 12.85 12.870 12.960 12.820 99.400 99.700 0.007 12.90 12.900 12.990 12.860 12.83 12.850 12.940 12.790 12.810 12.800 12.740 12.750 14.830 14.753 0.089 14.801 14.762 0.044
PRIMET_226 2017-09-28 20:40:00 226 156.7 0.00 198 0.007 0.007 223.800 0.063 12.890 12.870 0.067 0.045 12.96 12.970 13.050 12.910 99.600 99.700 0.007 13.02 13.040 13.110 12.960 12.89 12.910 12.990 12.870 12.970 12.920 12.800 12.820 14.937 14.869 0.060 14.889 14.850 0.045
PRIMET_226 2017-09-28 20:35:00 226 156.7 0.00 195 0.007 0.007 223.900 0.000 12.950 12.930 0.056 0.033 13.01 13.030 13.120 12.960 99.600 99.800 0.007 13.02 13.060 13.140 12.980 13.00 12.990 13.100 12.940 12.970 12.960 12.930 12.890 14.986 14.928 0.060 14.937 14.908 0.030
PRIMET_226 2017-09-28 20:30:00 226 156.7 0.00 202 0.007 0.007 223.800 0.000 12.970 12.940 0.075 0.052 13.05 13.040 13.150 12.990 99.500 99.700 0.007 13.09 13.090 13.190 13.040 13.00 13.000 13.090 12.960 13.010 12.990 12.930 12.910 15.025 14.947 0.075 14.967 14.918 0.045
PRIMET_226 2017-09-28 20:25:00 226 156.7 0.00 197 0.007 0.007 223.800 0.000 13.050 13.000 0.079 0.057 13.13 13.120 13.230 13.060 99.500 99.600 0.007 13.15 13.160 13.270 13.080 13.09 13.090 13.190 13.020 13.070 13.020 13.010 12.970 15.104 15.025 0.076 15.035 14.976 0.060
PRIMET_226 2017-09-28 20:20:00 226 156.7 0.00 204 0.007 0.007 223.800 0.000 13.060 13.030 0.115 0.072 13.17 13.180 13.290 13.100 99.200 99.500 0.007 13.21 13.210 13.330 13.150 13.15 13.160 13.270 13.060 13.070 13.080 13.050 12.990 15.144 15.035 0.121 15.075 15.006 0.075
PRIMET_226 2017-09-28 20:15:00 226 156.7 0.00 202 0.007 0.007 223.800 0.000 13.060 13.090 0.175 0.092 13.24 13.250 13.360 13.180 98.900 99.400 0.007 13.31 13.290 13.380 13.210 13.20 13.220 13.330 13.150 13.130 13.110 13.030 13.070 15.213 15.035 0.167 15.154 15.065 0.091
PRIMET_226 2017-09-28 20:10:00 226 156.7 0.00 192 0.007 0.007 223.700 0.000 13.230 13.130 0.162 0.115 13.39 13.350 13.430 13.250 98.900 99.200 0.007 13.44 13.400 13.480 13.290 13.31 13.280 13.380 13.200 13.280 13.170 13.130 13.090 15.363 15.203 0.169 15.223 15.104 0.122
PRIMET_226 2017-09-28 20:05:00 226 156.7 0.00 202 0.007 0.007 223.800 0.028 13.310 13.180 0.177 0.140 13.49 13.440 13.520 13.320 98.900 99.100 0.007 13.54 13.490 13.560 13.350 13.44 13.390 13.480 13.290 13.360 13.200 13.280 13.160 15.463 15.283 0.170 15.293 15.154 0.138
PRIMET_226 2017-09-28 20:00:00 226 156.7 0.00 201 0.007 0.007 223.800 0.000 13.400 13.250 0.188 0.157 13.58 13.560 13.640 13.400 98.800 99.000 0.007 13.63 13.620 13.700 13.450 13.54 13.490 13.570 13.360 13.430 13.280 13.360 13.210 15.554 15.373 0.187 15.373 15.223 0.154
PRIMET_226 2017-09-28 19:55:00 226 156.7 0.00 198 0.007 0.007 223.800 0.000 13.490 13.280 0.187 0.159 13.68 13.680 13.770 13.440 98.800 99.000 0.007 13.71 13.740 13.850 13.480 13.63 13.620 13.700 13.400 13.540 13.330 13.440 13.230 15.656 15.463 0.188 15.413 15.253 0.154
PRIMET_226 2017-09-28 19:50:00 226 156.7 0.00 190 0.007 0.007 223.800 0.000 13.560 13.340 0.191 0.158 13.74 13.750 13.840 13.500 98.800 99.000 0.007 13.78 13.770 13.860 13.520 13.72 13.740 13.830 13.480 13.570 13.370 13.540 13.310 15.717 15.534 0.189 15.473 15.313 0.155
PRIMET_226 2017-09-28 19:45:00 226 156.7 0.00 202 0.007 0.007 223.700 0.000 13.630 13.400 0.210 0.173 13.83 13.830 13.910 13.570 98.700 98.900 0.007 13.89 13.900 13.990 13.620 13.78 13.770 13.850 13.520 13.710 13.460 13.570 13.340 15.809 15.605 0.206 15.544 15.373 0.171
PRIMET_226 2017-09-28 19:40:00 226 156.7 0.00 201 0.007 0.007 223.800 0.000 13.740 13.490 0.163 0.145 13.90 13.920 14.010 13.630 99.000 99.100 0.007 13.92 13.940 14.030 13.660 13.88 13.880 13.980 13.600 13.770 13.520 13.700 13.450 15.881 15.717 0.159 15.605 15.463 0.140
PRIMET_226 2017-09-28 19:35:00 226 156.7 0.00 196 0.007 0.007 223.800 0.000 13.690 13.460 0.215 0.174 13.90 13.870 13.970 13.630 98.600 98.900 0.007 13.94 13.900 13.990 13.650 13.87 13.860 13.960 13.600 13.710 13.470 13.680 13.440 15.881 15.666 0.222 15.605 15.433 0.172
PRIMET_226 2017-09-28 19:30:00 226 156.7 0.00 191 0.007 0.007 223.700 0.063 13.760 13.500 0.238 0.202 13.99 13.950 14.040 13.700 98.500 98.700 0.007 14.04 14.000 14.090 13.750 13.95 13.900 14.010 13.660 13.810 13.540 13.710 13.470 15.974 15.737 0.240 15.676 15.473 0.204
PRIMET_226 2017-09-28 19:25:00 226 156.7 0.00 195 0.007 0.007 223.900 0.000 13.850 13.580 0.241 0.217 14.08 14.030 14.140 13.800 98.500 98.600 0.007 14.11 14.070 14.180 13.850 14.05 14.000 14.090 13.760 13.870 13.620 13.820 13.550 16.068 15.830 0.241 15.778 15.554 0.221
PRIMET_226 2017-09-28 19:20:00 226 156.7 0.00 203 0.007 0.007 223.900 0.000 13.920 13.650 0.249 0.241 14.16 14.120 14.220 13.890 98.500 98.500 0.007 14.19 14.160 14.260 13.950 14.11 14.080 14.180 13.840 13.950 13.710 13.870 13.610 16.151 15.902 0.242 15.871 15.625 0.238
PRIMET_226 2017-09-28 19:15:00 226 156.7 0.00 203 0.007 0.007 223.900 0.000 13.970 13.730 0.259 0.249 14.22 14.180 14.290 13.980 98.400 98.400 0.007 14.26 14.210 14.310 14.010 14.19 14.160 14.270 13.950 14.000 13.750 13.950 13.710 16.214 15.954 0.259 15.964 15.707 0.255
PRIMET_226 2017-09-28 19:10:00 226 156.7 0.00 186 0.007 0.007 223.900 0.000 14.010 13.760 0.292 0.285 14.29 14.250 14.340 14.040 98.200 98.200 0.007 14.33 14.290 14.390 14.090 14.26 14.200 14.300 14.000 14.040 13.790 13.990 13.730 16.288 15.995 0.293 16.026 15.737 0.288
PRIMET_226 2017-09-28 19:05:00 226 156.7 0.00 204 0.007 0.007 223.900 0.000 14.080 13.820 0.314 0.313 14.38 14.340 14.440 14.120 98.100 98.100 0.007 14.43 14.380 14.490 14.170 14.33 14.290 14.390 14.070 14.130 13.860 14.040 13.780 16.383 16.068 0.311 16.110 15.799 0.306
PRIMET_226 2017-09-28 19:00:00 226 156.7 0.00 203 0.007 0.007 223.900 0.000 14.150 13.910 0.322 0.322 14.46 14.440 14.540 14.220 98.000 98.000 0.007 14.49 14.490 14.580 14.250 14.42 14.390 14.500 14.180 14.190 13.940 14.120 13.870 16.468 16.141 0.329 16.214 15.892 0.324
PRIMET_226 2017-09-28 18:55:00 226 156.7 0.00 209 0.007 0.007 223.700 0.156 14.160 13.930 0.376 0.367 14.52 14.490 14.580 14.290 97.700 97.700 0.007 14.57 14.520 14.620 14.320 14.47 14.470 14.570 14.250 14.200 13.950 14.130 13.910 16.532 16.151 0.380 16.288 15.912 0.375
PRIMET_226 2017-09-28 18:50:00 226 156.7 0.00 203 0.007 0.007 223.700 0.000 14.230 13.990 0.422 0.400 14.63 14.570 14.670 14.380 97.500 97.600 0.007 14.69 14.630 14.720 14.420 14.58 14.530 14.620 14.320 14.310 14.040 14.180 13.950 16.650 16.225 0.416 16.383 15.974 0.393
PRIMET_226 2017-09-28 18:45:00 226 156.7 0.00 201 0.007 0.007 223.700 0.028 14.310 14.050 0.449 0.428 14.73 14.670 14.760 14.460 97.300 97.400 0.007 14.78 14.710 14.800 14.510 14.68 14.630 14.730 14.410 14.340 14.070 14.290 14.030 16.758 16.309 0.452 16.468 16.037 0.428
PRIMET_226 2017-09-28 18:40:00 226 156.7 0.00 201 0.007 0.007 223.600 0.000 14.380 14.110 0.482 0.475 14.83 14.770 14.860 14.550 97.100 97.100 0.007 14.88 14.820 14.910 14.600 14.79 14.720 14.810 14.510 14.430 14.150 14.350 14.070 16.866 16.383 0.489 16.564 16.099 0.480
PRIMET_226 2017-09-28 18:35:00 226 156.7 0.00 209 0.007 0.007 223.600 0.000 14.460 14.180 0.496 0.504 14.92 14.870 14.960 14.650 97.100 97.000 0.007 14.96 14.910 15.010 14.720 14.87 14.830 14.920 14.610 14.490 14.210 14.420 14.160 16.964 16.468 0.492 16.671 16.172 0.500
PRIMET_226 2017-09-28 18:30:00 226 156.7 0.00 202 0.007 0.007 223.700 0.000 14.490 14.240 0.553 0.569 15.00 14.960 15.050 14.780 96.800 96.600 0.007 15.05 15.000 15.090 14.840 14.96 14.920 15.010 14.710 14.500 14.260 14.480 14.190 17.052 16.500 0.546 16.812 16.235 0.572
PRIMET_226 2017-09-28 18:25:00 226 156.7 0.00 205 0.007 0.007 223.600 0.000 14.560 14.300 0.621 0.641 15.13 15.070 15.150 14.900 96.400 96.200 0.007 15.19 15.120 15.210 14.950 15.06 15.010 15.090 14.840 14.610 14.360 14.500 14.250 17.195 16.575 0.619 16.942 16.298 0.644
PRIMET_226 2017-09-28 18:20:00 226 156.7 0.00 199 0.007 0.007 223.600 0.000 14.620 14.370 0.681 0.683 15.24 15.190 15.270 15.010 96.100 96.000 0.007 15.30 15.240 15.330 15.070 15.19 15.130 15.210 14.950 14.650 14.390 14.610 14.350 17.317 16.639 0.675 17.063 16.372 0.683
PRIMET_226 2017-09-28 18:15:00 226 156.7 0.00 187 0.007 0.007 223.600 0.000 14.700 14.460 0.748 0.756 15.38 15.310 15.400 15.150 95.700 95.600 0.007 15.44 15.380 15.460 15.220 15.31 15.250 15.330 15.080 14.730 14.510 14.640 14.400 17.474 16.725 0.751 17.217 16.468 0.758
PRIMET_226 2017-09-28 18:10:00 226 156.7 0.00 210 0.007 0.007 223.600 0.000 14.760 14.520 0.845 0.849 15.52 15.450 15.540 15.290 95.200 95.100 0.007 15.59 15.510 15.600 15.350 15.45 15.380 15.480 15.230 14.790 14.540 14.720 14.490 17.631 16.790 0.846 17.373 16.532 0.851
PRIMET_226 2017-09-28 18:05:00 226 156.7 0.00 196 0.007 0.007 223.600 0.000 14.850 14.570 0.914 0.948 15.67 15.600 15.690 15.440 94.900 94.600 0.007 15.74 15.680 15.760 15.490 15.60 15.530 15.610 15.370 14.900 14.610 14.790 14.520 17.801 16.888 0.908 17.541 16.586 0.947
PRIMET_226 2017-09-28 18:00:00 226 156.7 0.00 197 0.007 0.007 223.600 0.000 14.940 14.670 0.988 1.013 15.82 15.770 15.850 15.590 94.500 94.300 0.007 15.90 15.840 15.930 15.660 15.74 15.680 15.770 15.500 15.030 14.750 14.880 14.600 17.973 16.986 0.989 17.710 16.693 1.009
PRIMET_226 2017-09-28 17:55:00 226 156.7 0.00 204 0.007 0.007 223.600 0.000 15.070 14.800 1.015 1.069 15.97 15.940 16.030 15.760 94.400 94.000 0.007 16.04 16.020 16.130 15.850 15.90 15.860 15.950 15.670 15.100 14.840 15.050 14.760 18.146 17.129 1.016 17.904 16.834 1.074
PRIMET_226 2017-09-28 17:50:00 226 156.7 0.00 200 0.007 0.007 223.600 0.000 15.200 14.880 1.048 1.187 16.12 16.110 16.210 15.930 94.300 93.400 0.007 16.18 16.190 16.270 16.010 16.06 16.030 16.130 15.850 15.270 14.930 15.110 14.800 18.321 17.273 1.044 18.100 16.921 1.195
PRIMET_226 2017-09-28 17:45:00 226 156.7 0.00 212 0.007 0.007 223.200 0.256 15.340 15.020 1.060 1.244 16.27 16.270 16.370 16.120 94.300 93.200 0.007 16.35 16.370 16.460 16.200 16.18 16.170 16.280 16.030 15.400 15.090 15.230 14.930 18.497 17.429 1.054 18.321 17.074 1.246
PRIMET_226 2017-09-28 17:40:00 226 156.7 0.00 210 0.007 0.007 230.800 1.214 15.480 15.130 1.058 1.306 16.39 16.440 16.550 16.280 94.300 92.900 0.007 16.41 16.470 16.580 16.350 16.35 16.380 16.480 16.210 15.580 15.200 15.400 15.060 18.639 17.586 1.062 18.509 17.195 1.314
PRIMET_226 2017-09-28 17:35:00 226 156.7 0.00 211 0.007 0.007 231.000 0.204 15.590 15.170 1.052 1.445 16.49 16.530 16.650 16.430 94.400 92.300 0.007 16.56 16.610 16.740 16.510 16.41 16.460 16.580 16.340 15.630 15.230 15.530 15.130 18.758 17.710 1.050 18.686 17.239 1.439
PRIMET_226 2017-09-28 17:30:00 226 156.7 0.00 217 0.007 0.007 231.800 0.487 15.590 15.310 1.184 1.474 16.61 16.670 16.810 16.580 93.700 92.200 0.007 16.67 16.720 16.860 16.650 16.55 16.630 16.760 16.510 15.630 15.340 15.540 15.270 18.902 17.710 1.191 18.866 17.395 1.472
PRIMET_226 2017-09-28 17:25:00 226 156.7 0.00 222 0.007 0.007 232.100 0.000 15.730 15.340 1.185 1.596 16.74 16.780 16.920 16.710 93.800 91.600 0.007 16.83 16.820 16.970 16.780 16.67 16.720 16.860 16.650 15.770 15.470 15.650 15.240 19.058 17.870 1.182 19.022 17.429 1.598
PRIMET_226 2017-09-28 17:20:00 226 156.7 0.00 194 0.007 0.007 232.900 0.547 15.830 15.470 1.270 1.632 16.90 16.940 17.050 16.860 93.400 91.500 0.007 16.95 16.980 17.090 16.910 16.83 16.850 16.980 16.790 15.910 15.520 15.740 15.340 19.253 17.985 1.271 19.204 17.575 1.632
PRIMET_226 2017-09-28 17:15:00 226 156.7 0.00 203 0.007 0.007 233.400 0.372 15.920 15.630 1.355 1.661 17.06 17.080 17.200 17.030 93.000 91.400 0.007 17.18 17.210 17.320 17.110 16.95 16.970 17.090 16.930 15.960 15.690 15.820 15.410 19.449 18.088 1.361 19.412 17.756 1.669
PRIMET_226 2017-09-28 17:10:00 226 156.7 0.00 203 0.007 0.007 234.000 0.063 16.010 15.670 1.426 1.800 17.20 17.250 17.370 17.180 92.700 90.800 0.007 17.23 17.270 17.410 17.260 17.18 17.220 17.330 17.110 16.100 15.740 15.950 15.550 19.622 18.193 1.432 19.597 17.801 1.803
PRIMET_226 2017-09-28 17:05:00 226 156.7 0.00 194 0.007 0.007 234.000 0.040 16.080 15.760 1.499 1.948 17.32 17.360 17.510 17.380 92.400 90.200 0.007 17.39 17.450 17.590 17.500 17.25 17.270 17.400 17.270 16.100 15.840 16.050 15.640 19.772 18.274 1.503 19.847 17.904 1.945
PRIMET_226 2017-09-28 17:00:00 226 156.7 0.00 199 0.007 0.007 231.700 3.009 16.130 15.850 1.594 2.078 17.44 17.490 17.650 17.570 92.000 89.700 0.007 17.51 17.560 17.710 17.650 17.40 17.440 17.590 17.510 16.200 15.930 16.080 15.790 19.922 18.333 1.594 20.086 18.008 2.069
PRIMET_226 2017-09-28 16:55:00 226 156.7 0.00 188 0.007 0.007 229.700 0.056 16.170 15.900 1.716 2.255 17.57 17.610 17.790 17.750 91.500 88.900 0.007 17.68 17.710 17.900 17.820 17.50 17.540 17.720 17.660 16.240 15.990 16.090 15.780 20.086 18.379 1.707 20.316 18.065 2.255
PRIMET_226 2017-09-28 16:50:00 226 156.7 0.00 194 0.007 0.007 229.800 0.040 16.160 15.760 1.939 2.559 17.75 17.780 17.940 17.870 90.500 87.500 0.007 17.79 17.830 17.980 17.930 17.70 17.740 17.900 17.820 16.270 15.860 16.050 15.650 20.316 18.368 1.930 20.470 17.904 2.559
PRIMET_226 2017-09-28 16:45:00 226 156.7 0.00 186 0.007 0.007 229.300 0.567 16.110 15.870 2.178 2.664 17.88 17.910 18.080 18.040 89.400 87.100 0.007 17.98 18.000 18.180 18.140 17.79 17.840 17.990 17.940 16.170 15.960 16.050 15.710 20.483 18.309 2.171 20.690 18.031 2.669
PRIMET_226 2017-09-28 16:40:00 226 156.7 0.00 198 0.029 0.029 228.200 1.366 16.110 15.800 2.398 2.944 18.06 18.080 18.240 18.200 88.400 85.900 0.235 18.14 18.140 18.300 18.280 17.99 18.010 18.190 18.130 16.160 15.930 16.080 15.620 20.716 18.309 2.403 20.899 17.950 2.947
PRIMET_226 2017-09-28 16:35:00 226 156.7 0.00 198 0.012 0.012 237.700 0.218 16.130 15.680 2.604 3.325 18.23 18.250 18.400 18.380 87.600 84.300 0.105 18.35 18.360 18.520 18.500 18.15 18.150 18.300 18.280 16.250 15.920 16.000 15.540 20.938 18.333 2.596 21.136 17.813 3.318
PRIMET_226 2017-09-28 16:30:00 226 156.7 0.00 194 0.007 0.007 237.100 0.101 16.010 15.600 3.007 3.695 18.42 18.450 18.620 18.600 85.800 82.800 0.007 18.50 18.530 18.700 18.680 18.36 18.360 18.520 18.510 16.200 15.860 15.830 15.340 21.189 18.193 3.009 21.429 17.722 3.686
PRIMET_226 2017-09-28 16:25:00 226 156.7 0.00 197 0.007 0.007 237.100 0.105 16.010 15.590 3.224 3.993 18.59 18.610 18.800 18.810 84.900 81.600 0.007 18.68 18.710 18.910 18.920 18.49 18.520 18.700 18.670 16.140 15.880 15.750 15.400 21.416 18.193 3.234 21.713 17.710 3.995
PRIMET_226 2017-09-28 16:20:00 226 156.7 0.00 189 0.007 0.007 237.200 0.277 16.000 15.490 3.528 4.436 18.81 18.840 19.040 19.050 83.800 79.870 0.007 18.92 19.000 19.190 19.170 18.69 18.710 18.910 18.920 16.140 15.600 15.790 15.390 21.713 18.181 3.517 22.040 17.597 4.437
PRIMET_226 2017-09-28 16:15:00 226 156.7 0.00 202 0.007 0.006 248.100 16.310 15.860 15.360 3.950 4.883 19.00 19.060 19.250 19.260 82.000 78.140 0.007 19.08 19.120 19.310 19.350 18.92 19.000 19.190 19.170 16.100 15.700 15.470 14.950 21.972 18.019 3.955 22.330 17.451 4.881
PRIMET_226 2017-09-28 16:10:00 226 156.7 0.00 195 0.031 0.031 230.000 7.100 15.880 15.340 4.220 5.192 19.21 19.240 19.420 19.470 81.000 77.060 0.248 19.27 19.300 19.510 19.580 19.11 19.140 19.310 19.370 16.190 15.670 15.570 15.000 22.261 18.042 4.230 22.624 17.429 5.190
PRIMET_226 2017-09-28 16:05:00 226 156.7 0.00 192 0.007 0.007 244.900 0.361 15.840 15.210 4.530 5.680 19.40 19.450 19.650 19.710 79.890 75.270 0.007 19.47 19.540 19.740 19.810 19.29 19.290 19.520 19.590 16.140 15.490 15.610 15.060 22.526 17.996 4.530 22.964 17.284 5.679
PRIMET_226 2017-09-28 16:00:00 226 156.7 0.00 194 0.096 0.095 238.800 6.506 15.790 15.280 4.857 5.983 19.60 19.680 19.870 19.980 78.700 74.370 0.457 19.78 19.870 20.100 20.210 19.47 19.550 19.730 19.810 16.030 15.650 15.520 14.980 22.808 17.939 4.858 23.351 17.362 5.985
PRIMET_226 2017-09-28 15:55:00 226 156.7 0.00 199 0.024 0.024 235.800 1.688 15.530 15.210 5.500 6.568 19.83 19.980 20.200 20.320 76.230 72.460 0.163 19.87 20.060 20.260 20.380 19.79 19.870 20.110 20.230 15.960 15.420 14.980 14.820 23.135 17.642 5.499 23.847 17.284 6.568
PRIMET_226 2017-09-28 15:50:00 226 156.7 0.00 195 0.025 0.025 237.700 0.170 15.540 15.000 5.532 7.067 19.87 20.020 20.310 20.500 76.140 70.700 0.189 20.00 20.130 20.440 20.640 19.75 19.930 20.220 20.380 16.020 15.510 15.090 14.650 23.193 17.654 5.534 24.114 17.052 7.065
PRIMET_226 2017-09-28 15:45:00 226 156.7 0.00 201 0.194 0.063 300.300 66.670 15.660 14.940 5.759 7.454 20.12 20.180 20.480 20.720 75.540 69.500 0.993 20.33 20.340 20.630 20.850 20.01 20.090 20.400 20.670 16.150 15.430 15.150 14.490 23.554 17.790 5.761 24.443 16.986 7.455
PRIMET_226 2017-09-28 15:40:00 226 156.7 0.00 195 0.008 0.007 223.700 25.800 15.660 15.010 6.171 7.699 20.40 20.470 20.760 20.930 74.250 68.910 0.039 20.48 20.510 20.800 20.960 20.33 20.390 20.680 20.870 16.290 15.770 15.100 14.490 23.965 17.790 6.171 24.761 17.063 7.698
PRIMET_226 2017-09-28 15:35:00 226 156.7 0.00 198 0.167 0.101 249.400 50.920 16.030 15.800 6.208 7.318 20.71 20.800 21.140 21.270 74.590 71.050 0.706 20.87 21.020 21.440 21.460 20.50 20.510 20.790 20.970 16.510 16.230 15.400 15.200 24.428 18.216 6.207 25.283 17.950 7.319
PRIMET_226 2017-09-28 15:30:00 226 156.7 0.00 182 0.113 0.110 218.200 13.950 15.840 15.640 6.861 8.120 21.00 21.350 21.740 21.660 72.400 68.650 0.405 21.15 21.510 21.910 21.850 20.89 21.090 21.480 21.480 16.290 16.120 15.130 14.670 24.867 17.996 6.863 25.893 17.767 8.118
PRIMET_226 2017-09-28 15:25:00 226 156.7 0.00 201 0.093 0.086 231.000 22.460 15.750 15.160 7.768 9.810 21.52 22.100 22.490 22.370 69.750 63.750 0.457 21.84 22.720 22.960 22.750 21.17 21.580 22.000 21.920 16.160 15.790 15.140 14.130 25.673 17.893 7.766 27.038 17.228 9.801
PRIMET_226 2017-09-28 15:20:00 226 156.7 0.00 226 0.113 0.106 221.800 19.530 16.020 15.500 8.590 10.210 22.22 22.860 22.990 22.840 67.940 63.300 0.764 22.60 23.190 23.240 23.030 21.85 22.590 22.740 22.640 16.550 16.290 15.310 15.040 26.793 18.204 8.590 27.820 17.609 10.210
PRIMET_226 2017-09-28 15:15:00 226 156.7 0.00 216 0.135 0.099 225.700 41.590 15.660 15.140 10.270 11.080 22.98 23.430 23.410 23.120 63.420 60.830 0.908 23.28 23.860 23.630 23.290 22.65 23.000 23.080 22.990 16.310 15.800 14.890 14.520 28.057 17.790 10.263 28.295 17.206 11.083
PRIMET_226 2017-09-28 15:10:00 226 156.7 0.00 193 0.078 0.056 317.000 43.350 15.760 15.400 10.750 10.970 23.33 23.720 23.530 23.230 62.510 61.480 0.562 23.54 23.880 23.740 23.410 23.21 23.570 23.370 23.110 16.500 16.370 14.790 13.960 28.657 17.904 10.743 28.484 17.496 10.972
PRIMET_226 2017-09-28 15:05:00 226 156.7 0.00 196 0.221 0.168 244.200 39.680 16.060 15.490 11.160 11.390 23.76 24.060 23.830 23.530 62.050 60.730 0.804 24.25 24.760 24.380 23.880 23.47 23.710 23.570 23.340 17.040 16.620 14.900 13.870 29.408 18.251 11.160 29.004 17.597 11.390
PRIMET_226 2017-09-28 15:00:00 226 156.7 0.00 226 0.007 0.006 223.700 9.990 15.800 15.180 11.870 12.170 24.00 24.470 24.240 23.780 60.210 58.660 0.007 24.11 24.630 24.370 23.890 23.88 24.310 24.110 23.690 16.560 16.820 15.010 14.320 29.835 17.950 11.872 29.444 17.250 12.172
PRIMET_226 2017-09-28 14:55:00 226 156.7 0.00 195 0.032 0.031 236.900 10.500 15.960 15.170 11.680 12.070 23.99 24.270 24.030 23.710 60.840 58.830 0.353 24.07 24.410 24.180 23.800 23.90 24.150 23.930 23.640 16.920 16.610 15.270 14.380 29.818 18.135 11.677 29.320 17.239 12.071
PRIMET_226 2017-09-28 14:50:00 226 156.7 0.00 202 0.028 0.028 234.000 5.477 16.280 15.690 11.560 11.610 24.13 24.320 24.140 23.780 61.560 60.560 0.294 24.33 24.520 24.280 23.950 23.95 24.110 23.960 23.700 16.870 16.480 15.650 14.970 30.069 18.509 11.559 29.444 17.824 11.613
PRIMET_226 2017-09-28 14:45:00 226 156.7 0.00 197 0.185 0.085 242.100 59.610 16.100 15.360 12.230 12.350 24.39 24.500 24.260 23.990 59.960 58.580 0.621 24.63 24.930 24.520 24.140 24.20 24.330 24.130 23.860 17.310 16.960 14.900 14.210 30.541 18.298 12.229 29.818 17.451 12.350
PRIMET_226 2017-09-28 14:40:00 226 156.7 0.00 212 0.027 0.027 232.500 14.510 16.480 15.820 12.370 12.210 24.70 24.730 24.400 24.200 60.260 59.550 0.229 24.96 24.960 24.600 24.570 24.50 24.570 24.270 24.010 17.530 16.890 15.900 14.730 31.112 18.746 12.364 30.195 17.973 12.214
PRIMET_226 2017-09-28 14:35:00 226 156.7 0.00 199 0.007 0.006 229.300 17.650 16.560 15.380 12.760 13.440 24.97 25.010 24.740 24.610 59.630 56.550 0.007 25.10 25.260 24.980 24.730 24.85 24.820 24.570 24.480 17.540 16.710 15.420 14.450 31.617 18.842 12.764 30.945 17.474 13.446
PRIMET_226 2017-09-28 14:30:00 226 156.7 0.00 199 0.010 0.009 217.300 15.750 16.130 15.280 13.880 13.770 25.29 25.610 25.180 24.710 56.940 55.790 0.052 25.41 25.810 25.370 24.840 25.09 25.160 24.880 24.610 17.420 17.050 15.190 14.100 32.225 18.333 13.876 31.131 17.362 13.763
PRIMET_226 2017-09-28 14:25:00 226 156.7 0.00 209 0.046 0.039 211.300 30.320 15.760 15.190 14.000 13.790 25.13 25.370 25.050 24.680 56.150 55.610 0.314 25.27 25.510 25.150 24.780 25.05 25.240 24.930 24.550 16.810 16.090 14.340 14.040 31.920 17.904 13.997 31.075 17.262 13.794
PRIMET_226 2017-09-28 14:20:00 226 156.7 0.00 207 0.007 0.006 201.600 13.400 16.230 15.690 14.020 13.540 25.42 25.820 25.330 24.850 56.840 56.860 0.007 25.54 26.030 25.470 24.950 25.31 25.460 25.040 24.680 17.570 17.030 15.310 14.350 32.475 18.450 14.016 31.392 17.824 13.542
PRIMET_226 2017-09-28 14:15:00 226 156.7 0.00 187 0.007 0.006 209.100 14.460 16.590 15.840 13.300 13.470 25.27 25.580 25.330 24.900 58.680 57.220 0.007 25.35 25.750 25.420 24.970 25.19 25.430 25.240 24.850 17.370 17.130 15.740 14.530 32.187 18.878 13.300 31.486 17.996 13.470
PRIMET_226 2017-09-28 14:10:00 226 156.7 0.00 198 0.007 0.007 224.600 4.261 16.670 16.180 13.170 12.880 25.25 25.480 25.230 24.790 59.050 58.840 0.007 25.39 25.660 25.330 24.940 25.10 25.220 25.100 24.620 17.520 17.180 15.510 14.920 32.148 18.974 13.165 31.280 18.391 12.875
PRIMET_226 2017-09-28 14:05:00 226 156.7 0.00 188 0.047 0.046 197.200 11.970 16.950 16.380 12.940 12.300 25.30 25.570 25.110 24.600 59.890 60.240 0.255 25.37 25.700 25.200 24.720 25.22 25.440 24.960 24.470 17.590 17.120 16.230 15.130 32.244 19.314 12.933 30.927 18.627 12.297
PRIMET_226 2017-09-28 14:00:00 226 156.7 0.00 241 0.007 0.006 215.600 6.754 16.680 16.080 13.250 12.810 25.30 25.570 25.090 24.680 58.910 58.800 0.007 25.37 25.670 25.140 24.790 25.23 25.380 25.050 24.580 17.450 17.030 15.870 15.310 32.244 18.986 13.249 31.075 18.274 12.803
PRIMET_226 2017-09-28 13:55:00 226 156.7 0.00 210 0.007 0.006 229.500 19.830 16.900 16.480 13.220 12.340 25.42 25.570 25.090 24.690 59.300 60.320 0.007 25.48 25.780 25.220 24.790 25.39 25.410 24.960 24.560 17.470 17.000 15.830 15.060 32.475 19.253 13.217 31.094 18.746 12.338
PRIMET_226 2017-09-28 13:50:00 226 156.7 0.00 192 0.021 0.020 200.100 12.240 17.270 16.950 12.940 11.810 25.51 25.490 24.980 24.710 60.380 62.060 0.170 25.55 25.660 25.130 24.800 25.46 25.310 24.840 24.630 17.810 17.430 16.790 16.170 32.649 19.709 12.935 31.131 19.314 11.811
PRIMET_226 2017-09-28 13:45:00 226 156.7 0.00 197 0.007 0.006 214.800 15.000 17.260 16.870 12.680 11.730 25.37 25.480 25.020 24.610 60.830 62.100 0.007 25.48 25.620 25.130 24.690 25.30 25.360 24.930 24.530 17.930 17.370 16.370 16.260 32.378 19.697 12.683 30.945 19.216 11.728
PRIMET_226 2017-09-28 13:40:00 226 156.7 0.00 192 0.038 0.031 228.600 33.790 17.050 16.790 12.820 11.790 25.30 25.470 25.040 24.600 60.260 61.860 0.261 25.40 25.660 25.150 24.660 25.25 25.280 24.920 24.530 17.840 17.320 16.520 16.080 32.244 19.437 12.814 30.927 19.119 11.796
PRIMET_226 2017-09-28 13:35:00 226 156.7 0.00 201 0.007 0.006 209.800 15.400 17.300 16.900 12.370 11.650 25.24 25.360 24.960 24.590 61.490 62.290 0.007 25.34 25.590 25.050 24.650 25.15 25.190 24.890 24.530 17.910 17.440 16.830 16.100 32.129 19.747 12.373 30.908 19.253 11.656
PRIMET_226 2017-09-28 13:30:00 226 156.7 0.00 202 0.007 0.006 216.300 12.080 16.900 16.500 12.490 11.820 25.04 25.130 24.710 24.420 60.670 61.350 0.007 25.21 25.540 25.010 24.570 24.97 24.870 24.480 24.340 17.370 17.090 15.950 15.850 31.749 19.253 12.487 30.596 18.770 11.825
PRIMET_226 2017-09-28 13:25:00 226 156.7 0.00 199 0.007 0.006 211.200 20.750 16.830 16.600 12.270 11.510 24.88 24.940 24.620 24.320 60.990 62.160 0.007 25.00 25.110 24.800 24.400 24.61 24.740 24.400 24.220 17.430 17.160 15.920 15.990 31.448 19.168 12.268 30.413 18.890 11.508
PRIMET_226 2017-09-28 13:20:00 226 156.7 0.00 196 0.007 0.007 206.200 1.907 16.990 16.630 11.320 11.320 24.47 24.560 24.430 24.230 63.130 62.590 0.007 24.58 24.750 24.540 24.320 24.43 24.420 24.210 24.100 17.590 17.130 15.810 16.060 30.688 19.363 11.314 30.250 18.926 11.316
PRIMET_226 2017-09-28 13:15:00 226 156.7 0.00 202 0.007 0.006 207.200 18.920 17.140 16.360 11.070 11.100 24.43 24.400 24.150 23.930 63.840 62.630 0.007 24.51 24.560 24.310 24.100 24.36 24.260 24.030 23.800 17.690 17.130 16.590 15.150 30.614 19.548 11.070 29.710 18.603 11.103
PRIMET_226 2017-09-28 13:10:00 226 156.7 0.00 195 0.007 0.006 210.400 22.680 16.750 15.960 11.680 11.500 24.51 24.490 24.250 23.890 62.020 61.220 0.007 24.64 24.610 24.370 23.960 24.31 24.230 23.920 23.780 17.820 16.990 15.770 15.030 30.761 19.071 11.683 29.639 18.135 11.494
PRIMET_226 2017-09-28 13:05:00 226 156.7 0.00 210 0.016 0.015 231.000 23.870 16.330 16.190 11.390 11.170 24.07 24.360 24.250 23.850 61.980 62.250 0.085 24.29 24.590 24.430 24.000 23.91 24.080 24.050 23.750 17.080 16.600 15.350 14.890 29.961 18.568 11.391 29.568 18.403 11.162
PRIMET_226 2017-09-28 13:00:00 226 156.7 0.00 218 0.007 0.007 214.800 4.286 16.340 15.760 10.700 11.140 23.70 23.860 23.830 23.550 63.460 61.660 0.007 23.88 24.110 24.120 23.760 23.54 23.510 23.480 23.410 17.390 16.360 15.370 14.890 29.302 18.580 10.707 29.039 17.904 11.134
PRIMET_226 2017-09-28 12:55:00 226 156.7 0.00 254 0.015 0.015 206.800 0.589 15.950 15.150 11.040 11.590 23.62 23.630 23.550 23.420 62.150 59.770 0.111 23.68 23.710 23.640 23.450 23.57 23.550 23.480 23.390 17.300 15.830 15.080 14.380 29.162 18.123 11.038 28.812 17.217 11.591
PRIMET_226 2017-09-28 12:50:00 226 156.7 0.00 237 0.008 0.007 195.300 19.730 16.010 14.930 10.590 11.540 23.40 23.410 23.290 23.250 63.220 59.530 0.033 23.59 23.680 23.540 23.430 23.20 23.130 23.060 23.140 16.780 16.300 15.080 13.940 28.778 18.193 10.584 28.519 16.975 11.541
PRIMET_226 2017-09-28 12:45:00 226 156.7 0.00 188 0.008 0.006 187.500 44.440 15.830 14.500 10.340 11.930 23.14 23.220 23.150 23.210 63.500 58.070 0.039 23.21 23.320 23.290 23.260 23.02 23.160 23.040 23.170 16.830 16.250 14.900 13.790 28.330 17.985 10.340 28.450 16.511 11.929
PRIMET_226 2017-09-28 12:40:00 226 156.7 0.00 214 0.007 0.007 214.800 5.379 15.980 14.590 9.650 11.430 22.83 23.010 23.010 22.980 65.300 59.260 0.007 22.99 23.340 23.280 23.140 22.73 22.820 22.860 22.870 17.010 16.290 15.390 13.750 27.803 18.158 9.648 28.057 16.607 11.430
PRIMET_226 2017-09-28 12:35:00 226 156.7 0.00 198 0.021 0.021 219.700 2.483 16.230 15.110 8.960 10.750 22.60 22.750 22.800 22.910 67.330 61.520 0.248 22.72 22.870 22.920 23.000 22.47 22.550 22.650 22.840 16.930 16.250 15.360 14.120 27.419 18.450 8.958 27.938 17.173 10.751
PRIMET_226 2017-09-28 12:30:00 226 156.7 0.00 205 0.019 0.017 236.900 21.420 15.760 14.400 9.090 11.520 22.35 22.540 22.690 22.900 66.330 58.770 0.203 22.47 22.730 22.810 23.000 22.21 22.410 22.560 22.770 16.460 15.890 15.180 13.960 27.005 17.904 9.093 27.922 16.404 11.512
PRIMET_226 2017-09-28 12:25:00 226 156.7 0.00 202 0.007 0.007 206.100 2.038 15.770 14.320 8.670 11.100 22.09 22.280 22.400 22.600 67.400 59.540 0.007 22.18 22.480 22.590 22.740 22.04 22.100 22.220 22.480 16.730 15.460 14.930 13.780 26.582 17.916 8.666 27.419 16.320 11.094
PRIMET_226 2017-09-28 12:20:00 226 156.7 0.00 199 0.007 0.007 204.600 0.084 15.910 13.910 8.240 11.000 21.93 22.060 22.170 22.280 68.710 59.110 0.007 22.05 22.270 22.350 22.460 21.83 21.860 21.920 22.160 16.650 14.440 14.740 13.520 26.324 18.077 8.237 26.891 15.892 10.996
PRIMET_226 2017-09-28 12:15:00 226 156.7 0.00 220 0.007 0.007 202.400 4.576 15.840 13.950 8.070 10.580 21.78 21.970 22.050 22.050 69.060 60.100 0.007 21.84 22.040 22.170 22.150 21.70 21.890 21.960 21.920 16.670 14.530 15.150 13.600 26.084 17.996 8.070 26.517 15.933 10.580
PRIMET_226 2017-09-28 12:10:00 226 156.7 0.00 190 0.048 0.021 120.500 60.710 15.660 14.190 7.818 9.860 21.48 21.890 21.870 21.760 69.480 62.150 0.261 21.67 22.030 21.990 21.920 21.20 21.690 21.660 21.670 16.450 15.050 14.330 13.690 25.610 17.790 7.816 26.052 16.183 9.861
PRIMET_226 2017-09-28 12:05:00 226 156.7 0.00 200 0.007 0.007 52.490 0.466 15.200 13.700 7.616 9.700 21.02 21.530 21.540 21.330 69.410 61.790 0.007 21.18 21.770 21.780 21.640 20.80 21.330 21.310 21.030 16.160 14.380 14.220 12.960 24.898 17.273 7.616 25.376 15.676 9.696
PRIMET_226 2017-09-28 12:00:00 226 156.7 0.00 200 0.043 0.036 52.680 34.010 15.120 13.350 7.208 9.390 20.69 21.160 21.110 20.900 70.470 62.000 0.353 20.78 21.280 21.280 20.980 20.56 21.000 21.000 20.850 16.030 14.520 14.190 12.790 24.398 17.184 7.205 24.715 15.323 9.392
PRIMET_226 2017-09-28 11:55:00 226 156.7 0.00 200 0.007 0.007 189.600 2.536 14.650 13.160 7.218 9.630 20.35 20.940 20.980 20.940 69.800 61.110 0.007 20.56 21.160 21.090 20.970 20.16 20.720 20.800 20.900 15.110 13.730 13.900 12.780 23.892 16.671 7.215 24.776 15.134 9.635
PRIMET_226 2017-09-28 11:50:00 226 156.7 0.00 191 0.007 0.006 196.400 15.440 14.670 13.440 6.739 9.120 20.04 20.640 20.840 20.780 71.240 62.830 0.007 20.16 20.740 21.040 20.920 19.85 20.560 20.650 20.560 15.320 14.550 14.050 13.020 23.438 16.693 6.741 24.533 15.413 9.119
PRIMET_226 2017-09-28 11:45:00 226 156.7 0.00 190 0.016 0.016 214.500 0.815 14.410 13.420 6.568 8.590 19.73 20.280 20.380 20.410 71.430 64.170 0.170 19.84 20.530 20.570 20.520 19.63 20.140 20.250 20.240 15.050 13.920 13.980 12.890 22.992 16.415 6.569 23.980 15.393 8.592
PRIMET_226 2017-09-28 11:40:00 226 156.7 0.00 194 0.007 0.007 215.700 0.040 14.300 12.950 6.379 8.540 19.51 20.020 20.090 20.070 71.880 63.610 0.007 19.63 20.210 20.230 20.240 19.30 19.780 19.930 19.950 14.750 13.470 13.830 12.560 22.680 16.298 6.378 23.482 14.928 8.545
PRIMET_226 2017-09-28 11:35:00 226 156.7 0.00 211 0.007 0.007 215.700 0.040 14.620 13.010 5.476 7.982 19.10 19.690 19.830 19.710 75.240 65.250 0.007 19.28 19.900 19.980 19.930 18.98 19.480 19.630 19.480 15.130 13.500 14.230 12.690 22.109 16.639 5.474 22.964 14.986 7.980
PRIMET_226 2017-09-28 11:30:00 226 156.7 0.00 198 0.007 0.007 215.600 0.040 14.010 12.540 5.839 7.928 18.90 19.420 19.670 19.350 73.260 64.700 0.007 18.99 19.510 19.720 19.470 18.76 19.250 19.580 19.120 14.390 12.900 13.660 12.290 21.835 15.995 5.839 22.456 14.532 7.927
PRIMET_226 2017-09-28 11:25:00 226 156.7 0.00 192 0.007 0.007 215.700 0.028 14.420 12.580 5.021 7.247 18.61 18.970 19.220 18.880 76.590 66.780 0.007 18.75 19.210 19.520 19.070 18.47 18.840 19.070 18.790 15.020 12.770 13.860 12.410 21.443 16.426 5.020 21.808 14.570 7.244
PRIMET_226 2017-09-28 11:20:00 226 156.7 0.00 193 0.007 0.007 215.700 0.000 13.980 12.590 5.056 6.886 18.29 18.710 18.930 18.620 75.950 67.920 0.007 18.44 18.880 19.090 18.780 18.12 18.520 18.700 18.560 14.310 12.800 13.750 12.380 21.017 15.964 5.055 21.456 14.579 6.883
PRIMET_226 2017-09-28 11:15:00 226 156.7 0.00 214 0.007 0.007 215.700 0.028 14.050 12.600 4.574 6.708 17.98 18.380 18.550 18.500 77.820 68.510 0.007 18.09 18.450 18.650 18.560 17.87 18.320 18.420 18.330 14.910 12.810 13.610 12.360 20.612 16.037 4.572 21.296 14.589 6.706
PRIMET_226 2017-09-28 11:10:00 226 156.7 0.00 202 0.007 0.007 215.700 0.040 13.840 12.550 4.405 6.181 17.68 18.050 18.090 18.070 78.220 70.180 0.007 17.87 18.320 18.400 18.290 17.57 17.820 17.900 17.970 14.520 12.870 13.290 12.260 20.226 15.819 4.405 20.729 14.541 6.181
PRIMET_226 2017-09-28 11:05:00 226 156.7 0.00 186 0.007 0.007 215.700 0.040 13.990 12.680 4.057 5.823 17.52 17.790 17.840 17.890 79.740 71.590 0.007 17.57 17.850 17.990 18.010 17.46 17.650 17.550 17.670 14.350 13.040 13.570 12.450 20.023 15.974 4.057 20.495 14.666 5.823
PRIMET_226 2017-09-28 11:00:00 226 156.7 0.00 213 0.007 0.007 215.700 0.040 14.240 12.950 3.612 4.882 17.38 17.530 17.330 17.350 81.800 75.380 0.007 17.46 17.650 17.530 17.640 17.33 17.430 17.180 16.990 14.540 13.430 13.770 12.630 19.847 16.235 3.612 19.809 14.928 4.877
PRIMET_226 2017-09-28 10:55:00 226 156.7 0.00 199 0.007 0.007 215.700 0.000 14.450 12.980 3.179 4.335 17.22 17.210 16.920 16.940 83.800 77.530 0.007 17.32 17.440 17.170 16.970 17.03 16.990 16.670 16.900 15.130 13.230 13.720 12.680 19.647 16.457 3.183 19.302 14.957 4.337
PRIMET_226 2017-09-28 10:50:00 226 156.7 0.00 243 0.007 0.007 215.700 0.028 14.170 13.360 2.881 3.880 16.73 16.680 16.450 16.870 84.900 79.810 0.007 17.01 16.960 16.650 16.980 16.48 16.520 16.300 16.700 14.730 13.460 13.650 13.290 19.046 16.162 2.876 19.216 15.333 3.880
PRIMET_226 2017-09-28 10:45:00 226 156.7 0.00 198 0.007 0.007 215.900 0.256 13.770 13.250 2.656 3.930 16.19 16.450 16.310 16.820 85.600 79.490 0.007 16.44 16.530 16.360 17.050 15.89 16.280 16.270 16.700 14.250 13.420 13.240 13.060 18.403 15.748 2.650 19.155 15.223 3.929
PRIMET_226 2017-09-28 10:40:00 226 156.7 0.00 197 0.007 0.007 215.300 0.048 13.050 12.840 2.659 4.593 15.57 15.990 16.270 17.030 85.000 76.340 0.007 15.84 16.230 16.330 17.180 15.44 15.890 16.170 16.810 13.830 13.100 12.690 12.650 17.688 15.025 2.653 19.412 14.820 4.593
PRIMET_226 2017-09-28 10:35:00 226 156.7 0.00 236 0.007 0.007 214.000 0.960 12.720 12.840 2.646 4.011 15.27 15.780 15.960 16.550 84.800 78.700 0.007 15.43 15.900 16.160 16.780 14.99 15.590 15.730 16.390 12.800 12.930 12.620 12.700 17.351 14.704 2.637 18.830 14.820 4.011
PRIMET_226 2017-09-28 10:30:00 226 156.7 0.00 187 0.007 0.007 213.400 0.074 12.590 12.690 2.237 4.305 14.78 15.500 15.980 16.680 86.700 77.320 0.007 14.96 15.560 16.100 16.760 14.67 15.450 15.750 16.480 12.790 12.860 12.440 12.470 16.812 14.579 2.236 18.986 14.675 4.306
PRIMET_226 2017-09-28 10:25:00 226 156.7 0.00 192 0.007 0.007 213.100 0.922 12.490 12.620 1.973 4.083 14.45 15.330 15.910 16.430 88.000 78.160 0.007 14.64 15.460 16.060 16.620 14.24 15.210 15.740 16.190 12.630 12.740 12.420 12.440 16.457 14.484 1.975 18.686 14.608 4.081
PRIMET_226 2017-09-28 10:20:00 226 156.7 0.00 198 0.007 0.007 212.500 0.056 12.340 12.570 1.555 3.537 13.92 14.950 15.500 15.930 90.200 80.500 0.007 14.22 15.190 15.720 16.190 13.63 14.650 15.240 15.660 12.480 12.680 12.220 12.450 15.902 14.342 1.558 18.100 14.560 3.529
PRIMET_226 2017-09-28 10:15:00 226 156.7 0.00 197 0.007 0.007 213.300 0.348 12.230 12.500 1.318 3.097 13.59 14.570 15.090 15.480 91.500 82.400 0.007 13.65 14.630 15.220 15.630 13.54 14.510 15.010 15.290 12.280 12.620 12.190 12.340 15.564 14.239 1.323 17.586 14.494 3.095
PRIMET_226 2017-09-28 10:10:00 226 156.7 0.00 205 0.007 0.007 213.000 0.105 12.120 12.350 1.546 2.749 13.70 14.750 14.940 15.050 90.100 83.900 0.007 13.74 14.820 15.000 15.280 13.67 14.650 14.880 14.850 12.300 12.460 11.940 12.220 15.676 14.136 1.552 17.107 14.351 2.754
PRIMET_226 2017-09-28 10:05:00 226 156.7 0.00 204 0.007 0.007 213.700 0.088 11.930 12.240 1.428 2.488 13.42 14.570 14.720 14.710 90.700 85.100 0.007 13.65 14.770 14.870 14.850 13.24 14.310 14.530 14.560 12.030 12.310 11.800 12.140 15.393 13.960 1.432 16.736 14.248 2.494
PRIMET_226 2017-09-28 10:00:00 226 156.7 0.00 201 0.007 0.007 213.800 0.242 11.760 12.090 1.364 2.246 13.20 14.300 14.430 14.350 91.000 86.300 0.007 13.24 14.320 14.520 14.540 13.15 14.260 14.320 14.170 11.800 12.170 11.740 12.020 15.173 13.804 1.366 16.351 14.108 2.240
PRIMET_226 2017-09-28 09:55:00 226 156.7 0.00 240 0.007 0.006 256.500 29.620 11.830 12.080 0.998 1.836 12.89 14.090 14.110 13.960 93.300 88.500 0.007 13.16 14.300 14.320 14.150 12.62 13.740 13.830 13.830 11.860 12.170 11.780 12.020 14.869 13.868 0.996 15.943 14.099 1.833
PRIMET_226 2017-09-28 09:50:00 226 156.7 0.00 202 0.007 0.007 278.100 0.000 11.780 11.950 0.494 1.604 12.31 13.310 13.600 13.610 96.600 89.700 0.007 12.58 13.710 13.810 13.820 12.01 12.890 13.360 13.370 11.820 12.030 11.750 11.840 14.314 13.822 0.487 15.585 13.978 1.605
PRIMET_226 2017-09-28 09:45:00 226 156.7 0.00 203 0.007 0.007 278.200 0.000 11.410 11.860 0.205 1.156 11.64 12.450 12.980 13.070 98.500 92.300 0.007 11.97 12.850 13.330 13.350 11.39 12.130 12.600 12.810 11.730 11.940 11.120 11.730 13.695 13.488 0.205 15.045 13.896 1.158
PRIMET_226 2017-09-28 09:40:00 226 156.7 0.00 210 0.007 0.007 278.200 0.000 10.960 11.600 0.271 0.956 11.27 12.010 12.460 12.630 98.000 93.500 0.007 11.37 12.120 12.570 12.780 11.21 11.960 12.420 12.560 11.100 11.720 10.890 11.460 13.364 13.091 0.267 14.618 13.659 0.950
PRIMET_226 2017-09-28 09:35:00 226 156.7 0.00 203 0.007 0.007 278.200 0.000 10.840 11.490 0.264 1.026 11.14 12.050 12.630 12.590 98.000 93.000 0.007 11.21 12.170 12.790 12.640 11.08 11.960 12.460 12.530 10.890 11.610 10.810 11.420 13.249 12.987 0.265 14.579 13.560 1.021
PRIMET_226 2017-09-28 09:30:00 226 156.7 0.00 203 0.007 0.007 278.200 0.000 10.680 11.460 0.268 0.767 10.99 12.090 12.660 12.300 98.000 94.600 0.007 11.08 12.190 12.790 12.510 10.93 11.940 12.440 12.080 10.820 11.580 10.560 11.270 13.117 12.850 0.262 14.304 13.533 0.772
PRIMET_226 2017-09-28 09:25:00 226 156.7 0.00 203 0.007 0.007 278.200 0.000 10.800 11.240 0.072 0.573 10.89 11.890 12.270 11.880 99.500 95.900 0.007 10.95 11.970 12.430 12.070 10.79 11.730 12.030 11.660 10.890 11.320 10.650 11.140 13.030 12.953 0.065 13.914 13.337 0.570
PRIMET_226 2017-09-28 09:20:00 226 156.7 0.00 207 0.007 0.007 278.200 0.000 10.440 11.000 0.000 0.361 10.44 11.330 11.650 11.410 100.000 97.300 0.007 10.78 11.720 11.990 11.650 9.97 10.850 11.260 11.120 10.780 11.140 9.970 10.820 12.645 12.645 0.000 13.488 13.126 0.364
PRIMET_226 2017-09-28 09:15:00 226 156.7 0.00 204 0.007 0.007 278.200 0.000 9.670 10.700 0.000 0.110 9.67 10.440 10.870 10.830 100.000 99.200 0.007 9.91 10.830 11.260 11.100 9.53 10.210 10.510 10.490 9.910 10.830 9.530 10.440 12.010 12.010 0.000 12.979 12.867 0.104
PRIMET_226 2017-09-28 09:10:00 226 156.7 0.00 208 0.007 0.007 278.200 0.000 9.360 10.050 0.000 0.079 9.36 10.000 10.270 10.140 100.000 99.400 0.007 9.49 10.190 10.500 10.450 9.29 9.910 10.100 9.950 9.490 10.400 9.290 9.820 11.762 11.762 0.000 12.394 12.320 0.074
PRIMET_226 2017-09-28 09:05:00 226 156.7 0.00 219 0.007 0.007 278.200 0.000 9.310 9.760 0.000 0.116 9.31 9.870 10.030 9.900 100.000 99.000 0.007 9.37 9.920 10.080 9.960 9.21 9.830 10.000 9.840 9.370 9.830 9.210 9.700 11.722 11.722 0.000 12.197 12.083 0.122
PRIMET_226 2017-09-28 09:00:00 226 156.7 0.00 204 0.007 0.007 278.300 0.000 9.160 9.770 0.000 0.041 9.16 9.800 10.070 9.820 100.000 99.700 0.007 9.22 9.880 10.210 9.850 9.12 9.760 9.990 9.780 9.220 9.850 9.120 9.650 11.604 11.604 0.000 12.131 12.091 0.036
PRIMET_226 2017-09-28 08:55:00 226 156.7 0.00 213 0.007 0.007 278.300 0.000 9.170 9.570 0.000 0.000 9.17 9.790 10.110 9.570 100.000 100.000 0.007 9.25 9.910 10.220 9.760 8.97 9.540 9.850 9.410 9.250 9.760 8.970 9.410 11.612 11.612 0.000 11.929 11.929 0.000
PRIMET_226 2017-09-28 08:50:00 226 156.7 0.00 218 0.007 0.007 278.300 0.000 8.700 9.080 0.000 0.000 8.70 9.170 9.390 9.080 100.000 100.000 0.007 8.94 9.510 9.800 9.380 8.40 8.770 8.950 8.750 8.940 9.380 8.400 8.750 11.249 11.249 0.000 11.542 11.542 0.000
PRIMET_226 2017-09-28 08:45:00 226 156.7 0.00 212 0.007 0.007 278.400 0.000 8.180 8.450 0.000 0.000 8.18 8.410 8.560 8.450 100.000 100.000 0.007 8.34 8.710 8.890 8.710 8.09 8.260 8.370 8.250 8.340 8.710 8.090 8.250 10.859 10.859 0.000 11.060 11.060 0.000
PRIMET_226 2017-09-28 08:40:00 226 156.7 0.00 204 0.007 0.007 278.500 0.048 7.975 8.120 0.000 0.000 7.97 8.130 8.260 8.120 100.000 100.000 0.007 8.08 8.250 8.360 8.250 7.91 8.060 8.190 8.020 8.080 8.250 7.906 8.020 10.709 10.709 0.000 10.815 10.815 0.000
PRIMET_226 2017-09-28 08:35:00 226 156.7 0.00 204 0.007 0.007 278.600 0.000 7.827 7.898 0.000 0.000 7.83 7.971 8.090 7.898 100.000 100.000 0.007 7.91 8.050 8.170 8.000 7.77 7.908 8.020 7.829 7.906 8.000 7.766 7.829 10.601 10.601 0.000 10.653 10.653 0.000
PRIMET_226 2017-09-28 08:30:00 226 156.7 0.00 210 0.007 0.007 278.600 0.000 7.725 7.794 0.000 0.000 7.72 7.851 7.979 7.794 100.000 100.000 0.007 7.77 7.903 8.020 7.829 7.65 7.796 7.919 7.736 7.766 7.829 7.652 7.736 10.528 10.528 0.000 10.577 10.577 -0.000
PRIMET_226 2017-09-28 08:25:00 226 156.7 0.00 205 0.007 0.007 278.600 0.000 7.609 7.669 0.000 0.000 7.61 7.729 7.843 7.670 100.000 100.000 0.007 7.66 7.780 7.914 7.743 7.58 7.697 7.812 7.639 7.662 7.743 7.579 7.639 10.445 10.445 0.000 10.488 10.488 0.000
PRIMET_226 2017-09-28 08:20:00 226 156.7 0.00 202 0.007 0.007 278.600 0.000 7.567 7.627 0.000 0.000 7.57 7.696 7.816 7.628 100.000 100.000 0.007 7.59 7.710 7.824 7.643 7.54 7.668 7.796 7.606 7.589 7.642 7.536 7.606 10.415 10.415 0.000 10.458 10.458 0.000
PRIMET_226 2017-09-28 08:15:00 226 156.7 0.00 210 0.007 0.007 278.600 0.000 7.516 7.571 0.000 0.000 7.52 7.634 7.757 7.571 100.000 100.000 0.007 7.54 7.676 7.804 7.603 7.51 7.611 7.734 7.549 7.539 7.602 7.506 7.549 10.378 10.378 0.000 10.418 10.418 0.000
PRIMET_226 2017-09-28 08:10:00 226 156.7 0.00 206 0.007 0.007 278.600 0.000 7.482 7.524 0.000 0.000 7.48 7.593 7.713 7.524 100.000 100.000 0.007 7.51 7.627 7.747 7.562 7.46 7.566 7.691 7.502 7.512 7.562 7.459 7.502 10.354 10.354 0.000 10.384 10.384 0.000
PRIMET_226 2017-09-28 08:05:00 226 156.7 0.00 204 0.007 0.007 278.600 0.000 7.454 7.480 0.000 0.000 7.45 7.551 7.665 7.480 100.000 100.000 0.007 7.47 7.584 7.699 7.516 7.44 7.534 7.645 7.462 7.469 7.516 7.439 7.462 10.335 10.335 -0.000 10.353 10.353 0.000
PRIMET_226 2017-09-28 08:00:00 226 156.7 0.00 203 0.007 0.007 278.600 0.000 7.423 7.441 0.000 0.000 7.42 7.517 7.626 7.441 100.000 100.000 0.007 7.47 7.571 7.675 7.476 7.39 7.469 7.571 7.396 7.466 7.476 7.392 7.396 10.313 10.313 0.000 10.325 10.325 0.000
PRIMET_226 2017-09-28 07:55:00 226 156.7 0.00 204 0.007 0.007 278.600 0.000 7.421 7.427 0.000 0.000 7.42 7.491 7.601 7.427 100.000 100.000 0.007 7.44 7.525 7.630 7.446 7.40 7.471 7.581 7.409 7.442 7.446 7.402 7.409 10.311 10.311 -0.000 10.316 10.316 0.000
PRIMET_226 2017-09-28 07:50:00 226 156.7 0.00 203 0.007 0.007 278.600 0.000 7.401 7.403 0.000 0.000 7.40 7.500 7.601 7.403 100.000 100.000 0.007 7.44 7.539 7.635 7.439 7.35 7.426 7.541 7.359 7.439 7.439 7.349 7.359 10.297 10.297 0.000 10.299 10.299 0.000
PRIMET_226 2017-09-28 07:45:00 226 156.7 0.00 204 0.007 0.007 278.600 0.000 7.358 7.370 0.000 0.000 7.36 7.432 7.545 7.370 100.000 100.000 0.007 7.37 7.453 7.565 7.382 7.34 7.413 7.528 7.356 7.372 7.382 7.336 7.356 10.267 10.267 0.000 10.275 10.275 0.000
PRIMET_226 2017-09-28 07:40:00 226 156.7 0.00 202 0.007 0.007 278.600 0.000 7.366 7.361 0.000 0.000 7.37 7.443 7.549 7.361 100.000 100.000 0.007 7.39 7.469 7.573 7.382 7.35 7.424 7.531 7.336 7.386 7.382 7.349 7.336 10.273 10.273 0.000 10.269 10.269 0.000
PRIMET_226 2017-09-28 07:35:00 226 156.7 0.00 204 0.007 0.007 278.600 0.000 7.342 7.348 0.000 0.000 7.34 7.431 7.539 7.348 100.000 100.000 0.007 7.38 7.469 7.580 7.369 7.32 7.395 7.507 7.329 7.376 7.369 7.319 7.329 10.256 10.256 0.000 10.260 10.260 0.000
PRIMET_226 2017-09-28 07:30:00 226 156.7 0.00 206 0.007 0.007 278.600 0.000 7.320 7.345 0.000 0.000 7.32 7.417 7.533 7.345 100.000 100.000 0.007 7.35 7.432 7.546 7.356 7.28 7.383 7.519 7.329 7.352 7.356 7.279 7.329 10.240 10.240 0.000 10.258 10.258 0.000
PRIMET_226 2017-09-28 07:25:00 226 156.7 0.00 209 0.007 0.007 278.600 0.000 7.264 7.309 0.000 0.000 7.26 7.353 7.485 7.309 100.000 100.000 0.007 7.29 7.388 7.516 7.329 7.25 7.338 7.466 7.289 7.286 7.329 7.246 7.289 10.201 10.201 0.000 10.233 10.233 0.000
PRIMET_226 2017-09-28 07:20:00 226 156.7 0.00 202 0.007 0.007 278.600 0.000 7.211 7.263 0.000 0.000 7.21 7.291 7.421 7.263 100.000 100.000 0.007 7.25 7.339 7.461 7.282 7.19 7.261 7.396 7.242 7.246 7.282 7.189 7.242 10.164 10.164 0.000 10.200 10.200 0.000
PRIMET_226 2017-09-28 07:15:00 226 156.7 0.00 203 0.007 0.007 278.600 0.000 7.235 7.288 0.000 0.000 7.24 7.315 7.443 7.288 100.000 100.000 0.007 7.26 7.354 7.469 7.306 7.21 7.271 7.410 7.272 7.256 7.306 7.206 7.272 10.181 10.181 0.000 10.218 10.218 0.000
PRIMET_226 2017-09-28 07:10:00 226 156.7 0.00 203 0.007 0.007 278.600 0.000 7.243 7.267 0.000 0.000 7.24 7.328 7.438 7.267 100.000 100.000 0.007 7.26 7.365 7.480 7.296 7.23 7.309 7.419 7.246 7.259 7.296 7.229 7.246 10.186 10.186 0.000 10.203 10.203 0.000
PRIMET_226 2017-09-28 07:05:00 226 156.7 0.00 202 0.007 0.007 278.600 0.000 7.190 7.219 0.000 0.000 7.19 7.254 7.373 7.219 100.000 100.000 0.007 7.24 7.322 7.432 7.259 7.17 7.203 7.331 7.199 7.239 7.259 7.166 7.199 10.149 10.149 0.000 10.170 10.170 0.000
PRIMET_226 2017-09-28 07:00:00 226 156.7 0.00 202 0.007 0.007 278.600 0.000 7.159 7.202 0.000 0.000 7.16 7.218 7.347 7.202 100.000 100.000 0.007 7.18 7.227 7.352 7.209 7.15 7.208 7.335 7.189 7.176 7.209 7.149 7.189 10.128 10.128 0.000 10.158 10.158 0.000
PRIMET_226 2017-09-28 06:55:00 226 156.7 0.00 202 0.007 0.007 278.600 0.000 7.166 7.211 0.000 0.000 7.17 7.218 7.353 7.211 100.000 100.000 0.007 7.20 7.235 7.366 7.222 7.14 7.207 7.342 7.199 7.195 7.222 7.142 7.199 10.133 10.133 0.000 10.164 10.164 0.000
PRIMET_226 2017-09-28 06:50:00 226 156.7 0.00 208 0.007 0.007 278.600 0.000 7.215 7.235 0.000 0.000 7.22 7.268 7.394 7.235 100.000 100.000 0.007 7.23 7.293 7.410 7.249 7.19 7.235 7.360 7.215 7.232 7.249 7.192 7.215 10.167 10.167 0.000 10.181 10.181 0.000
PRIMET_226 2017-09-28 06:45:00 226 156.7 0.00 202 0.007 0.007 278.600 0.000 7.197 7.241 0.000 0.000 7.20 7.283 7.410 7.241 100.000 100.000 0.007 7.22 7.299 7.427 7.255 7.15 7.262 7.395 7.228 7.222 7.255 7.152 7.228 10.154 10.154 0.000 10.185 10.185 0.000
PRIMET_226 2017-09-28 06:40:00 226 156.7 0.00 208 0.007 0.007 278.600 0.000 7.162 7.218 0.000 0.000 7.16 7.218 7.364 7.218 100.000 100.000 0.007 7.18 7.251 7.387 7.235 7.15 7.202 7.345 7.202 7.179 7.235 7.149 7.202 10.131 10.130 0.000 10.169 10.169 0.000
PRIMET_226 2017-09-28 06:35:00 226 156.7 0.00 202 0.007 0.007 278.600 0.000 7.165 7.204 0.000 0.000 7.16 7.207 7.348 7.204 100.000 100.000 0.007 7.20 7.228 7.376 7.242 7.15 7.181 7.323 7.182 7.195 7.242 7.148 7.182 10.132 10.132 0.000 10.159 10.159 0.000
PRIMET_226 2017-09-28 06:30:00 226 156.7 0.00 207 0.007 0.007 278.600 0.000 7.228 7.231 0.000 0.000 7.23 7.248 7.364 7.231 100.000 100.000 0.007 7.27 7.304 7.410 7.274 7.19 7.206 7.331 7.191 7.268 7.274 7.191 7.191 10.176 10.176 0.000 10.178 10.178 0.000
PRIMET_226 2017-09-28 06:25:00 226 156.7 0.00 204 0.007 0.007 278.600 0.000 7.294 7.292 0.000 0.000 7.29 7.350 7.459 7.292 100.000 100.000 0.007 7.32 7.379 7.486 7.315 7.26 7.309 7.416 7.258 7.318 7.315 7.261 7.258 10.222 10.222 0.000 10.221 10.221 0.000
PRIMET_226 2017-09-28 06:20:00 226 156.7 0.00 201 0.007 0.007 278.600 0.000 7.252 7.267 0.000 0.000 7.25 7.301 7.417 7.267 100.000 100.000 0.007 7.27 7.345 7.457 7.300 7.23 7.271 7.386 7.234 7.274 7.300 7.231 7.234 10.193 10.193 0.000 10.203 10.203 0.000
PRIMET_226 2017-09-28 06:15:00 226 156.7 0.00 204 0.007 0.007 278.600 0.000 7.312 7.338 0.000 0.000 7.31 7.391 7.509 7.338 100.000 100.000 0.007 7.34 7.432 7.536 7.364 7.28 7.325 7.456 7.307 7.340 7.364 7.284 7.307 10.235 10.235 0.000 10.253 10.253 0.000
PRIMET_226 2017-09-28 06:10:00 226 156.7 0.00 222 0.007 0.007 278.600 0.000 7.234 7.308 0.000 0.000 7.23 7.320 7.458 7.308 100.000 100.000 0.007 7.28 7.392 7.523 7.337 7.21 7.283 7.408 7.283 7.284 7.337 7.213 7.283 10.180 10.180 0.000 10.232 10.232 0.000
PRIMET_226 2017-09-28 06:05:00 226 156.7 0.00 202 0.007 0.007 278.600 0.000 7.266 7.307 0.000 0.000 7.27 7.314 7.436 7.307 100.000 100.000 0.007 7.30 7.360 7.482 7.356 7.22 7.270 7.403 7.273 7.300 7.356 7.223 7.273 10.202 10.202 0.000 10.231 10.231 0.000
PRIMET_226 2017-09-28 06:00:00 226 156.7 0.00 203 0.007 0.007 278.600 0.000 7.298 7.344 0.000 0.000 7.30 7.335 7.467 7.344 100.000 100.000 0.007 7.32 7.354 7.494 7.372 7.27 7.314 7.447 7.326 7.325 7.372 7.272 7.326 10.225 10.225 0.000 10.257 10.257 0.000
PRIMET_226 2017-09-28 05:55:00 226 156.7 0.00 209 0.007 0.007 278.500 0.000 7.346 7.404 0.000 0.000 7.35 7.390 7.538 7.404 100.000 100.000 0.007 7.38 7.412 7.558 7.415 7.32 7.361 7.504 7.389 7.379 7.415 7.315 7.389 10.258 10.258 0.000 10.299 10.299 0.000
PRIMET_226 2017-09-28 05:50:00 226 156.7 0.00 197 0.007 0.007 278.600 0.000 7.388 7.431 0.000 0.000 7.39 7.430 7.561 7.431 100.000 100.000 0.007 7.41 7.459 7.600 7.466 7.36 7.411 7.546 7.402 7.415 7.466 7.365 7.402 10.288 10.288 0.000 10.318 10.318 0.000
PRIMET_226 2017-09-28 05:45:00 226 156.7 0.00 204 0.007 0.007 278.600 0.000 7.434 7.492 0.000 0.000 7.43 7.496 7.632 7.492 100.000 100.000 0.007 7.45 7.524 7.654 7.522 7.41 7.456 7.600 7.459 7.452 7.522 7.412 7.458 10.320 10.320 0.000 10.361 10.361 0.000
PRIMET_226 2017-09-28 05:40:00 226 156.7 0.00 202 0.007 0.007 278.600 0.000 7.426 7.467 0.000 0.000 7.43 7.478 7.609 7.467 100.000 100.000 0.007 7.44 7.496 7.621 7.482 7.41 7.448 7.587 7.452 7.442 7.482 7.412 7.452 10.316 10.315 0.000 10.344 10.344 0.000
PRIMET_226 2017-09-28 05:35:00 226 156.7 0.00 203 0.007 0.007 278.500 0.000 7.479 7.503 0.000 0.000 7.48 7.517 7.641 7.504 100.000 100.000 0.007 7.51 7.565 7.688 7.542 7.43 7.474 7.600 7.455 7.512 7.542 7.435 7.455 10.352 10.352 0.000 10.370 10.369 0.000
PRIMET_226 2017-09-28 05:30:00 226 156.7 0.00 203 0.007 0.007 278.600 0.000 7.526 7.532 0.000 0.000 7.53 7.575 7.686 7.532 100.000 100.000 0.007 7.54 7.600 7.694 7.549 7.51 7.547 7.665 7.522 7.542 7.549 7.508 7.522 10.386 10.386 0.000 10.390 10.390 -0.000
PRIMET_226 2017-09-28 05:25:00 226 156.7 0.00 202 0.007 0.007 278.600 0.000 7.579 7.591 0.000 0.000 7.58 7.615 7.732 7.591 100.000 100.000 0.007 7.63 7.689 7.799 7.632 7.53 7.555 7.678 7.539 7.632 7.632 7.535 7.539 10.423 10.423 0.000 10.432 10.432 -0.000
PRIMET_226 2017-09-28 05:20:00 226 156.7 0.00 227 0.007 0.007 278.600 0.000 7.594 7.623 0.000 0.000 7.59 7.655 7.776 7.623 100.000 100.000 0.007 7.64 7.718 7.822 7.652 7.55 7.577 7.718 7.589 7.642 7.652 7.549 7.589 10.434 10.434 0.000 10.455 10.455 0.000
PRIMET_226 2017-09-28 05:15:00 226 156.7 0.00 205 0.007 0.007 278.600 0.000 7.621 7.633 0.000 0.000 7.62 7.641 7.761 7.633 100.000 100.000 0.007 7.68 7.698 7.824 7.689 7.58 7.598 7.726 7.592 7.679 7.689 7.579 7.592 10.453 10.453 -0.000 10.462 10.462 -0.000
PRIMET_226 2017-09-28 05:10:00 226 156.7 0.00 225 0.007 0.007 278.600 0.000 7.720 7.717 0.000 0.000 7.72 7.760 7.880 7.717 100.000 100.000 0.007 7.78 7.819 7.929 7.749 7.67 7.714 7.826 7.685 7.775 7.749 7.672 7.685 10.524 10.524 0.000 10.522 10.522 0.000
PRIMET_226 2017-09-28 05:05:00 226 156.7 0.00 203 0.007 0.007 278.600 0.000 7.734 7.725 0.000 0.000 7.73 7.785 7.900 7.726 100.000 100.000 0.007 7.78 7.834 7.949 7.755 7.71 7.748 7.863 7.702 7.779 7.755 7.708 7.702 10.534 10.534 0.000 10.528 10.528 0.000
PRIMET_226 2017-09-28 05:00:00 226 156.7 0.00 202 0.007 0.007 278.600 0.000 7.765 7.759 0.000 0.000 7.76 7.808 7.928 7.759 100.000 100.000 0.007 7.79 7.845 7.958 7.782 7.73 7.754 7.879 7.732 7.788 7.782 7.728 7.732 10.557 10.557 0.000 10.552 10.552 0.000
PRIMET_226 2017-09-28 04:55:00 226 156.7 0.00 202 0.007 0.007 278.600 0.000 7.793 7.780 0.000 0.000 7.79 7.844 7.951 7.780 100.000 100.000 0.007 7.82 7.878 7.983 7.798 7.76 7.801 7.916 7.748 7.815 7.798 7.761 7.748 10.577 10.577 0.000 10.567 10.567 -0.000
PRIMET_226 2017-09-28 04:50:00 226 156.7 0.00 211 0.007 0.007 278.600 0.000 7.765 7.791 0.000 0.000 7.76 7.809 7.925 7.791 100.000 100.000 0.007 7.78 7.828 7.951 7.815 7.74 7.786 7.901 7.765 7.784 7.815 7.745 7.765 10.557 10.557 0.000 10.575 10.575 0.000
PRIMET_226 2017-09-28 04:45:00 226 156.7 0.00 205 0.007 0.007 278.600 0.000 7.812 7.831 0.000 0.000 7.81 7.834 7.963 7.832 100.000 100.000 0.007 7.85 7.886 8.020 7.885 7.78 7.802 7.932 7.797 7.848 7.885 7.778 7.797 10.590 10.590 0.000 10.605 10.604 0.000
PRIMET_226 2017-09-28 04:40:00 226 156.7 0.00 196 0.007 0.007 278.600 0.000 7.894 7.912 0.000 0.000 7.89 7.933 8.060 7.912 100.000 100.000 0.007 7.94 7.974 8.100 7.954 7.85 7.894 8.010 7.878 7.944 7.954 7.851 7.878 10.650 10.650 0.000 10.663 10.663 0.000
PRIMET_226 2017-09-28 04:35:00 226 156.7 0.00 203 0.007 0.007 278.600 0.000 7.982 7.962 0.000 0.000 7.98 8.020 8.130 7.962 100.000 100.000 0.007 8.03 8.060 8.160 7.984 7.95 7.985 8.120 7.941 8.030 7.984 7.954 7.941 10.714 10.714 0.000 10.699 10.699 0.000
PRIMET_226 2017-09-28 04:30:00 226 156.7 0.00 201 0.007 0.007 278.600 0.000 8.030 7.993 0.000 0.000 8.03 8.080 8.190 7.993 100.000 100.000 0.007 8.06 8.120 8.220 8.020 7.97 8.010 8.130 7.960 8.060 8.020 7.967 7.960 10.749 10.749 0.000 10.722 10.722 0.000
PRIMET_226 2017-09-28 04:25:00 226 156.7 0.00 203 0.007 0.007 278.600 0.000 7.977 7.970 0.000 0.000 7.98 7.999 8.130 7.970 100.000 100.000 0.007 8.00 8.030 8.150 8.010 7.96 7.969 8.100 7.947 8.000 8.010 7.957 7.947 10.710 10.710 0.000 10.705 10.705 0.000
PRIMET_226 2017-09-28 04:20:00 226 156.7 0.00 204 0.007 0.007 278.600 0.000 8.040 8.040 0.000 0.000 8.04 8.070 8.190 8.040 100.000 100.000 0.007 8.06 8.110 8.230 8.070 8.00 8.030 8.150 7.996 8.060 8.070 8.000 7.996 10.756 10.756 0.000 10.756 10.756 0.000
PRIMET_226 2017-09-28 04:15:00 226 156.7 0.00 195 0.007 0.007 278.600 0.000 8.060 8.040 0.000 0.000 8.06 8.090 8.210 8.040 100.000 100.000 0.007 8.09 8.110 8.230 8.070 8.03 8.080 8.190 8.020 8.090 8.070 8.030 8.020 10.771 10.771 0.000 10.756 10.756 0.000
PRIMET_226 2017-09-28 04:10:00 226 156.7 0.00 204 0.007 0.007 278.600 0.000 8.120 8.090 0.000 0.000 8.12 8.150 8.260 8.090 100.000 100.000 0.007 8.14 8.190 8.290 8.110 8.09 8.110 8.220 8.060 8.140 8.110 8.090 8.060 10.815 10.815 0.000 10.793 10.793 0.000
PRIMET_226 2017-09-28 04:05:00 226 156.7 0.00 201 0.007 0.007 278.600 0.000 8.130 8.120 0.000 0.000 8.13 8.180 8.290 8.120 100.000 100.000 0.007 8.16 8.200 8.300 8.140 8.12 8.150 8.260 8.090 8.160 8.140 8.120 8.090 10.822 10.822 -0.000 10.815 10.815 0.000
PRIMET_226 2017-09-28 04:00:00 226 156.7 0.00 205 0.083 0.083 278.600 0.069 8.160 8.140 0.000 0.000 8.16 8.190 8.300 8.140 100.000 100.000 0.385 8.22 8.250 8.360 8.190 8.11 8.150 8.260 8.120 8.220 8.190 8.110 8.120 10.844 10.844 0.000 10.830 10.830 0.000
PRIMET_226 2017-09-28 03:55:00 226 156.7 0.00 203 0.110 0.110 299.300 3.257 8.260 8.240 0.000 0.000 8.26 8.330 8.430 8.240 100.000 100.000 0.425 8.33 8.420 8.510 8.300 8.21 8.270 8.360 8.180 8.330 8.300 8.210 8.180 10.918 10.918 0.000 10.904 10.904 0.000
PRIMET_226 2017-09-28 03:50:00 226 156.7 0.00 201 0.091 0.091 299.700 0.056 8.250 8.250 0.000 0.000 8.25 8.350 8.450 8.250 100.000 100.000 0.294 8.33 8.450 8.530 8.300 8.20 8.260 8.370 8.210 8.330 8.300 8.200 8.210 10.911 10.911 0.000 10.911 10.911 0.000
PRIMET_226 2017-09-28 03:45:00 226 156.7 0.00 197 0.007 0.007 299.700 0.000 8.250 8.260 0.000 0.000 8.25 8.320 8.440 8.260 100.000 100.000 0.007 8.30 8.370 8.490 8.290 8.20 8.240 8.380 8.230 8.300 8.290 8.200 8.230 10.911 10.911 0.000 10.918 10.918 0.000
PRIMET_226 2017-09-28 03:40:00 226 156.7 0.00 203 0.007 0.007 299.700 0.040 8.210 8.260 0.000 0.000 8.21 8.260 8.400 8.260 100.000 100.000 0.007 8.24 8.290 8.440 8.290 8.19 8.240 8.370 8.220 8.240 8.290 8.190 8.220 10.881 10.881 0.000 10.918 10.918 0.000
PRIMET_226 2017-09-28 03:35:00 226 156.7 0.00 206 0.007 0.007 299.700 0.000 8.270 8.300 0.000 0.000 8.28 8.330 8.450 8.300 100.000 100.000 0.007 8.31 8.380 8.490 8.320 8.24 8.290 8.430 8.270 8.310 8.320 8.240 8.270 10.933 10.926 0.000 10.948 10.948 0.000
PRIMET_226 2017-09-28 03:30:00 226 156.7 0.00 194 0.007 0.007 299.700 0.000 8.340 8.330 0.000 0.000 8.34 8.380 8.490 8.330 100.000 100.000 0.007 8.40 8.430 8.530 8.390 8.31 8.360 8.460 8.300 8.400 8.390 8.310 8.300 10.978 10.978 0.000 10.970 10.970 0.000
PRIMET_226 2017-09-28 03:25:00 226 156.7 0.00 197 0.007 0.007 299.700 0.000 8.410 8.410 0.000 0.000 8.41 8.480 8.590 8.410 100.000 100.000 0.007 8.43 8.510 8.600 8.420 8.39 8.440 8.550 8.390 8.430 8.420 8.390 8.390 11.030 11.030 0.000 11.030 11.030 0.000
PRIMET_226 2017-09-28 03:20:00 226 156.7 0.00 196 0.007 0.007 299.700 0.028 8.390 8.400 0.000 0.000 8.39 8.420 8.530 8.400 100.000 100.000 0.007 8.44 8.470 8.580 8.440 8.36 8.390 8.500 8.370 8.440 8.440 8.360 8.370 11.015 11.015 -0.000 11.023 11.023 0.000
PRIMET_226 2017-09-28 03:15:00 226 156.7 0.00 204 0.007 0.007 299.700 0.000 8.500 8.480 0.000 0.000 8.50 8.540 8.640 8.480 100.000 100.000 0.007 8.57 8.630 8.720 8.530 8.44 8.460 8.580 8.430 8.570 8.530 8.440 8.430 11.098 11.098 -0.000 11.083 11.083 0.000
PRIMET_226 2017-09-28 03:10:00 226 156.7 0.00 196 0.007 0.007 299.700 0.000 8.520 8.500 0.000 0.000 8.52 8.560 8.660 8.500 100.000 100.000 0.007 8.55 8.640 8.710 8.530 8.50 8.510 8.620 8.480 8.550 8.530 8.500 8.480 11.113 11.113 0.000 11.098 11.098 -0.000
PRIMET_226 2017-09-28 03:05:00 226 156.7 0.00 203 0.007 0.007 299.700 0.000 8.570 8.560 0.000 0.000 8.57 8.600 8.710 8.560 100.000 100.000 0.007 8.64 8.660 8.780 8.610 8.54 8.550 8.670 8.520 8.640 8.610 8.540 8.520 11.151 11.151 0.000 11.143 11.143 0.000
PRIMET_226 2017-09-28 03:00:00 226 156.7 0.00 202 0.007 0.007 299.700 0.028 8.600 8.580 0.000 0.000 8.60 8.660 8.760 8.580 100.000 100.000 0.007 8.65 8.720 8.820 8.620 8.55 8.580 8.690 8.540 8.650 8.620 8.550 8.540 11.173 11.173 0.000 11.158 11.158 0.000
PRIMET_226 2017-09-28 02:55:00 226 156.7 0.00 186 0.007 0.007 299.700 0.000 8.570 8.590 0.000 0.000 8.57 8.610 8.730 8.590 100.000 100.000 0.007 8.59 8.640 8.770 8.630 8.55 8.580 8.700 8.560 8.590 8.630 8.550 8.560 11.151 11.151 0.000 11.166 11.166 0.000
PRIMET_226 2017-09-28 02:50:00 226 156.7 0.00 203 0.026 0.026 299.900 0.056 8.650 8.680 0.000 0.000 8.65 8.700 8.830 8.680 100.000 100.000 0.196 8.68 8.740 8.860 8.710 8.60 8.630 8.780 8.640 8.680 8.710 8.600 8.640 11.211 11.211 0.000 11.234 11.234 0.000
PRIMET_226 2017-09-28 02:45:00 226 156.7 0.00 196 0.007 0.007 299.800 0.000 8.690 8.690 0.000 0.000 8.69 8.740 8.850 8.690 100.000 100.000 0.007 8.72 8.770 8.880 8.700 8.66 8.710 8.840 8.670 8.720 8.700 8.660 8.670 11.242 11.242 0.000 11.242 11.242 0.000
PRIMET_226 2017-09-28 02:40:00 226 156.7 0.00 206 0.007 0.007 303.500 1.881 8.710 8.730 0.000 0.000 8.71 8.750 8.880 8.730 100.000 100.000 0.007 8.76 8.820 8.940 8.770 8.67 8.720 8.840 8.680 8.760 8.770 8.670 8.680 11.257 11.257 0.000 11.272 11.272 0.000
PRIMET_226 2017-09-28 02:35:00 226 156.7 0.00 211 0.007 0.007 304.600 0.000 8.740 8.760 0.000 0.000 8.74 8.790 8.920 8.760 100.000 100.000 0.007 8.81 8.830 8.960 8.800 8.70 8.740 8.890 8.730 8.810 8.800 8.700 8.730 11.280 11.280 0.000 11.295 11.295 0.000
PRIMET_226 2017-09-28 02:30:00 226 156.7 0.00 213 0.007 0.007 304.600 0.000 8.810 8.790 0.000 0.000 8.81 8.860 8.970 8.790 100.000 100.000 0.007 8.84 8.900 9.000 8.810 8.78 8.820 8.920 8.750 8.840 8.810 8.780 8.750 11.333 11.333 0.000 11.318 11.318 0.000
PRIMET_226 2017-09-28 02:25:00 226 156.7 0.00 203 0.007 0.007 304.600 0.000 8.840 8.810 0.000 0.000 8.84 8.890 8.990 8.810 100.000 100.000 0.007 8.87 8.930 9.030 8.840 8.80 8.830 8.930 8.770 8.870 8.840 8.800 8.770 11.356 11.356 0.000 11.333 11.333 0.000
PRIMET_226 2017-09-28 02:20:00 226 156.7 0.00 203 0.059 0.059 305.300 0.168 8.880 8.860 0.000 0.000 8.88 8.960 9.060 8.860 100.000 100.000 0.294 8.91 9.010 9.100 8.880 8.85 8.920 9.030 8.820 8.910 8.880 8.850 8.820 11.387 11.387 0.000 11.372 11.372 0.000
PRIMET_226 2017-09-28 02:15:00 226 156.7 0.00 202 0.170 0.046 268.600 69.250 8.950 8.910 0.000 0.000 8.95 9.000 9.100 8.910 100.000 100.000 0.627 9.01 9.090 9.180 8.970 8.88 8.950 9.050 8.860 9.010 8.970 8.880 8.860 11.441 11.441 0.000 11.410 11.410 0.000
PRIMET_226 2017-09-28 02:10:00 226 156.7 0.00 201 0.028 0.028 217.300 0.419 9.020 8.970 0.000 0.000 9.02 9.080 9.170 8.970 100.000 100.000 0.163 9.04 9.120 9.210 8.990 8.98 9.040 9.150 8.950 9.040 8.990 8.980 8.950 11.495 11.495 0.000 11.457 11.457 0.000
PRIMET_226 2017-09-28 02:05:00 226 156.7 0.00 197 0.007 0.007 217.100 0.781 8.990 8.960 0.000 0.000 8.99 9.050 9.150 8.960 100.000 100.000 0.007 9.02 9.080 9.180 8.970 8.96 9.010 9.120 8.920 9.020 8.970 8.960 8.920 11.472 11.472 0.000 11.449 11.449 0.000
PRIMET_226 2017-09-28 02:00:00 226 156.7 0.00 203 0.007 0.006 188.700 28.250 8.990 8.970 0.000 0.000 8.99 9.030 9.130 8.970 100.000 100.000 0.007 9.02 9.060 9.170 9.010 8.96 9.000 9.110 8.940 9.020 9.010 8.960 8.940 11.472 11.472 0.000 11.457 11.457 0.000
PRIMET_226 2017-09-28 01:55:00 226 156.7 0.00 203 0.007 0.006 207.800 16.240 9.070 9.060 0.000 0.000 9.07 9.130 9.240 9.060 100.000 100.000 0.007 9.11 9.200 9.300 9.100 9.02 9.070 9.170 9.010 9.110 9.100 9.020 9.010 11.534 11.534 0.000 11.526 11.526 0.000
PRIMET_226 2017-09-28 01:50:00 226 156.7 0.00 208 0.007 0.007 233.700 0.105 9.040 9.040 0.000 0.000 9.04 9.090 9.200 9.040 100.000 100.000 0.007 9.08 9.150 9.260 9.070 9.01 9.040 9.160 9.010 9.080 9.070 9.010 9.010 11.511 11.511 -0.000 11.511 11.511 -0.000
PRIMET_226 2017-09-28 01:45:00 226 156.7 0.00 203 0.012 0.010 172.800 34.620 9.120 9.100 0.000 0.000 9.12 9.180 9.280 9.100 100.000 100.000 0.072 9.16 9.240 9.330 9.150 9.07 9.120 9.230 9.060 9.160 9.150 9.070 9.060 11.573 11.573 -0.000 11.558 11.558 0.000
PRIMET_226 2017-09-28 01:40:00 226 156.7 0.00 195 0.007 0.007 207.900 4.242 9.160 9.150 0.000 0.000 9.16 9.220 9.330 9.150 100.000 100.000 0.007 9.20 9.270 9.380 9.190 9.13 9.180 9.300 9.120 9.200 9.190 9.130 9.120 11.604 11.604 0.000 11.597 11.597 0.000
PRIMET_226 2017-09-28 01:35:00 226 156.7 0.00 196 0.007 0.006 198.900 21.190 9.180 9.180 0.000 0.000 9.18 9.250 9.360 9.180 100.000 100.000 0.007 9.20 9.280 9.400 9.220 9.16 9.220 9.330 9.150 9.200 9.220 9.160 9.150 11.620 11.620 0.000 11.620 11.620 0.000
PRIMET_226 2017-09-28 01:30:00 226 156.7 0.00 188 0.033 0.022 183.800 45.830 9.220 9.210 0.000 0.000 9.22 9.290 9.400 9.210 100.000 100.000 0.372 9.25 9.340 9.430 9.230 9.20 9.260 9.370 9.190 9.250 9.230 9.200 9.190 11.652 11.652 0.000 11.644 11.644 -0.000
PRIMET_226 2017-09-28 01:25:00 226 156.7 0.00 205 0.007 0.006 209.200 17.410 9.290 9.260 0.000 0.000 9.29 9.330 9.440 9.260 100.000 100.000 0.007 9.33 9.400 9.500 9.300 9.26 9.280 9.390 9.220 9.330 9.300 9.260 9.220 11.707 11.707 0.000 11.683 11.683 0.000
PRIMET_226 2017-09-28 01:20:00 226 156.7 0.00 202 0.007 0.007 236.000 0.063 9.300 9.280 0.000 0.000 9.30 9.350 9.460 9.280 100.000 100.000 0.007 9.32 9.400 9.510 9.310 9.27 9.320 9.430 9.250 9.320 9.310 9.270 9.250 11.715 11.715 0.000 11.699 11.699 0.000
PRIMET_226 2017-09-28 01:15:00 226 156.7 0.00 205 0.007 0.007 236.000 0.040 9.270 9.280 0.000 0.000 9.27 9.310 9.430 9.280 100.000 100.000 0.007 9.28 9.360 9.460 9.310 9.26 9.300 9.410 9.250 9.280 9.310 9.260 9.250 11.691 11.691 0.000 11.699 11.699 0.000
PRIMET_226 2017-09-28 01:10:00 226 156.7 0.00 195 0.007 0.007 236.000 0.048 9.310 9.310 0.000 0.000 9.31 9.350 9.460 9.310 100.000 100.000 0.007 9.35 9.380 9.490 9.350 9.27 9.300 9.430 9.280 9.350 9.350 9.270 9.280 11.722 11.722 0.000 11.722 11.722 0.000
PRIMET_226 2017-09-28 01:05:00 226 156.7 0.00 190 0.007 0.007 235.900 0.056 9.410 9.390 0.000 0.000 9.41 9.450 9.560 9.390 100.000 100.000 0.007 9.45 9.520 9.620 9.440 9.36 9.390 9.490 9.340 9.450 9.440 9.360 9.340 11.802 11.802 0.000 11.786 11.786 0.000
PRIMET_226 2017-09-28 01:00:00 226 156.7 0.00 190 0.007 0.006 225.300 9.980 9.440 9.420 0.000 0.000 9.44 9.470 9.580 9.420 100.000 100.000 0.007 9.48 9.520 9.620 9.440 9.40 9.430 9.550 9.390 9.480 9.440 9.400 9.390 11.826 11.826 0.000 11.810 11.810 0.000
PRIMET_226 2017-09-28 00:55:00 226 156.7 0.00 197 0.007 0.007 215.700 0.000 9.500 9.490 0.000 0.000 9.50 9.570 9.680 9.490 100.000 100.000 0.007 9.53 9.600 9.710 9.520 9.47 9.520 9.620 9.450 9.530 9.520 9.470 9.450 11.873 11.873 0.000 11.865 11.865 0.000
PRIMET_226 2017-09-28 00:50:00 226 156.7 0.00 190 0.007 0.006 216.700 7.986 9.520 9.520 0.000 0.000 9.52 9.600 9.710 9.520 100.000 100.000 0.007 9.54 9.630 9.730 9.530 9.51 9.570 9.680 9.500 9.540 9.530 9.510 9.500 11.889 11.889 0.000 11.889 11.889 0.000
PRIMET_226 2017-09-28 00:45:00 226 156.7 0.00 200 0.068 0.067 212.400 8.840 9.560 9.560 0.000 0.000 9.56 9.610 9.720 9.560 100.000 100.000 0.340 9.59 9.640 9.750 9.570 9.54 9.590 9.700 9.550 9.590 9.570 9.540 9.550 11.921 11.921 -0.000 11.921 11.921 -0.000
PRIMET_226 2017-09-28 00:40:00 226 156.7 0.00 203 0.007 0.007 211.900 1.161 9.610 9.600 0.000 0.000 9.61 9.650 9.760 9.600 100.000 100.000 0.007 9.64 9.690 9.790 9.620 9.59 9.610 9.720 9.560 9.640 9.620 9.590 9.560 11.962 11.962 0.000 11.953 11.953 0.000
PRIMET_226 2017-09-28 00:35:00 226 156.7 0.00 208 0.007 0.007 210.800 1.074 9.640 9.630 0.000 0.000 9.64 9.680 9.790 9.630 100.000 100.000 0.007 9.66 9.700 9.810 9.650 9.62 9.660 9.770 9.610 9.660 9.650 9.620 9.610 11.986 11.986 0.000 11.978 11.978 0.000
PRIMET_226 2017-09-28 00:30:00 226 156.7 0.00 195 0.007 0.007 206.000 3.969 9.720 9.680 0.000 0.000 9.72 9.760 9.860 9.680 100.000 100.000 0.007 9.81 9.840 9.930 9.720 9.66 9.700 9.820 9.650 9.810 9.720 9.660 9.650 12.050 12.050 0.000 12.018 12.018 0.000
PRIMET_226 2017-09-28 00:25:00 226 156.7 0.00 196 0.007 0.007 226.400 0.988 9.760 9.720 0.000 0.000 9.76 9.800 9.890 9.720 100.000 100.000 0.007 9.79 9.850 9.930 9.750 9.73 9.750 9.860 9.690 9.790 9.750 9.730 9.690 12.083 12.083 0.000 12.050 12.050 0.000
PRIMET_226 2017-09-28 00:20:00 226 156.7 0.00 197 0.007 0.007 225.000 0.310 9.770 9.750 0.000 0.000 9.77 9.790 9.890 9.750 100.000 100.000 0.007 9.79 9.820 9.920 9.760 9.75 9.750 9.860 9.720 9.790 9.760 9.750 9.720 12.091 12.091 0.000 12.075 12.075 0.000
PRIMET_226 2017-09-28 00:15:00 226 156.7 0.00 202 0.007 0.007 224.600 0.000 9.870 9.810 0.000 0.000 9.87 9.870 9.980 9.810 100.000 100.000 0.007 9.93 9.950 10.040 9.860 9.80 9.800 9.910 9.760 9.930 9.860 9.800 9.760 12.172 12.172 0.000 12.123 12.123 0.000
PRIMET_226 2017-09-28 00:10:00 226 156.7 0.00 189 0.007 0.007 224.500 0.056 9.900 9.870 0.000 0.000 9.90 9.930 10.030 9.870 100.000 100.000 0.007 9.93 9.980 10.070 9.900 9.87 9.900 10.000 9.840 9.930 9.900 9.870 9.840 12.197 12.197 0.000 12.172 12.172 0.000
PRIMET_226 2017-09-28 00:05:00 226 156.7 0.00 202 0.007 0.007 224.500 0.000 9.940 9.910 0.000 0.000 9.94 9.950 10.060 9.910 100.000 100.000 0.007 9.95 9.970 10.080 9.930 9.92 9.920 10.040 9.890 9.950 9.930 9.920 9.890 12.229 12.229 0.000 12.205 12.205 0.000
PRIMET_226 2017-09-28 00:00:00 226 156.7 0.00 198 0.007 0.007 224.500 0.101 9.990 9.960 0.000 0.000 9.99 9.990 10.100 9.960 100.000 100.000 0.007 10.05 10.060 10.170 10.000 9.93 9.920 10.040 9.910 10.050 10.000 9.930 9.910 12.271 12.271 0.000 12.246 12.246 0.000
PRIMET_226 2017-09-27 23:55:00 226 156.7 0.00 190 0.007 0.007 224.800 0.278 10.090 10.030 0.000 0.000 10.09 10.120 10.210 10.030 100.000 100.000 0.007 10.11 10.150 10.240 10.050 10.06 10.060 10.170 10.010 10.110 10.050 10.060 10.010 12.353 12.353 0.000 12.303 12.303 0.000
PRIMET_226 2017-09-27 23:50:00 226 156.7 0.00 199 0.007 0.007 225.000 0.192 10.110 10.060 0.000 0.000 10.11 10.150 10.250 10.060 100.000 100.000 0.007 10.13 10.170 10.270 10.090 10.09 10.110 10.220 10.030 10.130 10.090 10.090 10.030 12.370 12.370 0.000 12.328 12.328 0.000
PRIMET_226 2017-09-27 23:45:00 226 156.7 0.00 202 0.030 0.030 224.200 0.148 10.120 10.110 0.000 0.000 10.12 10.160 10.260 10.110 100.000 100.000 0.189 10.17 10.210 10.300 10.150 10.09 10.130 10.230 10.070 10.170 10.150 10.090 10.070 12.378 12.378 0.000 12.370 12.370 0.000
PRIMET_226 2017-09-27 23:40:00 226 156.7 0.00 195 0.007 0.007 225.000 1.379 10.220 10.200 0.000 0.000 10.22 10.260 10.360 10.200 100.000 100.000 0.007 10.28 10.340 10.430 10.250 10.16 10.210 10.320 10.150 10.280 10.250 10.160 10.150 12.461 12.461 0.000 12.444 12.444 0.000
PRIMET_226 2017-09-27 23:35:00 226 156.7 0.00 200 0.007 0.007 227.400 0.000 10.230 10.230 0.000 0.000 10.23 10.280 10.390 10.230 100.000 100.000 0.007 10.26 10.330 10.430 10.260 10.21 10.240 10.350 10.200 10.260 10.260 10.210 10.200 12.469 12.469 0.000 12.469 12.469 0.000
PRIMET_226 2017-09-27 23:30:00 226 156.7 0.00 200 0.051 0.051 227.400 0.451 10.270 10.270 0.000 0.000 10.27 10.310 10.420 10.270 100.000 100.000 0.261 10.30 10.340 10.450 10.310 10.24 10.290 10.400 10.250 10.300 10.310 10.240 10.250 12.503 12.503 0.000 12.503 12.503 0.000
PRIMET_226 2017-09-27 23:25:00 226 156.7 0.00 197 0.007 0.007 231.000 0.040 10.350 10.340 0.000 0.000 10.35 10.390 10.500 10.340 100.000 100.000 0.007 10.41 10.440 10.540 10.370 10.31 10.350 10.450 10.310 10.410 10.370 10.310 10.310 12.570 12.570 0.000 12.561 12.561 0.000
PRIMET_226 2017-09-27 23:20:00 226 156.7 0.00 198 0.007 0.007 231.100 0.190 10.440 10.380 0.000 0.000 10.44 10.490 10.580 10.380 100.000 100.000 0.007 10.46 10.540 10.610 10.400 10.40 10.430 10.550 10.350 10.460 10.400 10.400 10.350 12.645 12.645 0.000 12.595 12.595 0.000
PRIMET_226 2017-09-27 23:15:00 226 156.7 0.00 197 0.008 0.007 224.900 3.740 10.420 10.390 0.000 0.000 10.42 10.460 10.570 10.390 100.000 100.000 0.020 10.44 10.500 10.600 10.420 10.40 10.420 10.540 10.360 10.440 10.420 10.400 10.360 12.629 12.629 0.000 12.603 12.603 0.000
PRIMET_226 2017-09-27 23:10:00 226 156.7 0.00 197 0.007 0.007 222.400 0.056 10.440 10.420 0.000 0.000 10.44 10.460 10.570 10.420 100.000 100.000 0.007 10.48 10.500 10.620 10.460 10.41 10.440 10.550 10.390 10.480 10.460 10.410 10.390 12.645 12.645 0.000 12.629 12.629 0.000
PRIMET_226 2017-09-27 23:05:00 226 156.7 0.00 206 0.007 0.007 222.400 0.170 10.540 10.510 0.000 0.000 10.54 10.550 10.660 10.510 100.000 100.000 0.007 10.62 10.630 10.740 10.590 10.48 10.510 10.610 10.450 10.620 10.590 10.480 10.450 12.730 12.730 0.000 12.705 12.705 0.000
PRIMET_226 2017-09-27 23:00:00 226 156.7 0.00 199 0.007 0.007 223.500 0.101 10.630 10.590 0.000 0.000 10.63 10.660 10.760 10.590 100.000 100.000 0.007 10.67 10.700 10.790 10.610 10.60 10.640 10.730 10.560 10.670 10.610 10.600 10.560 12.807 12.807 0.000 12.773 12.773 0.000
PRIMET_226 2017-09-27 22:55:00 226 156.7 0.00 199 0.007 0.007 223.500 0.137 10.700 10.640 0.000 0.000 10.70 10.720 10.810 10.640 100.000 100.000 0.007 10.73 10.760 10.850 10.670 10.67 10.670 10.760 10.610 10.730 10.670 10.670 10.610 12.867 12.867 0.000 12.815 12.815 0.000
PRIMET_226 2017-09-27 22:50:00 226 156.7 0.00 193 0.007 0.007 223.500 0.000 10.730 10.660 0.000 0.000 10.73 10.720 10.820 10.660 100.000 100.000 0.007 10.78 10.780 10.880 10.700 10.68 10.670 10.770 10.610 10.780 10.700 10.680 10.610 12.892 12.892 0.000 12.832 12.832 0.000
PRIMET_226 2017-09-27 22:45:00 226 156.7 0.00 202 0.007 0.007 223.500 0.000 10.820 10.750 0.000 0.000 10.82 10.840 10.930 10.750 100.000 100.000 0.007 10.84 10.880 10.970 10.780 10.77 10.780 10.870 10.710 10.840 10.780 10.770 10.710 12.970 12.970 0.000 12.910 12.910 0.000
PRIMET_226 2017-09-27 22:40:00 226 156.7 0.00 202 0.007 0.007 223.500 0.000 10.840 10.790 0.000 0.000 10.84 10.880 10.980 10.790 100.000 100.000 0.007 10.85 10.900 10.990 10.810 10.82 10.860 10.960 10.770 10.850 10.810 10.820 10.770 12.987 12.987 0.000 12.944 12.944 0.000
PRIMET_226 2017-09-27 22:35:00 226 156.7 0.00 198 0.007 0.007 223.400 0.048 10.860 10.820 0.000 0.000 10.86 10.880 10.980 10.820 100.000 100.000 0.007 10.89 10.920 11.010 10.840 10.82 10.840 10.950 10.790 10.890 10.840 10.820 10.790 13.004 13.004 0.000 12.970 12.970 0.000
PRIMET_226 2017-09-27 22:30:00 226 156.7 0.00 200 0.007 0.007 223.400 0.093 10.920 10.880 0.000 0.000 10.92 10.930 11.030 10.880 100.000 100.000 0.007 10.94 10.960 11.070 10.910 10.88 10.880 10.980 10.830 10.940 10.910 10.880 10.830 13.056 13.056 0.000 13.022 13.022 0.000
PRIMET_226 2017-09-27 22:25:00 226 156.7 0.00 192 0.007 0.007 223.500 0.000 10.960 10.940 0.001 0.000 10.97 10.970 11.090 10.940 100.000 100.000 0.007 10.99 11.020 11.130 10.980 10.92 10.940 11.060 10.900 10.990 10.980 10.920 10.900 13.100 13.091 0.000 13.074 13.074 0.000
PRIMET_226 2017-09-27 22:20:00 226 156.7 0.00 189 0.007 0.007 223.400 0.048 11.010 10.990 0.010 0.000 11.02 11.020 11.140 10.990 99.900 100.000 0.007 11.06 11.060 11.180 11.030 10.98 11.000 11.110 10.960 11.050 11.030 10.970 10.960 13.144 13.135 0.013 13.117 13.117 0.000
PRIMET_226 2017-09-27 22:15:00 226 156.7 0.00 199 0.007 0.007 223.400 0.000 11.100 11.060 0.007 0.000 11.11 11.120 11.220 11.060 99.900 100.000 0.007 11.14 11.180 11.270 11.100 11.07 11.070 11.180 11.020 11.140 11.100 11.050 11.020 13.222 13.214 0.013 13.179 13.179 -0.000
PRIMET_226 2017-09-27 22:10:00 226 156.7 0.00 190 0.007 0.007 223.400 0.000 11.160 11.120 0.004 0.000 11.16 11.190 11.290 11.120 100.000 100.000 0.007 11.20 11.230 11.330 11.160 11.12 11.160 11.260 11.080 11.200 11.160 11.110 11.080 13.266 13.266 0.000 13.231 13.231 0.000
PRIMET_226 2017-09-27 22:05:00 226 156.7 0.00 213 0.007 0.007 223.400 0.000 11.230 11.200 0.000 0.000 11.23 11.270 11.370 11.200 100.000 100.000 0.007 11.25 11.300 11.400 11.220 11.19 11.230 11.330 11.170 11.250 11.220 11.190 11.170 13.328 13.328 0.000 13.302 13.302 0.000
PRIMET_226 2017-09-27 22:00:00 226 156.7 0.00 189 0.007 0.007 223.400 0.088 11.270 11.220 0.000 0.000 11.27 11.290 11.390 11.220 100.000 100.000 0.007 11.30 11.340 11.430 11.250 11.22 11.250 11.360 11.190 11.300 11.250 11.220 11.190 13.364 13.364 0.000 13.319 13.319 0.000
PRIMET_226 2017-09-27 21:55:00 226 156.7 0.00 200 0.007 0.007 223.400 0.074 11.300 11.270 0.002 0.000 11.30 11.310 11.420 11.270 100.000 100.000 0.007 11.34 11.350 11.460 11.310 11.27 11.280 11.390 11.240 11.330 11.310 11.270 11.240 13.390 13.390 0.000 13.364 13.364 0.000
PRIMET_226 2017-09-27 21:50:00 226 156.7 0.00 190 0.007 0.007 223.300 0.028 11.370 11.340 0.004 0.000 11.38 11.390 11.490 11.340 100.000 100.000 0.007 11.43 11.450 11.540 11.380 11.33 11.350 11.460 11.300 11.420 11.380 11.330 11.300 13.461 13.452 -0.000 13.426 13.426 0.000
PRIMET_226 2017-09-27 21:45:00 226 156.7 0.00 191 0.007 0.007 223.500 0.000 11.380 11.370 0.023 0.000 11.41 11.410 11.510 11.370 99.800 100.000 0.007 11.44 11.440 11.540 11.390 11.38 11.380 11.490 11.350 11.410 11.390 11.350 11.350 13.488 13.461 0.027 13.452 13.452 0.000
PRIMET_226 2017-09-27 21:40:00 226 156.7 0.00 193 0.007 0.007 223.500 0.000 11.460 11.440 0.027 0.000 11.49 11.470 11.580 11.440 99.800 100.000 0.007 11.52 11.500 11.610 11.470 11.44 11.420 11.540 11.400 11.490 11.470 11.410 11.400 13.560 13.533 0.027 13.515 13.515 0.000
PRIMET_226 2017-09-27 21:35:00 226 156.7 0.00 199 0.007 0.007 223.500 0.000 11.510 11.500 0.040 0.004 11.56 11.530 11.640 11.500 99.700 100.000 0.007 11.59 11.570 11.670 11.550 11.52 11.500 11.610 11.470 11.540 11.540 11.480 11.470 13.623 13.578 0.041 13.569 13.569 0.000
PRIMET_226 2017-09-27 21:30:00 226 156.7 0.00 192 0.023 0.023 223.400 0.000 11.590 11.580 0.047 0.013 11.64 11.620 11.730 11.590 99.700 99.900 0.183 11.69 11.660 11.780 11.640 11.59 11.580 11.680 11.550 11.640 11.620 11.540 11.540 13.695 13.650 0.041 13.650 13.641 0.014
PRIMET_226 2017-09-27 21:25:00 226 156.7 0.00 190 0.007 0.007 223.400 0.000 11.690 11.670 0.043 0.015 11.73 11.730 11.830 11.680 99.700 99.900 0.007 11.79 11.780 11.890 11.730 11.68 11.680 11.780 11.640 11.740 11.720 11.630 11.620 13.777 13.740 0.041 13.731 13.722 0.014
PRIMET_226 2017-09-27 21:20:00 226 156.7 0.00 198 0.007 0.007 223.400 0.000 11.760 11.740 0.044 0.013 11.81 11.810 11.900 11.750 99.700 99.900 0.007 11.84 11.830 11.930 11.780 11.78 11.780 11.890 11.730 11.780 11.760 11.740 11.720 13.850 13.804 0.042 13.795 13.786 0.014
PRIMET_226 2017-09-27 21:15:00 226 156.7 0.00 198 0.007 0.007 223.400 0.000 11.810 11.800 0.057 0.023 11.88 11.880 11.970 11.820 99.600 99.800 0.007 11.92 11.930 12.030 11.870 11.83 11.830 11.930 11.770 11.860 11.850 11.770 11.750 13.914 13.850 0.056 13.859 13.841 0.028
PRIMET_226 2017-09-27 21:10:00 226 156.7 0.00 197 0.022 0.022 223.300 0.028 11.890 11.880 0.064 0.024 11.96 11.970 12.070 11.910 99.500 99.800 0.144 12.02 12.030 12.120 11.960 11.92 11.940 12.030 11.870 11.960 11.930 11.850 11.850 13.988 13.923 0.070 13.941 13.914 0.028
PRIMET_226 2017-09-27 21:05:00 226 156.7 0.00 188 0.007 0.007 223.500 0.308 11.950 11.920 0.080 0.033 12.04 12.040 12.130 11.960 99.400 99.800 0.007 12.06 12.070 12.160 11.970 12.03 12.000 12.100 11.950 11.980 11.950 11.920 11.890 14.062 13.978 0.084 13.988 13.951 0.028
PRIMET_226 2017-09-27 21:00:00 226 156.7 0.00 197 0.009 0.009 223.100 0.069 12.000 11.950 0.105 0.058 12.11 12.080 12.170 12.020 99.300 99.600 0.039 12.16 12.140 12.220 12.060 12.06 12.020 12.120 11.950 12.040 11.990 11.950 11.890 14.127 14.025 0.099 14.043 13.978 0.056
PRIMET_226 2017-09-27 20:55:00 226 156.7 0.00 195 0.047 0.047 223.100 0.000 12.110 12.040 0.105 0.062 12.22 12.190 12.280 12.110 99.300 99.600 0.216 12.26 12.230 12.320 12.150 12.16 12.140 12.220 12.070 12.150 12.090 12.040 12.000 14.229 14.127 0.100 14.127 14.062 0.057
PRIMET_226 2017-09-27 20:50:00 226 156.7 0.00 189 0.037 0.037 223.100 0.000 12.170 12.090 0.122 0.079 12.30 12.270 12.360 12.170 99.100 99.400 0.189 12.35 12.330 12.410 12.210 12.26 12.230 12.330 12.130 12.220 12.130 12.140 12.060 14.304 14.182 0.129 14.182 14.108 0.085
PRIMET_226 2017-09-27 20:45:00 226 156.7 0.00 197 0.018 0.018 223.100 0.000 12.250 12.150 0.135 0.087 12.39 12.380 12.470 12.240 99.100 99.400 0.111 12.44 12.430 12.520 12.280 12.34 12.330 12.430 12.210 12.290 12.180 12.210 12.130 14.389 14.257 0.130 14.248 14.164 0.085
PRIMET_226 2017-09-27 20:40:00 226 156.7 0.00 194 0.038 0.038 223.100 0.000 12.380 12.240 0.125 0.094 12.51 12.520 12.600 12.340 99.100 99.300 0.189 12.57 12.590 12.670 12.420 12.45 12.440 12.520 12.270 12.460 12.330 12.300 12.170 14.503 14.380 0.131 14.342 14.248 0.100
PRIMET_226 2017-09-27 20:35:00 226 156.7 0.00 189 0.010 0.010 223.100 0.000 12.480 12.350 0.098 0.070 12.58 12.620 12.700 12.430 99.300 99.500 0.059 12.59 12.630 12.710 12.440 12.57 12.590 12.680 12.410 12.500 12.370 12.460 12.340 14.570 14.475 0.102 14.427 14.351 0.072
PRIMET_226 2017-09-27 20:30:00 226 156.7 0.00 201 0.072 0.072 223.100 0.040 12.520 12.380 0.113 0.084 12.64 12.650 12.740 12.470 99.200 99.400 0.209 12.67 12.690 12.770 12.500 12.59 12.610 12.700 12.420 12.550 12.410 12.470 12.340 14.627 14.513 0.117 14.465 14.380 0.087
PRIMET_226 2017-09-27 20:25:00 226 156.7 0.00 196 0.122 0.122 222.400 0.244 12.590 12.450 0.131 0.097 12.72 12.720 12.810 12.560 99.100 99.300 0.216 12.78 12.790 12.880 12.610 12.66 12.670 12.760 12.500 12.660 12.520 12.520 12.400 14.704 14.579 0.132 14.551 14.446 0.102
PRIMET_226 2017-09-27 20:20:00 226 156.7 0.00 200 0.067 0.067 223.100 0.056 12.690 12.530 0.116 0.091 12.81 12.820 12.910 12.630 99.200 99.400 0.242 12.86 12.850 12.930 12.650 12.77 12.790 12.880 12.570 12.750 12.560 12.650 12.470 14.791 14.675 0.118 14.618 14.522 0.088
PRIMET_226 2017-09-27 20:15:00 226 156.7 0.00 200 0.042 0.042 223.000 1.714 12.780 12.520 0.104 0.087 12.89 12.900 12.980 12.610 99.300 99.400 0.203 12.90 12.930 13.000 12.630 12.86 12.860 12.940 12.590 12.810 12.540 12.730 12.490 14.869 14.762 0.104 14.599 14.513 0.088
PRIMET_226 2017-09-27 20:10:00 226 156.7 0.00 200 0.024 0.024 227.600 0.105 12.770 12.530 0.152 0.119 12.93 12.910 12.990 12.660 99.000 99.200 0.131 12.99 12.970 13.060 12.730 12.88 12.860 12.950 12.610 12.820 12.610 12.730 12.490 14.908 14.753 0.149 14.647 14.522 0.117
PRIMET_226 2017-09-27 20:05:00 226 156.7 0.00 186 0.007 0.007 227.400 0.048 12.870 12.630 0.174 0.132 13.05 13.040 13.120 12.760 98.800 99.100 0.013 13.13 13.100 13.190 12.820 12.99 12.970 13.070 12.710 12.960 12.690 12.810 12.580 15.025 14.850 0.180 14.743 14.618 0.133
PRIMET_226 2017-09-27 20:00:00 226 156.7 0.00 193 0.008 0.008 227.400 0.048 13.020 12.760 0.159 0.124 13.18 13.180 13.260 12.890 99.000 99.200 0.039 13.23 13.220 13.310 12.920 13.12 13.120 13.200 12.830 13.080 12.790 12.950 12.700 15.154 14.996 0.152 14.869 14.743 0.119
PRIMET_226 2017-09-27 19:55:00 226 156.7 0.00 202 0.007 0.007 227.500 0.040 13.140 12.860 0.118 0.104 13.26 13.290 13.360 12.970 99.200 99.300 0.007 13.27 13.310 13.390 12.990 13.24 13.240 13.310 12.930 13.160 12.900 13.100 12.810 15.233 15.114 0.122 14.947 14.840 0.105
PRIMET_226 2017-09-27 19:50:00 226 156.7 0.00 196 0.007 0.007 227.400 0.040 13.130 12.860 0.148 0.126 13.28 13.260 13.350 12.990 99.000 99.200 0.007 13.32 13.290 13.370 13.020 13.25 13.250 13.330 12.970 13.150 12.890 13.120 12.840 15.253 15.104 0.153 14.967 14.840 0.120
PRIMET_226 2017-09-27 19:45:00 226 156.7 0.00 200 0.007 0.007 227.400 0.000 13.190 12.940 0.185 0.153 13.38 13.350 13.440 13.090 98.800 99.000 0.007 13.44 13.400 13.490 13.160 13.31 13.290 13.380 13.040 13.250 12.990 13.140 12.890 15.353 15.164 0.184 15.065 14.918 0.151
PRIMET_226 2017-09-27 19:40:00 226 156.7 0.00 199 0.007 0.007 227.400 0.000 13.300 13.050 0.203 0.167 13.50 13.480 13.570 13.220 98.700 98.900 0.007 13.55 13.530 13.610 13.280 13.44 13.420 13.510 13.170 13.330 13.100 13.250 13.000 15.473 15.273 0.201 15.193 15.025 0.167
PRIMET_226 2017-09-27 19:35:00 226 156.7 0.00 200 0.007 0.007 227.400 0.134 13.400 13.160 0.225 0.186 13.63 13.620 13.700 13.350 98.600 98.800 0.007 13.68 13.700 13.760 13.400 13.56 13.540 13.620 13.280 13.460 13.220 13.340 13.100 15.605 15.373 0.218 15.323 15.134 0.184
PRIMET_226 2017-09-27 19:30:00 226 156.7 0.00 193 0.007 0.007 227.600 0.000 13.560 13.300 0.200 0.173 13.76 13.780 13.850 13.470 98.700 98.900 0.007 13.80 13.830 13.910 13.520 13.70 13.690 13.780 13.420 13.640 13.370 13.480 13.240 15.737 15.534 0.205 15.443 15.273 0.170
PRIMET_226 2017-09-27 19:25:00 226 156.7 0.00 195 0.021 0.021 227.600 0.534 13.610 13.350 0.186 0.167 13.80 13.820 13.900 13.510 98.800 98.900 0.157 13.81 13.840 13.930 13.530 13.78 13.790 13.870 13.500 13.660 13.370 13.560 13.320 15.778 15.585 0.189 15.483 15.323 0.170
PRIMET_226 2017-09-27 19:20:00 226 156.7 0.00 194 0.007 0.007 224.100 0.040 13.600 13.370 0.276 0.221 13.87 13.860 13.950 13.590 98.300 98.600 0.007 13.93 13.930 14.010 13.640 13.81 13.790 13.870 13.520 13.650 13.410 13.550 13.320 15.850 15.574 0.269 15.564 15.343 0.218
PRIMET_226 2017-09-27 19:15:00 226 156.7 0.00 199 0.069 0.069 224.200 0.161 13.730 13.480 0.285 0.239 14.00 14.010 14.090 13.720 98.200 98.500 0.268 14.07 14.080 14.160 13.780 13.93 13.940 14.010 13.650 13.800 13.550 13.650 13.410 15.985 15.707 0.288 15.697 15.453 0.235
PRIMET_226 2017-09-27 19:10:00 226 156.7 0.00 191 0.120 0.120 224.400 0.000 13.870 13.610 0.251 0.219 14.11 14.130 14.200 13.820 98.400 98.600 0.327 14.14 14.150 14.220 13.850 14.06 14.090 14.170 13.790 13.900 13.640 13.790 13.560 16.099 15.850 0.258 15.799 15.585 0.221
PRIMET_226 2017-09-27 19:05:00 226 156.7 0.00 202 0.025 0.025 224.100 0.353 13.940 13.660 0.261 0.234 14.19 14.180 14.260 13.890 98.400 98.500 0.150 14.24 14.230 14.320 13.950 14.14 14.140 14.210 13.850 13.990 13.720 13.900 13.620 16.183 15.923 0.259 15.871 15.635 0.238
PRIMET_226 2017-09-27 19:00:00 226 156.7 0.00 197 0.014 0.014 223.300 0.145 14.030 13.770 0.273 0.238 14.29 14.290 14.360 14.000 98.300 98.500 0.137 14.33 14.320 14.390 14.030 14.24 14.240 14.310 13.960 14.050 13.800 13.980 13.730 16.288 16.016 0.277 15.985 15.748 0.240
PRIMET_226 2017-09-27 18:55:00 226 156.7 0.00 194 0.039 0.039 223.000 0.468 14.120 13.850 0.298 0.256 14.40 14.380 14.460 14.100 98.200 98.400 0.189 14.46 14.430 14.510 14.150 14.33 14.320 14.390 14.030 14.180 13.900 14.040 13.780 16.404 16.110 0.295 16.089 15.830 0.257
PRIMET_226 2017-09-27 18:50:00 226 156.7 0.00 188 0.007 0.007 224.500 0.000 14.240 13.970 0.286 0.259 14.51 14.500 14.570 14.220 98.300 98.400 0.007 14.54 14.540 14.610 14.260 14.47 14.430 14.510 14.150 14.260 14.010 14.190 13.900 16.521 16.235 0.281 16.214 15.954 0.259
PRIMET_226 2017-09-27 18:45:00 226 156.7 0.00 189 0.007 0.007 224.400 0.093 14.280 14.020 0.331 0.288 14.59 14.570 14.640 14.300 98.000 98.200 0.007 14.65 14.620 14.700 14.350 14.54 14.520 14.600 14.250 14.320 14.070 14.240 13.980 16.607 16.277 0.332 16.298 16.005 0.293
PRIMET_226 2017-09-27 18:40:00 226 156.7 0.00 199 0.033 0.033 224.500 0.000 14.370 14.100 0.360 0.326 14.71 14.690 14.760 14.410 97.800 98.000 0.189 14.77 14.760 14.830 14.470 14.65 14.630 14.700 14.360 14.430 14.150 14.320 14.060 16.736 16.372 0.368 16.415 16.089 0.328
PRIMET_226 2017-09-27 18:35:00 226 156.7 0.00 195 0.014 0.014 224.400 0.207 14.480 14.210 0.379 0.355 14.83 14.810 14.890 14.540 97.800 97.900 0.150 14.89 14.870 14.960 14.620 14.77 14.760 14.820 14.470 14.540 14.270 14.420 14.150 16.866 16.489 0.371 16.553 16.204 0.348
PRIMET_226 2017-09-27 18:30:00 226 156.7 0.00 195 0.007 0.007 224.100 0.000 14.600 14.310 0.397 0.390 14.96 14.940 15.020 14.670 97.700 97.700 0.007 15.02 15.000 15.080 14.740 14.91 14.880 14.960 14.610 14.650 14.360 14.550 14.260 17.008 16.618 0.391 16.693 16.309 0.384
PRIMET_226 2017-09-27 18:25:00 226 156.7 0.00 194 0.007 0.007 224.000 0.000 14.690 14.430 0.416 0.418 15.07 15.070 15.150 14.820 97.600 97.500 0.007 15.14 15.130 15.220 14.880 15.02 15.010 15.080 14.750 14.750 14.490 14.640 14.360 17.129 16.715 0.411 16.855 16.436 0.421
PRIMET_226 2017-09-27 18:20:00 226 156.7 0.00 192 0.007 0.007 224.000 0.000 14.770 14.530 0.439 0.443 15.17 15.180 15.260 14.930 97.500 97.400 0.007 15.23 15.230 15.320 14.980 15.12 15.140 15.210 14.870 14.800 14.560 14.740 14.480 17.239 16.801 0.431 16.975 16.543 0.441
PRIMET_226 2017-09-27 18:15:00 226 156.7 0.00 189 0.087 0.087 224.800 0.494 14.860 14.610 0.451 0.468 15.27 15.280 15.360 15.040 97.400 97.300 0.301 15.31 15.310 15.380 15.080 15.22 15.240 15.310 14.990 14.930 14.650 14.800 14.570 17.351 16.899 0.451 17.096 16.628 0.462
PRIMET_226 2017-09-27 18:10:00 226 156.7 0.00 195 0.007 0.007 221.400 0.170 14.890 14.750 0.590 0.535 15.42 15.380 15.460 15.240 96.600 96.900 0.007 15.53 15.490 15.560 15.340 15.32 15.290 15.370 15.100 15.030 14.840 14.820 14.630 17.518 16.932 0.596 17.317 16.779 0.537
PRIMET_226 2017-09-27 18:05:00 226 156.7 0.00 195 0.007 0.007 221.400 0.000 15.050 14.860 0.606 0.578 15.59 15.550 15.620 15.380 96.600 96.700 0.007 15.65 15.620 15.670 15.440 15.54 15.500 15.580 15.320 15.070 14.900 15.020 14.830 17.710 17.107 0.602 17.474 16.899 0.577
PRIMET_226 2017-09-27 18:00:00 226 156.7 0.00 193 0.007 0.007 221.300 0.040 15.120 14.940 0.674 0.641 15.72 15.680 15.750 15.510 96.200 96.400 0.007 15.78 15.740 15.830 15.590 15.66 15.610 15.690 15.460 15.160 14.980 15.070 14.910 17.859 17.184 0.679 17.620 16.986 0.634
PRIMET_226 2017-09-27 17:55:00 226 156.7 0.00 185 0.007 0.007 221.900 0.151 15.210 15.020 0.724 0.700 15.85 15.820 15.900 15.650 96.000 96.100 0.007 15.92 15.870 15.960 15.700 15.79 15.760 15.830 15.580 15.250 15.060 15.160 14.970 18.008 17.284 0.720 17.779 17.074 0.693
PRIMET_226 2017-09-27 17:50:00 226 156.7 0.00 200 0.007 0.007 221.100 1.072 15.260 15.080 0.796 0.768 15.96 15.950 16.020 15.760 95.600 95.700 0.007 16.03 16.020 16.090 15.840 15.92 15.880 15.960 15.710 15.290 15.130 15.230 15.050 18.135 17.339 0.798 17.904 17.140 0.770
PRIMET_226 2017-09-27 17:45:00 226 156.7 0.00 190 0.007 0.007 220.000 0.079 15.340 15.160 0.839 0.815 16.08 16.080 16.140 15.880 95.400 95.500 0.007 16.12 16.120 16.180 15.930 16.03 16.030 16.090 15.820 15.370 15.190 15.290 15.120 18.274 17.429 0.841 18.042 17.228 0.812
PRIMET_226 2017-09-27 17:40:00 226 156.7 0.00 197 0.007 0.007 219.500 0.093 15.380 15.200 0.925 0.899 16.19 16.180 16.250 16.000 95.000 95.100 0.007 16.24 16.250 16.310 16.070 16.13 16.110 16.170 15.930 15.410 15.250 15.350 15.170 18.403 17.474 0.920 18.181 17.273 0.891
PRIMET_226 2017-09-27 17:35:00 226 156.7 0.00 193 0.111 0.111 219.300 0.229 15.420 15.270 1.024 0.986 16.31 16.310 16.380 16.130 94.500 94.600 0.242 16.39 16.380 16.440 16.190 16.25 16.260 16.330 16.080 15.470 15.300 15.390 15.250 18.544 17.518 1.020 18.333 17.351 0.990
PRIMET_226 2017-09-27 17:30:00 226 156.7 0.00 188 0.011 0.011 219.300 0.271 15.520 15.350 1.076 1.065 16.45 16.450 16.510 16.280 94.300 94.200 0.091 16.50 16.510 16.590 16.340 16.40 16.380 16.440 16.200 15.570 15.390 15.490 15.310 18.710 17.631 1.066 18.509 17.440 1.074
PRIMET_226 2017-09-27 17:25:00 226 156.7 0.00 197 0.007 0.007 219.600 0.028 15.600 15.420 1.112 1.157 16.55 16.560 16.640 16.420 94.100 93.800 0.007 16.59 16.620 16.700 16.480 16.51 16.510 16.580 16.350 15.630 15.450 15.570 15.380 18.830 17.722 1.111 18.675 17.518 1.158
PRIMET_226 2017-09-27 17:20:00 226 156.7 0.00 193 0.007 0.007 219.600 0.028 15.620 15.480 1.206 1.259 16.65 16.670 16.760 16.560 93.600 93.300 0.007 16.71 16.710 16.810 16.620 16.60 16.610 16.710 16.500 15.660 15.490 15.540 15.460 18.950 17.745 1.213 18.842 17.586 1.262
PRIMET_226 2017-09-27 17:15:00 226 156.7 0.00 198 0.007 0.007 219.600 0.000 15.700 15.510 1.268 1.394 16.78 16.790 16.890 16.700 93.400 92.700 0.007 16.83 16.840 16.950 16.780 16.72 16.730 16.830 16.620 15.770 15.560 15.630 15.450 19.107 17.836 1.261 19.010 17.620 1.388
PRIMET_226 2017-09-27 17:10:00 226 156.7 0.00 193 0.053 0.053 216.200 3.247 15.770 15.580 1.368 1.512 16.92 16.910 17.020 16.870 92.900 92.100 0.189 17.00 17.010 17.110 16.940 16.83 16.850 16.950 16.780 15.810 15.630 15.720 15.520 19.277 17.916 1.369 19.216 17.699 1.518
PRIMET_226 2017-09-27 17:05:00 226 156.7 0.00 199 0.007 0.007 229.700 0.000 15.700 15.610 1.642 1.675 17.08 17.080 17.180 17.030 91.600 91.400 0.007 17.18 17.170 17.270 17.120 17.00 17.010 17.130 16.960 15.800 15.630 15.650 15.550 19.474 17.836 1.636 19.412 17.733 1.669
PRIMET_226 2017-09-27 17:00:00 226 156.7 0.00 193 0.007 0.007 229.600 0.000 15.820 15.670 1.772 1.826 17.30 17.280 17.370 17.210 91.000 90.700 0.007 17.38 17.370 17.450 17.280 17.18 17.180 17.280 17.120 15.890 15.720 15.660 15.630 19.747 17.973 1.777 19.635 17.801 1.826
PRIMET_226 2017-09-27 16:55:00 226 156.7 0.00 197 0.030 0.030 229.600 0.069 15.990 15.740 1.794 1.952 17.47 17.450 17.550 17.370 91.000 90.200 0.274 17.54 17.530 17.620 17.450 17.40 17.370 17.460 17.280 16.090 15.800 15.870 15.700 19.960 18.170 1.796 19.834 17.881 1.944
PRIMET_226 2017-09-27 16:50:00 226 156.7 0.00 189 0.007 0.007 229.800 0.040 15.940 15.680 2.049 2.234 17.63 17.600 17.690 17.540 89.800 88.900 0.007 17.72 17.690 17.780 17.630 17.54 17.530 17.630 17.460 16.050 15.780 15.880 15.520 20.163 18.112 2.057 20.048 17.813 2.225
PRIMET_226 2017-09-27 16:45:00 226 156.7 0.00 196 0.007 0.007 229.800 0.048 15.990 15.690 2.221 2.488 17.81 17.790 17.890 17.740 89.100 87.700 0.007 17.88 17.860 17.980 17.830 17.73 17.690 17.790 17.650 16.080 15.730 15.860 15.530 20.393 18.170 2.223 20.303 17.824 2.497
PRIMET_226 2017-09-27 16:40:00 226 156.7 0.00 183 0.007 0.007 229.700 0.048 15.900 15.480 2.525 2.975 17.96 17.950 18.070 17.940 87.700 85.500 0.007 18.03 17.990 18.130 18.020 17.89 17.880 18.000 17.850 16.010 15.770 15.780 15.010 20.586 18.065 2.532 20.560 17.586 2.981
PRIMET_226 2017-09-27 16:35:00 226 156.7 0.00 189 0.007 0.007 229.800 0.314 15.790 15.340 2.903 3.391 18.16 18.130 18.250 18.140 86.100 83.700 0.007 18.23 18.200 18.320 18.220 18.04 17.990 18.130 18.030 15.880 15.510 15.710 14.980 20.846 17.939 2.898 20.820 17.429 3.394
PRIMET_226 2017-09-27 16:30:00 226 156.7 0.00 193 0.007 0.007 231.200 0.028 15.670 15.000 3.309 4.038 18.36 18.310 18.410 18.340 84.300 80.900 0.007 18.45 18.420 18.520 18.470 18.24 18.210 18.330 18.230 15.810 15.390 15.520 14.660 21.110 17.801 3.314 21.083 17.052 4.027
PRIMET_226 2017-09-27 16:25:00 226 156.7 0.00 201 0.027 0.027 231.600 0.115 15.660 14.850 3.508 4.469 18.51 18.500 18.620 18.550 83.500 79.080 0.157 18.55 18.550 18.680 18.630 18.44 18.430 18.550 18.480 15.800 15.370 15.510 14.250 21.309 17.790 3.516 21.362 16.888 4.469
PRIMET_226 2017-09-27 16:20:00 226 156.7 0.00 189 0.051 0.051 231.800 0.084 15.580 14.870 3.804 4.743 18.65 18.630 18.770 18.760 82.300 78.090 0.216 18.75 18.750 18.880 18.870 18.55 18.540 18.680 18.650 15.760 15.050 15.360 14.520 21.496 17.699 3.805 21.645 16.910 4.742
PRIMET_226 2017-09-27 16:15:00 226 156.7 0.00 198 0.007 0.007 231.500 0.206 15.240 14.580 4.378 5.376 18.80 18.830 19.000 19.000 79.820 75.540 0.007 18.83 18.870 19.080 19.110 18.74 18.750 18.890 18.870 15.540 15.310 14.990 14.000 21.699 17.317 4.379 21.972 16.596 5.374
PRIMET_226 2017-09-27 16:10:00 226 156.7 0.00 194 0.007 0.007 231.100 0.056 15.270 14.520 4.588 5.832 18.98 19.030 19.230 19.280 79.090 73.920 0.007 19.03 19.100 19.320 19.410 18.85 18.870 19.080 19.140 15.630 14.830 14.880 14.090 21.944 17.351 4.589 22.358 16.532 5.831
PRIMET_226 2017-09-27 16:05:00 226 156.7 0.00 193 0.007 0.007 231.100 0.097 15.210 14.120 4.869 6.626 19.14 19.180 19.430 19.550 78.020 70.850 0.007 19.24 19.270 19.540 19.660 19.02 19.100 19.320 19.430 15.610 14.620 14.620 13.650 22.164 17.284 4.872 22.737 16.110 6.628